GFSMW_sfc_rhum_000.txt.gz
RH
48 50 54 60 62 64 58 55 50 53 73 91 94 94 84 90 94 87 79 78 76 72 75 73 72 83 80 74 74 76 78 78 93 95 77 78 79 76 69 66 65 61 58
49 50 54 60 60 62 64 58 54 54 67 78 83 85 90 94 92 91 89 85 84 79 76 75 72 74 81 80 79 80 79 78 88 81 84 87 72 72 72 69 68 66 62
50 54 58 64 65 63 60 54 56 60 61 72 81 86 87 90 90 92 93 90 88 84 83 78 77 76 82 80 80 85 85 81 74 80 82 97 94 92 88 86 77 72 73
53 57 60 62 67 64 60 56 54 53 50 63 67 73 80 81 85 88 88 83 83 88 87 84 83 82 81 84 82 79 86 83 87 81 79 75 78 92 84 78 88 86 78
56 60 61 60 63 64 64 61 56 53 55 55 58 66 65 78 81 78 70 69 72 73 76 86 91 90 86 85 83 85 86 86 88 87 85 89 88 83 92 95 77 68 76
59 60 61 59 60 62 63 63 58 58 57 56 56 57 59 60 60 64 66 66 69 74 64 59 72 90 93 91 86 86 89 90 90 90 88 88 92 87 90 95 88 84 70
58 60 61 62 61 61 60 56 59 60 59 59 59 61 62 64 65 65 66 65 61 64 55 57 56 56 59 64 78 91 93 93 94 92 87 82 87 84 82 85 88 88 75
58 58 60 62 60 58 60 59 60 61 62 62 62 64 66 69 68 67 68 68 67 66 62 59 56 55 54 55 59 70 76 80 88 91 91 88 81 80 82 89 92 90 83
57 58 59 59 58 60 61 61 62 65 66 68 68 68 70 70 71 72 70 70 63 53 55 60 64 59 59 58 58 59 63 67 74 79 83 84 80 80 84 85 86 91 94
57 59 59 58 61 62 65 67 69 70 71 71 72 69 74 71 70 66 66 59 56 55 57 56 55 56 58 59 61 61 59 63 65 65 70 72 74 77 82 88 87 87 91
58 59 59 62 64 68 72 74 74 67 65 69 70 72 76 72 69 62 60 56 55 53 54 53 55 56 59 54 55 56 55 57 61 68 67 74 75 79 80 83 84 86 87
58 60 63 69 74 76 77 74 69 64 62 65 67 66 69 61 56 52 49 49 50 48 48 50 52 50 47 50 56 57 57 63 56 58 67 73 70 80 80 82 84 84 84
62 56 63 77 82 78 76 72 65 62 60 62 63 61 64 53 47 47 45 44 45 46 44 46 46 43 47 54 49 55 59 54 59 62 72 78 80 77 78 81 84 83 81
53 57 76 88 83 75 70 63 58 56 58 59 58 63 52 49 47 46 43 42 42 43 42 41 38 42 49 42 47 54 50 60 60 75 82 74 64 67 79 82 85 83 86
53 66 90 90 81 72 64 57 53 50 52 51 54 52 49 44 44 44 42 40 41 39 40 36 36 39 44 31 53 45 47 55 72 68 55 60 67 80 81 65 66 77 85
60 85 84 77 76 74 59 51 50 49 48 48 49 42 36 35 38 37 38 37 38 36 37 36 38 49 28 50 57 53 47 60 53 50 47 56 60 69 60 62 72 79 88
82 83 78 76 71 59 52 53 50 47 42 47 35 32 32 33 34 33 34 36 35 36 36 34 35 32 32 50 54 59 47 41 43 41 43 47 54 63 50 60 68 70 75
81 79 74 68 62 53 51 48 44 39 35 38 32 32 33 34 33 34 34 34 33 34 33 35 32 32 27 50 56 61 37 32 35 46 46 59 69 62 63 66 72 70 72
81 76 68 61 54 47 44 37 34 32 31 33 34 34 35 35 35 36 36 34 34 35 36 32 32 32 31 49 54 50 38 44 50 49 51 64 65 67 67 68 77 79 78
68 65 56 50 45 41 33 30 32 32 32 34 36 36 38 38 38 38 38 36 38 36 35 36 34 39 32 47 46 46 43 50 53 52 56 66 64 65 66 69 78 89 83
58 54 53 48 40 32 30 32 35 34 34 38 39 40 40 40 39 39 40 42 44 42 44 40 37 36 39 42 52 55 52 55 58 62 67 62 65 65 69 71 80 87 82
57 50 50 36 28 29 33 36 37 35 38 41 42 42 43 40 38 49 50 49 47 48 46 46 44 44 47 55 57 60 59 58 64 71 63 63 67 74 76 71 78 80 84
45 37 36 33 29 35 37 39 38 40 42 46 46 45 44 43 43 52 52 53 49 51 51 51 57 60 57 57 62 61 61 69 65 61 68 64 73 67 66 69 75 81 89
39 35 32 30 35 38 38 40 41 43 47 50 49 48 48 48 48 47 49 53 53 55 55 62 66 67 65 65 61 58 66 64 71 75 62 69 62 62 64 69 74 84 91
38 35 35 40 43 43 43 43 44 48 52 53 51 48 48 51 51 50 51 51 52 57 61 64 64 70 76 68 63 60 58 82 67 59 70 73 70 74 77 76 79 84 88
38 41 44 47 46 47 48 47 48 52 56 51 49 52 52 55 54 53 53 56 60 62 61 61 60 55 60 64 58 60 76 75 59 66 78 81 81 84 83 82 88 85 88

GFSMW_sfc_rhum_003.txt.gz
RH
54 55 58 60 58 56 61 63 60 64 83 94 95 96 96 95 96 95 86 80 80 78 79 76 75 77 82 75 75 84 85 84 90 86 78 74 72 76 75 70 70 70 67
56 57 61 65 63 61 60 58 60 66 77 91 93 93 94 94 95 95 93 91 90 88 86 85 81 80 84 86 85 87 87 86 80 86 92 93 82 84 79 76 75 73 71
58 61 63 67 67 65 64 57 57 55 63 78 88 89 86 88 85 87 89 85 84 89 93 94 94 90 94 88 86 90 92 92 86 80 86 99 95 90 86 89 80 77 78
61 61 61 66 68 67 65 61 58 54 51 59 61 75 81 80 83 87 79 71 71 72 72 77 84 94 94 96 92 85 87 91 94 90 84 82 82 94 91 78 86 78 74
60 61 63 62 65 66 67 64 58 56 59 58 62 65 67 71 73 70 64 65 63 68 61 62 64 67 71 81 91 92 95 93 93 92 92 90 92 90 98 95 82 72 76
64 64 64 61 62 64 65 66 59 61 61 60 62 66 68 67 65 68 66 68 66 68 56 56 58 64 67 69 70 73 81 89 93 93 92 92 90 88 92 96 91 90 79
63 63 64 63 63 66 65 59 64 66 67 65 66 70 72 73 72 72 71 68 64 62 60 64 61 60 60 65 71 77 80 79 84 82 82 83 84 82 83 87 87 86 77
64 64 65 65 65 64 66 68 70 70 69 71 72 71 71 73 72 72 71 68 68 64 58 58 57 57 58 61 63 70 82 78 85 85 82 79 78 78 82 87 90 86 81
63 63 64 66 65 69 72 73 71 71 71 72 72 75 70 68 70 69 68 66 60 49 51 57 56 56 57 60 62 57 64 66 73 83 85 85 73 78 82 83 86 89 94
63 63 65 67 70 74 77 73 69 68 69 69 72 70 72 67 66 63 59 55 52 51 52 51 54 54 55 52 51 58 59 61 63 61 66 68 71 78 83 87 85 86 91
63 65 69 70 75 77 74 70 64 62 63 65 66 69 66 61 56 48 47 46 48 46 46 44 46 45 44 45 56 54 54 63 57 58 63 68 73 82 80 78 78 81 85
62 67 72 78 79 78 70 64 60 60 62 61 60 61 53 44 43 45 42 40 40 40 42 40 40 37 40 46 49 47 58 52 53 63 64 70 72 76 75 71 75 82 83
68 70 81 83 81 77 68 60 56 55 56 55 57 50 45 45 44 43 40 37 38 39 38 39 38 37 39 49 40 39 51 42 44 53 60 81 64 74 66 71 85 76 61
58 68 88 87 80 69 59 54 50 50 50 49 49 42 41 43 42 42 40 39 38 37 36 37 36 37 39 38 33 42 44 44 51 60 77 55 55 61 67 73 72 60 76
59 78 92 89 78 67 58 53 50 48 45 47 42 43 42 40 40 40 38 37 37 35 36 36 34 36 35 25 38 43 46 57 44 39 42 41 51 56 60 70 71 69 77
60 84 87 78 73 68 56 51 50 47 41 44 39 38 38 38 39 37 37 37 37 36 35 35 37 42 29 43 47 48 52 48 37 36 36 47 51 48 66 66 65 67 75
76 90 80 76 70 56 53 53 48 36 32 39 36 38 38 39 40 38 38 39 38 38 37 36 37 36 34 46 50 52 47 42 42 47 51 50 46 61 69 67 68 70 68
85 81 76 71 58 54 49 39 32 31 34 36 37 39 41 40 40 40 40 41 39 39 40 39 38 38 35 49 51 52 42 46 47 50 53 55 60 65 63 63 63 69 69
82 78 71 64 53 45 33 28 31 34 35 37 40 40 42 42 42 43 43 42 42 44 42 40 41 42 39 50 52 51 50 51 54 54 54 60 61 63 60 61 70 71 70
70 68 61 53 42 31 29 31 33 35 37 39 41 43 45 45 45 46 45 43 46 45 43 44 44 47 43 50 56 56 53 60 61 67 70 65 62 61 64 62 71 95 96
68 61 54 45 38 28 31 33 32 36 39 42 44 46 48 49 47 47 47 49 51 49 51 48 47 47 48 54 61 61 56 59 71 94 69 64 65 71 62 64 78 87 76
65 56 49 36 27 29 30 32 37 39 43 46 49 51 52 47 42 57 57 56 54 55 54 54 54 53 55 60 61 62 62 61 68 66 66 70 66 61 61 60 62 61 69
52 45 41 33 28 31 34 40 41 44 47 51 54 54 53 52 50 59 57 58 55 56 58 58 62 65 60 61 65 67 68 67 61 69 75 62 61 63 63 66 67 71 81
50 40 31 28 31 39 41 44 46 48 53 57 58 55 58 53 53 54 55 57 56 59 60 65 68 70 73 69 64 66 69 64 65 97 62 59 64 66 67 71 74 79 81
39 33 33 38 42 45 46 48 48 52 53 56 56 56 56 59 58 56 55 53 54 60 62 65 66 70 75 68 60 66 57 60 91 63 62 64 72 76 75 75 75 78 79
37 38 42 44 46 50 51 50 50 54 58 55 52 56 57 62 60 59 56 56 60 62 61 62 61 56 60 62 62 61 64 74 66 62 70 79 81 81 80 80 80 80 79

GFSMW_sfc_rhum_006.txt.gz
RH
62 62 63 64 60 61 60 63 64 79 92 96 96 95 95 96 96 96 94 92 89 86 86 87 86 88 92 85 84 92 94 87 91 89 87 82 79 78 76 76 76 74 71
62 62 64 67 66 65 61 56 57 62 82 94 95 95 96 97 95 91 81 80 86 87 86 95 96 96 97 95 96 94 89 87 86 93 93 96 89 89 80 79 80 79 74
61 66 67 70 70 69 68 60 61 57 59 68 80 78 79 79 79 78 68 70 68 60 63 69 78 86 95 97 97 97 95 95 86 85 94 98 92 86 80 83 84 81 80
69 64 63 67 69 68 66 65 62 62 58 65 62 70 73 76 79 80 72 67 68 66 61 63 65 70 76 76 80 68 92 93 93 89 85 90 93 97 94 75 84 84 82
67 67 66 64 67 68 71 70 64 64 66 65 69 69 72 76 75 74 68 70 64 68 59 59 64 65 66 74 79 76 77 85 90 88 91 90 89 89 92 90 78 71 73
70 69 68 66 68 71 72 73 67 70 70 68 70 73 74 70 65 68 66 66 64 67 60 59 62 65 66 69 73 77 84 84 87 87 82 84 87 88 91 92 86 87 76
71 70 68 70 70 72 73 68 70 74 74 70 68 71 75 76 73 73 68 63 58 59 56 56 59 59 60 64 70 79 83 82 88 85 83 84 82 82 84 86 83 84 75
70 70 70 71 72 74 76 75 74 73 74 72 73 70 69 69 65 66 66 62 62 61 52 55 55 57 56 59 57 63 76 73 84 86 88 86 76 75 77 86 93 88 78
69 70 72 72 77 79 78 73 70 70 71 72 72 70 64 63 63 65 61 56 55 41 47 54 52 50 49 46 49 56 60 60 72 87 82 76 70 75 82 88 90 92 91
69 72 72 76 82 81 75 68 67 68 68 67 67 60 60 55 54 52 51 49 46 45 46 44 43 42 38 42 43 60 45 52 69 48 59 69 68 74 86 89 82 79 84
68 73 74 81 83 76 70 66 64 63 62 62 59 52 47 47 46 46 47 44 45 44 42 40 41 38 38 39 43 52 40 51 54 46 50 61 64 79 72 79 74 71 80
68 75 78 85 79 71 64 60 58 58 57 57 50 46 44 44 44 44 44 42 41 39 39 37 40 37 37 38 45 40 39 51 47 49 60 67 66 66 73 73 62 74 78
73 80 88 85 80 69 59 54 53 53 52 49 44 40 41 42 42 41 39 38 38 38 37 37 39 37 38 39 35 36 42 44 49 58 50 41 53 54 54 54 61 68 72
71 84 90 86 74 61 56 53 51 48 46 41 38 39 40 40 40 42 41 41 40 41 38 36 36 37 38 36 32 40 44 49 55 48 42 38 41 50 57 54 61 71 80
69 84 88 85 73 62 57 52 50 42 42 36 38 40 41 41 42 44 44 42 43 39 38 37 37 38 38 27 41 44 47 50 51 45 42 46 55 57 54 56 65 70 74
66 88 89 80 73 64 57 51 47 35 35 37 39 41 42 43 45 45 43 42 43 41 41 40 42 46 34 47 51 50 49 48 47 51 50 50 56 56 62 63 61 60 65
69 93 84 78 66 59 54 49 38 31 32 36 38 41 44 46 46 44 44 44 43 45 44 43 42 42 41 51 55 55 48 51 54 55 56 55 50 62 65 65 63 63 64
86 88 80 70 60 57 48 39 30 27 35 37 39 43 46 47 48 48 48 48 46 47 46 46 44 45 42 54 56 58 53 56 57 57 59 62 74 70 62 61 75 90 65
89 81 74 65 57 46 34 28 28 34 36 39 42 44 47 50 50 49 50 48 49 49 48 46 47 49 48 56 59 58 55 57 59 58 60 75 74 64 62 77 83 67 82
77 73 65 56 42 33 30 32 34 35 37 42 45 46 50 52 52 53 51 50 52 49 49 49 50 54 51 58 62 58 54 60 63 63 80 71 59 63 69 57 65 85 72
71 64 56 48 38 31 29 34 36 36 41 46 48 50 52 54 54 54 55 54 56 55 56 54 51 53 55 59 62 61 55 58 69 93 64 58 69 83 60 59 67 70 61
69 58 50 39 31 30 35 36 34 41 46 50 52 53 55 51 46 60 61 64 61 60 57 56 58 57 59 62 63 63 61 62 69 65 58 67 89 61 60 64 66 66 66
62 52 46 38 34 38 39 40 41 48 51 54 55 56 54 53 53 61 61 60 60 60 60 60 66 66 62 64 67 67 70 68 59 58 74 82 62 60 65 66 67 68 76
56 46 38 31 31 36 41 45 48 51 55 58 58 57 60 57 60 61 60 64 60 61 61 66 68 70 69 70 66 67 69 67 64 87 93 63 60 63 65 67 70 73 76
48 39 33 34 39 45 47 49 49 54 54 56 56 58 58 64 63 61 65 59 58 62 63 62 64 72 75 66 61 65 56 62 70 61 59 63 67 74 70 71 72 75 76
42 39 37 42 44 49 52 52 53 55 60 57 53 57 58 66 62 63 62 58 60 60 59 61 61 57 62 64 66 61 67 68 56 53 62 79 80 77 75 77 79 79 80

GFSMW_sfc_rhum_009.txt.gz
RH
51 52 52 50 46 48 48 52 63 73 72 74 73 74 76 68 62 56 53 52 54 55 59 58 56 60 65 66 67 73 73 72 71 90 84 75 65 63 62 60 60 61 61
50 53 52 52 52 51 49 48 51 57 72 77 80 78 63 58 55 53 52 49 44 45 42 48 48 49 53 51 54 58 63 60 58 78 87 85 66 53 65 63 65 61 61
52 54 54 55 55 55 57 53 53 54 56 56 53 52 54 55 54 53 50 51 47 45 45 47 46 48 51 53 55 56 59 62 53 56 70 78 74 78 56 56 56 61 63
55 56 55 56 56 60 63 58 58 56 56 55 56 57 58 55 57 53 50 46 47 48 43 46 48 48 49 51 53 48 58 60 62 57 44 58 65 72 72 40 50 45 51
57 59 59 61 60 63 66 62 59 60 60 57 57 54 55 55 52 49 46 46 44 47 42 42 45 46 46 51 55 55 58 61 64 64 66 64 64 61 75 80 56 54 48
60 60 61 61 61 66 67 66 60 60 58 57 56 56 55 48 47 49 44 42 39 42 38 39 40 41 42 45 47 52 59 61 61 64 65 68 73 71 72 76 69 66 55
60 60 60 60 63 66 65 61 60 61 56 54 52 51 51 48 45 42 38 35 33 38 36 38 35 36 38 38 40 46 55 55 60 66 68 62 55 51 56 65 73 74 60
61 60 62 64 66 67 64 61 59 60 55 51 47 43 43 40 37 37 34 32 32 34 32 34 32 32 31 30 33 37 54 42 54 67 59 52 45 47 52 67 84 86 60
63 63 62 64 66 64 62 59 57 56 55 48 39 36 33 34 35 34 31 32 30 25 30 32 32 31 30 30 32 32 39 37 40 53 49 47 45 56 61 69 74 73 85
64 64 62 68 67 61 59 57 52 52 48 41 33 31 30 30 30 29 30 31 29 30 31 30 30 30 28 28 30 33 34 33 34 38 41 47 50 57 62 59 57 64 67
63 63 66 70 66 58 55 52 48 48 44 36 30 28 29 28 27 27 28 29 29 30 29 28 28 28 27 26 29 29 29 32 38 40 45 52 47 42 44 54 52 52 52
63 64 71 70 60 54 50 48 45 44 41 33 27 27 28 28 26 26 28 28 28 28 29 28 27 26 27 28 28 29 31 36 40 42 50 47 34 43 42 44 50 55 55
68 69 76 68 59 51 46 43 41 41 34 28 26 26 28 27 27 29 29 28 29 29 28 29 29 28 30 30 29 29 35 39 40 42 47 42 41 46 46 50 54 58 55
68 74 78 71 58 49 44 42 38 36 31 27 28 28 29 30 31 31 31 32 31 31 30 30 29 31 31 32 29 38 40 41 41 42 43 42 44 46 55 55 60 56 65
71 77 80 70 56 49 46 43 35 29 28 27 28 32 33 33 33 34 35 34 34 33 33 32 32 33 33 25 41 43 45 46 46 45 44 46 52 59 57 53 61 65 67
69 78 78 67 57 51 47 44 33 26 28 28 31 34 34 35 37 37 36 36 36 34 35 34 37 41 31 49 54 53 49 48 49 51 50 47 56 56 64 67 65 61 71
66 80 77 67 57 51 47 39 26 25 27 29 31 34 36 38 39 38 37 38 38 38 36 34 35 36 36 53 58 59 50 51 50 50 51 51 47 60 68 70 63 81 71
67 84 74 64 54 49 42 30 26 26 28 31 32 36 39 39 39 39 38 39 38 38 38 37 38 39 38 57 60 62 50 50 49 50 52 54 60 69 58 57 94 61 53
78 77 65 55 51 41 32 26 26 28 29 32 35 37 39 40 39 39 40 39 40 40 40 38 40 42 43 58 63 58 50 49 51 50 52 64 62 59 61 93 67 59 60
74 69 57 49 38 29 26 26 26 27 29 35 38 40 41 41 40 41 41 41 43 42 42 43 43 50 45 59 63 56 49 53 56 59 66 64 53 61 90 59 59 73 67
65 56 51 43 33 28 26 27 28 28 34 39 41 42 41 42 40 41 43 45 46 47 48 47 43 45 50 53 62 62 51 57 74 79 58 50 63 97 70 59 57 66 60
66 55 44 35 30 28 27 30 29 34 39 43 44 42 41 41 40 48 50 49 50 51 51 48 50 51 51 60 61 62 62 63 61 60 53 61 96 62 60 58 63 64 64
63 52 43 34 32 33 32 30 33 40 43 45 43 43 42 42 44 50 50 50 49 53 52 52 58 59 54 56 65 66 71 66 57 58 76 61 55 56 58 62 62 65 70
57 48 41 33 31 32 33 37 40 43 46 44 44 43 43 46 45 49 52 54 55 55 55 58 59 64 62 62 60 62 62 62 76 82 52 53 55 62 62 59 60 65 69
56 44 38 34 33 36 39 41 42 46 44 44 44 44 46 51 53 53 53 52 51 56 57 57 59 68 71 62 63 62 53 65 68 53 50 51 63 66 60 61 64 68 70
47 43 36 34 36 42 43 44 46 47 49 46 42 46 50 55 54 55 56 59 62 61 60 61 60 56 62 65 64 61 68 67 59 54 58 70 74 72 68 69 72 73 76

GFSMW_sfc_rhum_012.txt.gz
RH
34 35 35 32 33 34 38 45 51 50 46 49 52 51 49 44 40 37 34 33 32 32 35 34 32 34 35 35 34 35 37 36 34 37 36 36 36 37 33 47 42 40 42
32 35 35 34 33 34 34 39 49 55 54 56 51 44 42 40 38 39 37 34 32 32 32 34 34 36 36 36 38 40 42 38 35 41 44 41 35 28 33 33 29 31 30
32 34 35 36 36 39 40 40 44 46 42 40 39 40 41 40 39 38 36 35 33 31 32 34 33 34 36 37 38 37 42 43 36 36 38 44 48 44 35 33 30 30 32
33 36 37 39 41 47 48 45 43 43 42 40 40 39 39 41 38 35 34 31 32 30 26 28 29 29 29 32 32 28 35 38 40 36 31 36 38 51 52 34 36 31 34
36 39 41 45 46 50 50 46 43 41 40 39 37 36 37 36 34 31 30 29 27 27 24 24 25 26 26 28 30 31 32 35 34 35 41 40 41 38 47 52 37 33 29
38 40 44 44 48 52 50 46 42 41 40 38 36 38 37 32 31 29 25 22 20 22 22 22 22 23 25 26 27 28 33 36 32 32 36 42 45 40 37 34 36 37 33
40 43 45 45 47 51 51 44 41 41 37 36 34 33 33 30 27 23 21 20 18 20 21 23 21 21 23 24 25 27 31 33 32 37 39 37 31 29 28 31 41 43 42
38 41 43 46 49 49 46 42 40 39 34 32 29 26 25 24 20 21 19 17 17 18 21 21 20 20 20 21 22 24 25 27 29 31 32 35 28 28 32 44 56 65 56
41 42 45 45 46 44 43 42 42 39 33 28 24 22 20 21 20 19 18 19 18 16 18 19 19 20 20 20 21 19 21 23 25 28 32 30 30 33 36 40 46 52 63
42 43 43 46 43 42 43 40 36 34 29 24 21 20 18 17 17 17 18 19 17 18 19 18 18 18 18 18 19 20 21 22 24 25 29 32 31 36 33 33 32 37 44
42 43 43 46 44 42 41 37 36 32 27 22 19 18 17 17 16 16 17 17 17 18 18 18 18 17 17 17 18 19 20 23 26 28 30 33 34 35 31 33 34 36 38
42 42 46 47 44 41 38 35 33 29 25 21 17 18 18 17 16 16 17 16 17 17 18 18 18 17 18 19 19 21 22 25 28 29 31 32 27 37 34 35 38 40 40
45 44 49 47 42 39 36 32 31 27 22 19 17 17 18 17 17 18 18 18 18 19 18 19 20 20 22 22 21 20 25 27 30 31 33 34 35 39 38 39 40 43 41
46 46 50 46 41 37 33 30 29 26 22 19 18 20 19 20 20 21 21 21 21 21 21 21 21 23 22 23 20 28 32 32 32 34 37 36 38 39 47 45 48 49 58
47 49 51 47 42 37 34 31 28 24 19 18 20 23 22 23 23 23 23 23 24 23 23 23 23 23 24 18 35 39 40 39 38 37 35 37 44 53 51 46 54 63 59
44 49 52 49 44 38 36 35 27 21 19 19 22 24 23 24 25 25 24 25 26 25 24 24 25 30 21 40 51 53 46 42 39 39 36 35 44 44 57 60 62 56 66
44 50 53 51 44 39 36 33 22 18 18 20 21 23 24 24 25 25 24 26 26 25 26 24 24 24 26 43 56 60 47 42 38 37 38 36 33 50 51 57 56 64 74
47 52 54 52 43 38 34 24 20 19 20 21 21 23 25 25 25 24 24 24 24 25 25 25 25 27 27 46 56 62 44 40 38 37 38 40 49 51 50 49 72 70 51
46 53 53 47 41 37 29 23 20 19 20 21 22 23 24 25 23 24 25 24 25 27 26 25 28 29 29 48 58 56 43 38 39 38 40 50 49 53 55 84 92 61 54
59 57 48 41 37 30 23 22 20 19 18 22 24 25 26 26 24 26 27 27 27 26 26 28 27 36 33 48 57 54 43 43 44 45 52 53 48 59 69 66 51 79 58
55 47 41 38 32 24 22 22 21 19 22 25 26 26 25 25 25 27 28 30 29 28 28 28 28 32 38 41 55 59 46 49 60 70 50 45 60 65 57 56 52 60 56
52 43 41 34 26 23 22 22 20 22 25 27 27 26 24 25 28 36 36 33 29 29 29 30 34 37 36 48 53 59 58 60 65 57 50 56 63 56 56 56 62 60 60
49 42 38 33 27 25 22 21 22 26 27 28 26 25 25 26 29 33 35 33 29 31 34 36 40 40 40 40 54 57 62 62 53 50 68 62 55 55 55 60 59 59 60
51 44 39 35 30 25 26 23 26 28 29 27 25 25 26 31 30 29 30 33 33 36 38 42 45 48 46 46 47 55 59 58 58 76 62 51 52 54 55 52 52 56 62
50 43 40 36 31 26 25 26 29 30 28 26 25 27 28 31 32 30 32 36 38 46 53 52 53 56 57 53 59 61 51 58 67 60 48 45 47 56 53 55 57 61 64
49 43 38 33 27 26 27 29 30 31 31 29 28 30 34 34 31 32 35 43 51 56 58 61 59 52 59 61 64 60 65 72 62 53 51 57 64 66 62 62 63 66 74

GFSMW_sfc_rhum_015.txt.gz
RH
28 30 30 28 31 35 40 42 42 43 43 47 49 47 46 42 38 35 32 31 30 30 34 33 31 34 35 35 35 36 40 41 37 40 41 38 35 29 32 31 31 32 32
28 30 29 28 29 32 39 44 47 48 47 43 44 43 41 38 38 38 34 30 28 29 29 33 32 33 36 34 35 37 39 37 35 38 42 42 35 31 32 30 31 30 32
28 30 30 32 33 35 40 42 41 42 44 43 42 42 41 40 37 34 33 32 28 25 26 27 27 29 31 34 35 34 39 41 37 35 33 43 42 42 36 34 31 30 29
26 29 32 36 39 44 44 40 40 39 37 36 36 37 37 38 34 32 31 28 28 25 22 23 24 25 26 30 32 26 33 38 41 37 26 32 34 48 47 32 32 27 24
29 32 36 40 43 46 47 42 39 38 37 34 33 34 34 33 31 28 27 24 23 23 22 20 22 23 25 27 28 32 31 35 34 35 36 34 37 35 38 40 34 28 25
31 34 39 42 47 48 46 43 38 36 34 34 32 34 34 30 30 28 24 22 20 21 21 21 21 21 24 26 29 31 34 34 34 33 33 33 36 36 33 33 34 35 35
34 38 41 43 47 48 45 38 36 36 32 32 31 31 32 29 27 24 22 20 19 20 21 21 19 20 24 26 27 29 32 30 33 35 32 28 30 32 30 32 40 44 44
34 38 40 43 46 45 40 37 35 33 30 29 27 26 26 24 22 21 20 18 18 18 18 19 18 18 18 20 22 26 27 27 31 36 34 31 32 30 31 38 47 55 48
36 37 39 42 44 42 39 38 35 32 29 27 24 22 20 22 21 20 19 19 17 14 17 18 18 18 18 18 20 20 23 24 27 31 34 32 31 33 36 39 44 47 53
36 37 39 40 39 39 39 37 32 30 27 24 22 21 19 18 18 18 18 18 16 16 18 17 17 17 17 17 20 22 22 23 25 26 29 31 31 32 35 39 39 40 46
36 38 38 39 39 40 39 35 32 29 26 24 21 20 19 18 16 16 16 16 16 16 16 16 17 17 17 17 19 21 22 22 26 28 30 33 33 34 34 38 41 43 44
36 36 38 41 40 40 37 35 32 28 26 22 20 20 19 18 17 16 16 15 16 15 16 17 18 18 18 20 20 22 21 23 27 30 32 34 28 41 41 41 43 45 44
37 36 40 42 40 38 36 33 30 28 24 21 20 20 20 19 18 17 17 16 17 17 18 19 20 20 22 22 22 20 22 28 31 33 36 37 38 43 43 43 46 48 45
38 38 42 41 38 37 34 31 29 27 23 21 20 22 21 20 19 19 19 19 19 20 21 22 22 23 22 23 23 25 32 36 36 38 39 38 38 40 48 47 53 52 62
39 40 43 41 38 36 33 30 29 26 21 20 21 23 21 21 21 22 22 21 22 23 23 23 24 24 24 20 30 36 42 45 44 41 37 36 45 48 46 41 54 63 74
38 39 43 42 40 37 34 32 30 25 21 20 21 22 20 21 22 23 23 23 25 24 24 25 28 35 22 36 42 45 47 47 45 43 38 36 44 41 49 54 58 56 57
34 40 43 44 42 37 35 34 27 22 21 20 20 20 21 21 22 22 22 25 25 24 26 25 25 24 25 39 44 50 48 49 44 40 39 37 32 48 52 58 58 59 69
37 40 42 46 42 36 34 30 24 22 21 20 19 20 20 21 22 22 23 23 23 25 25 25 24 26 25 40 46 53 48 45 42 39 39 41 48 55 53 56 81 79 72
39 43 44 44 41 38 32 27 25 22 20 19 19 19 20 21 21 23 23 24 26 27 26 24 26 26 25 41 47 51 46 45 43 40 43 48 52 54 62 72 79 57 55
49 51 48 42 40 35 28 28 24 21 18 19 20 20 21 22 22 24 26 27 27 26 24 26 24 31 27 41 49 48 46 49 49 50 57 59 51 59 72 60 53 69 66
51 46 44 42 35 29 27 26 22 19 20 21 21 22 22 22 22 26 28 31 29 28 26 25 24 26 32 36 48 52 47 51 56 72 57 52 59 67 61 55 51 63 62
50 43 41 36 29 27 26 24 21 21 22 23 23 23 22 21 26 38 39 35 30 29 27 27 29 32 32 44 48 53 55 54 61 64 54 56 81 58 54 54 57 59 60
47 41 39 34 30 26 24 22 22 22 23 23 23 22 22 24 27 36 37 34 28 28 29 30 36 42 42 43 52 55 57 61 56 52 61 86 56 54 52 56 58 58 62
47 42 39 37 33 27 25 21 23 24 24 24 23 23 26 29 28 28 30 31 30 33 35 42 51 54 54 52 50 50 58 61 62 75 87 53 52 54 55 55 56 59 62
49 45 43 40 35 28 23 23 25 24 26 24 24 26 27 30 32 29 29 29 31 38 48 54 56 62 61 55 58 60 52 62 71 63 54 51 53 60 59 59 60 63 65
50 48 44 42 32 25 23 24 26 27 27 27 28 30 32 33 31 30 32 38 43 46 47 51 52 48 56 59 61 60 62 70 61 55 56 61 68 70 66 65 67 70 78

GFSMW_sfc_rhum_018.txt.gz
RH
39 40 43 46 52 57 58 61 62 61 64 72 65 58 64 58 54 50 42 40 40 43 47 52 49 49 52 51 43 49 51 52 52 57 47 44 46 38 36 29 34 38 32
42 42 42 46 51 61 64 67 67 60 57 60 58 60 59 57 54 51 44 38 36 36 33 41 43 42 48 46 46 48 56 54 52 58 52 60 47 42 33 40 41 34 41
42 44 47 49 54 61 61 58 60 60 59 54 50 50 57 58 56 54 51 43 34 32 34 35 37 40 44 50 46 48 48 59 54 49 51 63 64 45 45 39 42 28 27
40 41 46 55 62 65 62 58 56 57 57 56 59 58 58 56 54 51 46 42 34 31 30 31 34 36 42 42 43 35 46 50 58 56 36 46 48 51 53 49 34 34 26
39 46 54 57 60 65 64 58 53 51 50 49 49 53 53 52 49 45 38 33 34 31 30 31 32 34 41 40 40 41 44 51 50 54 53 46 52 44 47 48 44 33 32
43 50 57 60 67 67 64 57 51 50 48 48 47 49 48 45 45 38 38 35 36 37 31 29 30 31 35 37 41 39 42 44 45 49 48 46 45 40 41 47 42 40 36
46 54 62 67 66 65 59 52 50 48 45 45 44 43 41 38 35 35 34 31 32 34 30 30 29 31 31 34 35 38 40 42 44 47 42 46 41 37 40 41 44 47 41
49 54 60 65 67 60 54 49 46 44 41 39 36 35 35 38 34 31 32 29 29 28 27 28 27 26 26 29 30 37 40 32 44 40 47 41 39 39 40 43 52 53 49
50 53 59 62 63 58 53 49 45 42 38 36 33 30 29 30 31 28 28 29 26 19 24 26 25 26 26 26 28 33 33 34 36 42 44 41 37 40 44 47 45 55 61
49 51 55 59 58 55 54 47 42 39 36 33 30 27 26 25 25 26 24 24 22 23 24 25 24 25 26 26 28 34 34 30 34 30 34 35 37 40 41 47 47 49 55
47 51 54 55 56 55 53 46 40 37 35 32 30 28 26 25 24 23 22 21 22 23 24 24 25 26 26 26 29 30 28 28 33 32 34 39 38 41 44 46 52 52 52
47 50 53 54 57 57 52 46 41 38 35 30 28 28 27 26 24 23 22 22 23 24 24 26 27 28 29 30 30 30 30 33 37 38 42 43 37 46 45 51 49 54 52
50 52 55 55 57 55 50 47 41 37 31 29 29 29 29 27 26 25 24 24 25 27 28 29 31 31 33 32 32 30 34 40 42 46 49 49 47 49 49 50 50 51 48
47 50 56 56 56 52 48 44 40 35 30 29 30 31 29 28 28 28 28 28 28 30 32 33 32 35 33 32 30 34 41 45 47 51 52 50 48 47 50 48 51 48 62
48 51 58 56 56 52 47 43 40 34 29 29 33 32 29 28 28 30 31 31 33 33 34 34 35 36 34 26 33 38 45 50 54 54 51 49 50 51 47 42 53 58 60
49 51 55 55 54 52 46 42 40 32 29 30 32 29 27 28 30 31 32 33 36 35 35 36 39 45 27 37 41 41 45 51 55 58 51 46 47 47 53 56 56 57 74
50 53 57 57 55 50 43 43 36 30 29 28 27 26 27 28 30 30 31 34 35 35 37 37 36 36 35 39 42 44 43 54 56 54 51 46 39 53 55 62 67 90 76
49 55 60 61 55 49 46 39 32 30 30 28 25 26 27 27 29 31 33 34 35 37 38 38 37 37 31 39 42 46 48 53 55 53 51 52 54 59 57 60 87 92 64
56 61 64 56 51 50 35 32 31 29 28 26 23 24 26 29 30 33 34 36 39 41 41 36 36 36 32 41 43 45 48 50 53 51 53 60 61 62 61 70 93 63 66
67 63 56 50 47 37 35 33 31 28 25 25 26 27 29 30 32 34 36 39 44 40 36 34 33 38 33 43 46 45 45 51 55 57 67 69 59 59 71 66 57 77 62
60 55 54 52 44 38 37 32 27 26 27 27 27 28 29 31 31 37 41 45 47 43 42 36 33 36 40 44 50 54 48 53 58 83 76 66 61 77 69 57 54 58 58
60 55 48 40 36 36 32 29 29 29 29 30 30 32 32 29 30 48 54 51 47 45 42 38 39 42 47 53 56 58 57 57 65 70 64 60 74 61 57 57 59 61 60
55 46 40 40 37 35 31 30 32 29 30 31 32 32 31 33 37 46 50 51 44 43 42 42 48 56 56 58 61 60 61 62 59 61 67 82 63 57 55 59 60 61 66
56 48 45 43 40 33 29 32 31 31 31 32 33 33 37 40 41 42 45 48 44 44 44 49 57 61 59 60 58 54 61 61 64 76 90 62 57 57 60 59 59 63 66
59 53 51 48 42 35 31 33 32 32 35 35 36 39 41 44 47 44 45 43 44 47 47 53 56 60 60 56 54 55 51 59 70 64 64 56 59 68 64 64 64 66 71
62 63 59 51 41 33 32 34 35 36 38 41 44 47 50 53 51 49 44 44 45 47 48 49 49 47 52 54 56 56 61 65 62 59 60 69 74 74 71 70 76 79 85

GFSMW_sfc_rhum_021.txt.gz
RH
48 46 49 58 66 69 70 72 72 74 67 60 58 54 64 52 47 41 38 37 40 38 43 48 45 48 53 48 43 52 53 56 55 64 44 55 50 44 32 24 42 46 40
51 50 53 65 73 78 78 76 70 68 64 61 64 65 59 59 54 50 37 34 34 36 33 41 44 43 50 45 46 50 55 58 56 62 65 62 57 43 28 41 31 42 34
50 54 61 70 71 70 71 68 66 60 56 52 50 53 62 62 60 55 49 37 32 33 36 36 39 43 50 50 45 49 49 59 58 56 53 61 67 44 51 33 44 27 30
48 51 61 70 71 73 68 66 65 60 58 56 58 61 60 60 59 57 49 41 32 32 34 34 36 40 45 43 45 39 49 53 56 58 45 50 55 64 59 51 32 36 34
47 56 64 65 70 68 65 62 58 58 58 57 56 56 58 58 55 47 42 38 35 32 32 32 35 36 43 40 41 42 44 50 52 54 60 52 55 57 54 50 46 37 38
53 63 66 67 72 68 62 59 52 54 52 53 54 52 50 45 42 38 39 39 40 39 32 30 32 33 37 39 42 41 40 42 47 48 52 49 46 50 42 42 42 45 38
62 69 70 69 72 66 61 54 51 52 48 45 43 42 38 36 36 37 35 33 33 34 31 31 30 33 33 35 36 37 39 41 43 47 46 44 53 44 39 46 46 46 43
64 69 70 71 70 61 57 52 48 47 42 40 40 39 36 40 36 33 33 31 30 30 29 29 28 28 28 31 32 40 42 35 45 40 43 50 47 44 45 46 54 56 47
65 70 70 68 69 63 55 50 47 44 40 37 35 32 32 32 32 29 30 32 28 21 26 27 27 28 29 30 32 37 37 38 40 46 50 47 38 45 51 54 51 58 68
63 67 68 67 65 59 55 49 44 42 38 34 30 28 28 29 28 27 25 24 25 24 26 26 27 28 30 31 32 38 39 38 41 38 44 42 42 44 46 54 60 54 60
60 65 66 62 62 57 50 48 43 39 36 33 30 29 29 27 26 25 24 24 24 25 26 28 29 31 32 32 35 35 34 37 42 47 44 49 48 51 51 52 54 59 61
59 63 63 62 59 56 49 43 43 39 36 32 31 31 29 26 26 26 25 26 26 27 29 31 32 33 34 36 36 36 38 42 48 51 54 53 47 57 55 55 57 56 54
61 63 62 60 58 54 47 45 43 38 34 32 33 32 30 28 28 28 28 27 29 30 33 34 36 36 39 40 38 37 38 45 50 56 58 57 58 61 59 57 54 55 49
58 62 61 61 60 54 51 46 41 35 34 34 34 33 31 30 30 30 31 32 32 33 35 36 37 40 40 40 39 37 45 51 52 59 60 58 59 60 58 52 54 52 61
59 60 61 62 60 55 52 42 38 34 34 36 36 34 32 30 31 33 33 33 35 35 39 38 40 42 39 27 37 39 48 55 60 61 56 56 57 56 52 47 53 57 64
56 60 58 59 58 53 48 39 37 35 35 37 36 33 31 29 33 32 33 34 38 38 38 40 44 49 30 41 43 42 43 52 58 62 55 55 56 54 57 59 60 60 67
58 61 57 57 56 49 42 39 34 34 33 33 32 30 30 29 31 31 32 36 37 40 42 42 42 42 42 43 44 45 41 56 63 58 59 55 47 59 62 67 66 70 75
56 59 58 59 53 47 42 34 33 33 34 32 29 30 29 29 31 32 35 37 39 42 44 45 44 43 35 44 44 46 46 54 60 62 59 60 63 70 63 61 69 90 82
63 70 64 57 48 44 34 33 33 34 32 30 28 27 27 30 32 34 37 38 43 49 49 45 44 45 41 45 48 48 52 51 54 55 59 65 66 67 59 65 97 84 78
63 58 54 46 39 34 30 30 32 32 30 28 28 28 30 32 34 36 37 43 49 49 46 43 44 45 41 53 54 55 54 58 58 64 76 70 60 58 74 75 68 79 60
57 52 46 41 38 36 31 33 30 29 30 30 29 30 31 33 34 38 46 51 53 52 52 48 45 44 48 58 58 59 54 57 71 84 72 66 63 86 62 59 55 59 60
57 48 45 42 42 35 30 30 31 32 32 32 32 33 34 31 33 49 53 52 54 53 50 50 50 53 58 59 58 58 59 61 64 68 63 63 89 60 59 59 62 62 63
49 42 40 42 41 34 30 32 33 32 33 33 33 34 34 36 43 47 51 54 52 50 47 48 52 57 56 67 60 61 62 59 56 65 74 76 62 59 59 64 64 64 67
47 44 41 40 38 34 33 34 34 34 34 35 34 36 43 47 46 48 51 53 52 55 52 56 57 61 56 57 56 52 56 57 74 80 74 60 58 62 63 62 61 64 72
52 48 44 42 39 36 36 36 36 35 37 36 40 47 49 52 55 54 52 53 54 55 53 56 57 60 59 54 54 54 53 63 72 61 58 57 62 70 65 64 65 70 74
61 61 54 50 42 38 39 39 39 39 41 44 48 53 57 60 59 57 55 50 49 51 50 51 52 50 54 56 56 58 65 64 62 60 62 71 77 76 71 72 78 77 80

GFSMW_sfc_rhum_024.txt.gz
RH
52 50 53 64 74 76 77 81 84 67 57 57 56 62 60 42 39 36 37 39 39 40 45 48 46 52 48 47 44 50 54 56 60 63 56 58 56 42 30 40 44 42 32
56 56 67 81 80 86 88 86 84 75 66 60 63 59 56 49 46 42 36 36 36 36 36 43 46 47 48 44 46 51 54 58 61 60 71 65 59 48 25 46 36 35 29
55 62 82 85 86 86 83 76 73 68 61 54 50 51 49 55 55 49 43 36 34 37 37 39 42 46 49 49 48 50 50 58 59 55 53 58 66 50 50 33 44 30 41
55 65 79 81 82 82 78 72 65 60 56 52 49 46 50 54 62 56 45 37 33 35 35 36 38 41 46 43 45 42 49 51 53 60 45 54 56 59 62 54 36 45 30
53 68 73 72 75 74 75 72 68 65 68 64 56 57 60 62 58 50 42 35 35 34 33 34 35 37 45 42 40 43 42 50 53 54 62 56 56 57 72 52 45 35 36
57 71 75 70 72 68 66 65 62 64 62 58 58 56 52 48 46 46 46 42 39 39 32 31 34 34 37 39 43 40 40 43 45 49 50 50 50 56 51 41 40 45 40
67 75 73 69 65 62 62 57 56 58 54 51 48 45 42 37 36 38 39 34 33 35 32 32 30 34 34 37 39 40 41 42 45 46 46 48 55 54 44 44 50 50 46
67 71 69 66 62 58 58 53 50 49 45 42 41 38 38 41 39 35 34 33 32 32 30 29 29 30 31 34 36 43 44 39 46 43 48 53 51 51 49 53 59 62 55
72 72 70 64 60 58 54 50 46 44 40 38 37 37 36 35 34 32 32 32 29 23 28 28 29 31 32 33 35 40 40 42 44 49 51 52 52 54 54 57 60 68 75
75 74 67 64 60 55 55 49 42 39 37 34 32 32 32 30 29 28 26 26 26 27 28 30 31 33 34 35 37 42 42 41 46 43 51 54 56 55 59 63 62 62 69
76 74 69 64 61 55 49 47 42 37 34 32 31 31 31 28 27 26 26 26 27 28 29 32 34 35 36 37 40 40 39 41 45 51 55 60 59 58 60 63 65 66 65
73 74 69 66 59 52 49 45 42 37 34 32 32 32 30 28 28 28 28 28 29 30 32 35 36 37 39 40 42 42 43 44 49 54 61 62 49 63 65 66 66 65 62
75 74 70 64 58 53 48 44 41 37 36 34 34 33 31 30 30 30 30 30 31 33 35 37 39 40 44 45 44 44 43 45 51 57 62 67 63 65 66 66 65 63 54
71 72 68 64 58 50 45 44 41 35 36 36 35 34 32 31 32 33 33 33 34 35 38 40 41 44 44 44 43 43 49 52 52 59 66 66 65 65 68 61 60 56 63
72 70 68 65 60 53 48 42 37 36 36 36 37 36 34 33 34 34 34 35 38 38 40 40 42 45 43 29 43 46 52 56 59 62 62 61 59 59 56 51 57 61 76
68 66 65 65 59 53 46 38 37 38 37 39 39 37 34 33 35 34 36 36 38 38 41 43 48 53 34 46 46 45 48 53 58 59 58 58 60 61 61 63 63 62 66
65 65 65 62 56 52 40 38 36 38 38 39 36 34 33 32 34 33 34 36 38 42 45 48 48 48 47 46 48 50 48 57 61 64 62 58 50 64 70 73 65 64 69
63 63 62 63 57 47 40 36 35 36 38 37 33 33 33 31 33 34 36 37 39 44 49 50 50 49 40 49 51 56 58 65 65 63 65 68 71 71 60 57 78 95 79
64 62 62 59 50 42 35 33 36 37 36 33 32 29 29 31 34 35 37 38 44 50 54 52 50 50 49 50 54 57 61 60 64 61 66 75 70 64 61 90 87 72 66
71 65 56 49 42 36 32 33 36 35 33 32 31 31 33 33 34 37 38 44 51 54 53 50 48 50 48 53 56 56 55 62 64 66 80 72 61 63 78 57 61 73 63
56 50 46 42 38 34 32 35 34 33 32 33 33 33 33 34 35 40 49 53 55 55 54 50 50 49 52 60 58 57 54 59 76 84 70 64 72 71 60 60 61 63 63
51 45 43 41 37 35 32 32 33 35 35 35 35 35 36 32 38 50 54 54 56 56 56 56 56 55 57 62 58 58 58 60 58 67 69 76 69 61 61 63 66 67 66
49 44 43 40 39 35 31 34 37 37 36 36 36 36 37 44 47 50 55 56 57 59 59 60 62 61 57 66 61 60 58 58 60 73 69 70 62 62 63 67 67 66 70
48 44 41 39 39 36 35 36 38 37 36 36 38 44 48 54 54 55 52 58 63 66 63 63 62 66 59 60 58 54 59 64 76 70 72 61 61 65 66 63 61 65 68
48 43 40 40 41 39 39 39 38 38 38 40 45 49 53 59 59 56 58 63 64 63 61 66 64 65 64 58 56 56 56 63 63 61 60 60 64 71 66 66 67 68 70
52 49 48 42 42 41 42 42 42 41 42 44 49 56 63 64 61 62 65 57 53 53 53 54 55 54 57 58 59 60 63 63 64 63 66 74 77 78 73 75 78 76 79

GFSMW_sfc_rhum_030.txt.gz
RH
47 48 47 56 64 70 73 88 92 77 65 63 61 58 56 46 41 37 35 34 35 41 46 50 45 46 45 45 42 48 47 57 61 53 52 60 55 57 47 44 46 41 38
56 51 55 68 77 76 80 90 84 74 68 64 63 60 50 44 37 37 34 33 34 40 41 46 46 43 46 44 46 46 47 52 63 55 70 54 44 48 31 43 46 41 46
55 55 60 73 87 88 91 90 83 77 68 57 48 42 38 34 36 34 36 36 38 40 42 42 44 46 49 52 50 48 47 49 52 61 45 42 49 65 50 43 54 39 46
58 54 60 83 90 91 95 91 80 71 59 52 49 44 44 38 38 36 35 34 38 39 40 41 42 44 47 44 44 41 51 49 55 54 45 54 59 53 55 52 38 46 31
54 54 63 67 90 95 96 89 76 68 64 55 48 50 49 41 37 34 32 37 38 37 37 37 38 41 48 43 40 43 44 52 49 56 59 56 57 62 70 54 54 37 34
62 56 68 91 94 96 92 80 71 73 65 59 53 46 39 34 35 36 39 42 43 43 36 35 37 39 42 42 44 44 41 45 45 49 50 51 53 58 60 58 50 50 44
65 85 92 92 94 94 88 79 71 73 64 51 48 41 36 37 35 39 39 38 38 40 34 32 34 38 40 41 42 43 43 45 46 47 49 55 56 58 59 61 61 59 53
76 84 86 87 89 89 82 76 72 69 57 51 50 45 40 43 43 41 38 37 37 36 33 33 34 34 36 38 40 47 47 44 49 46 50 55 55 58 60 66 71 71 62
81 86 88 86 86 83 78 73 67 61 54 49 44 43 41 40 39 35 36 37 35 29 32 33 35 36 38 39 41 46 45 48 49 52 54 57 59 63 68 72 76 77 81
85 88 88 84 79 75 70 62 55 51 45 42 39 37 36 34 34 33 33 31 31 32 34 36 37 38 40 41 44 48 49 48 50 48 53 58 62 66 72 78 76 78 80
83 87 82 74 68 63 60 53 47 42 39 37 34 33 33 30 29 29 31 31 33 34 36 38 39 40 42 44 46 47 45 47 51 52 55 59 62 70 74 77 75 77 79
89 81 73 67 62 58 52 47 41 38 36 34 32 32 30 30 30 31 32 32 35 37 38 40 41 42 45 47 47 47 48 52 55 56 60 63 49 68 71 74 74 76 72
84 76 68 64 59 53 47 42 38 36 35 32 32 32 33 32 33 34 35 35 37 39 40 41 43 46 49 47 46 46 51 56 59 62 65 67 70 73 74 73 74 74 67
83 75 67 62 56 48 43 39 37 34 34 33 33 34 35 35 36 38 38 39 39 40 42 44 46 49 48 45 43 53 60 63 61 64 67 68 70 72 73 73 71 61 67
81 73 68 62 55 48 42 38 37 36 34 34 37 40 39 40 41 41 41 41 40 40 44 46 48 51 45 32 54 61 65 68 68 68 66 65 67 63 60 56 63 64 70
76 70 64 58 53 46 41 37 38 38 36 38 42 42 42 41 43 41 41 40 41 43 48 50 52 54 37 48 50 53 68 70 68 72 67 69 67 68 65 67 64 63 80
76 70 63 56 51 45 38 39 39 40 40 41 41 41 41 40 41 38 37 39 41 47 52 52 53 52 52 51 54 54 64 70 75 74 71 66 57 69 72 78 72 79 76
74 71 63 58 51 43 41 41 39 42 43 43 40 41 41 39 38 36 37 39 45 51 54 55 54 55 47 57 55 56 67 73 75 74 75 77 74 78 68 65 97 82 68
72 70 62 55 46 42 40 40 43 44 42 40 40 37 37 37 36 36 39 47 52 55 58 56 54 57 62 59 58 58 71 71 70 68 74 79 74 66 63 83 81 65 65
74 71 60 50 44 41 38 40 43 41 40 39 37 36 37 35 37 42 49 53 58 55 53 51 57 61 64 62 60 58 64 76 66 69 76 67 63 64 78 60 63 77 66
70 60 54 49 43 39 37 41 40 40 40 37 38 38 38 40 46 53 56 57 57 58 61 60 67 66 66 72 61 59 60 64 62 63 66 72 67 69 62 62 65 68 69
61 52 48 44 40 38 36 39 40 42 39 40 40 41 45 43 48 56 57 55 63 67 69 72 70 65 68 65 62 60 60 59 60 66 73 65 67 64 64 65 69 69 67
52 47 44 43 42 40 35 38 44 40 40 41 43 49 51 52 53 53 56 61 70 74 74 75 75 69 60 69 64 64 64 60 65 66 64 67 66 64 66 70 70 69 70
48 44 42 41 42 39 38 40 40 39 39 45 52 59 63 59 60 56 54 68 75 77 74 74 70 78 68 69 64 66 67 69 70 68 72 66 64 67 68 66 64 66 68
45 42 41 42 43 40 41 41 40 39 44 50 55 61 62 64 63 61 66 71 75 74 72 74 71 73 72 62 59 59 58 63 62 63 66 65 69 75 70 69 69 69 69
45 45 43 43 44 42 44 45 43 45 49 52 60 70 65 70 66 70 70 57 56 55 55 55 56 56 58 60 62 62 63 64 67 69 73 79 80 81 77 78 78 77 82

GFSMW_sfc_rhum_033.txt.gz
RH
42 40 41 38 40 45 53 58 76 82 73 68 65 64 70 61 46 42 37 37 37 36 37 32 31 32 30 29 25 30 30 33 33 28 28 31 32 35 36 23 27 29 30
44 46 43 43 45 47 56 69 78 74 68 65 64 62 71 55 46 40 36 35 37 36 34 32 32 32 32 30 29 30 31 33 38 31 38 29 21 27 22 31 28 27 27
43 43 45 46 53 59 65 71 75 70 66 58 54 50 52 48 48 37 38 38 34 35 32 34 32 34 34 34 35 35 34 32 38 35 22 27 27 33 26 24 28 24 25
37 40 45 48 56 63 76 74 73 67 59 54 53 52 61 58 52 38 36 35 32 34 32 33 31 32 33 33 32 31 35 34 35 34 29 29 29 29 27 28 26 28 23
40 44 46 48 54 73 81 76 71 63 57 53 52 55 66 53 38 33 32 32 33 31 31 30 32 31 32 32 31 33 33 34 30 34 34 33 32 36 39 31 29 28 27
43 45 50 52 68 83 85 78 70 63 56 54 50 49 57 34 34 33 33 30 31 30 29 30 31 31 32 33 34 35 36 33 32 32 32 30 29 30 32 34 34 37 30
50 56 62 72 81 87 85 75 68 65 56 52 47 40 36 30 30 30 32 31 28 28 29 28 28 30 34 35 35 34 34 34 33 35 31 33 35 35 37 41 42 42 38
52 59 64 73 77 86 81 70 67 63 54 49 41 35 32 34 33 31 30 26 26 26 27 28 28 29 30 31 32 35 35 35 36 37 37 35 36 38 39 44 49 51 38
44 60 71 75 80 84 77 70 65 59 52 46 39 38 36 36 34 30 28 28 26 25 27 28 29 30 31 32 32 31 32 34 36 37 40 39 37 40 43 47 48 52 56
47 62 73 78 80 80 74 66 58 54 47 42 38 36 33 30 29 27 27 26 25 26 29 30 30 31 31 32 33 33 34 34 35 36 39 40 41 43 44 48 50 52 56
48 66 79 81 80 72 66 58 51 46 41 37 34 31 29 27 24 24 25 25 26 28 29 30 30 31 31 32 31 32 34 37 40 41 43 45 45 45 46 48 52 54 54
75 84 79 73 70 65 57 52 44 39 36 32 29 28 27 25 24 24 25 25 28 29 30 30 31 31 33 32 31 33 38 41 44 45 47 47 43 52 49 50 52 54 54
80 74 71 69 64 57 49 42 37 34 31 28 27 26 26 25 25 26 27 28 30 31 31 32 33 33 35 33 32 36 41 45 47 49 50 51 50 51 49 51 55 57 55
77 73 68 62 56 48 41 36 34 31 30 28 27 29 28 28 27 29 30 31 31 32 34 34 34 36 34 34 35 43 47 49 49 52 52 51 51 53 58 58 60 59 62
77 70 65 57 48 43 37 33 32 30 28 29 31 32 31 32 32 33 34 33 34 35 36 35 38 38 33 28 43 48 51 52 54 53 51 50 56 63 60 54 58 57 63
75 67 59 51 46 40 36 34 33 31 30 33 35 35 34 34 36 35 34 36 38 37 36 38 41 42 31 48 51 51 49 52 54 53 50 51 60 61 65 64 64 63 68
72 64 56 49 42 37 34 33 32 33 34 35 35 35 34 34 36 33 34 37 37 38 38 38 38 37 39 52 55 54 49 53 53 52 52 52 50 61 60 68 70 68 88
69 61 53 48 41 36 34 34 34 36 37 36 35 34 34 34 33 32 34 35 36 38 38 39 39 40 40 58 55 57 51 53 53 53 53 56 58 61 64 57 89 85 59
64 58 50 45 39 36 34 36 38 38 36 35 34 32 31 31 31 34 35 37 39 40 40 39 41 44 48 60 58 56 52 52 53 52 53 58 56 63 62 75 86 56 54
64 58 48 41 38 37 35 37 38 35 35 34 33 32 31 30 33 37 40 42 41 39 39 40 44 55 49 61 60 56 50 55 55 52 52 59 61 63 70 64 58 71 56
61 51 45 42 39 36 35 38 36 36 35 34 33 32 33 35 39 42 42 42 42 43 45 46 50 50 53 53 61 60 52 55 58 55 53 56 64 67 63 62 55 60 65
58 49 45 42 38 36 35 37 39 36 34 34 35 38 41 38 43 46 45 45 47 48 50 55 53 50 52 60 60 60 60 59 55 58 58 56 67 64 64 62 69 68 66
52 45 43 42 39 36 34 38 38 35 34 35 43 43 43 43 43 44 47 47 52 54 55 58 59 55 50 52 63 64 64 60 60 61 62 68 66 64 62 68 70 70 59
47 43 41 40 40 36 36 35 35 34 36 45 49 47 46 48 47 45 45 53 56 58 58 58 58 60 56 55 53 55 55 60 65 65 70 64 62 66 66 61 58 56 58
45 42 41 42 40 36 36 35 36 37 41 46 48 50 50 50 49 49 52 56 58 59 55 57 56 58 58 53 58 59 55 60 60 62 59 54 57 62 59 59 60 60 61
43 43 42 40 39 37 37 39 42 40 45 52 54 52 51 53 52 55 54 56 53 55 55 54 54 50 58 61 63 64 70 64 67 61 61 65 68 69 66 70 70 69 77

GFSMW_sfc_rhum_036.txt.gz
RH
24 25 26 26 27 26 26 26 30 36 43 50 55 59 64 74 64 56 48 46 40 36 35 33 24 24 24 22 20 21 24 25 24 22 20 22 22 25 26 23 17 23 22
19 20 24 25 27 27 27 29 34 40 48 52 53 54 62 75 69 53 42 38 38 34 29 30 26 25 24 24 23 24 25 25 26 24 28 23 18 20 23 18 20 17 19
18 17 18 24 26 28 30 34 39 49 52 52 54 58 55 54 52 43 41 36 32 34 30 29 25 26 26 28 27 27 25 26 28 25 18 22 24 22 18 20 17 18 18
21 21 20 21 23 28 36 39 46 53 55 58 56 56 59 67 62 46 45 47 43 42 28 26 24 25 24 27 26 23 26 25 28 27 19 20 20 22 22 19 19 19 18
21 21 24 24 24 32 42 48 50 55 56 55 53 55 57 52 49 44 37 38 33 29 24 23 24 24 24 25 25 27 26 25 21 26 25 22 23 22 27 28 21 20 20
20 22 23 25 27 34 51 54 55 56 55 55 53 56 59 55 46 34 40 42 36 26 23 23 24 24 25 27 28 29 29 26 25 22 23 21 21 20 22 24 25 27 24
19 22 29 32 36 39 56 58 55 56 54 54 53 54 53 54 43 33 36 27 28 25 24 23 22 24 28 29 28 28 29 28 26 28 22 23 24 23 25 28 31 30 27
22 23 28 36 39 45 54 57 55 55 53 52 51 49 47 35 33 33 31 28 25 23 22 22 21 22 24 25 26 27 28 28 28 31 30 27 26 26 28 34 38 38 30
24 27 25 33 40 47 54 55 54 53 52 50 42 36 33 33 34 32 33 27 22 20 21 22 22 23 24 24 25 22 24 25 27 29 32 31 29 30 32 34 36 41 43
28 30 29 32 40 46 54 54 51 51 48 43 37 34 34 35 33 32 28 24 19 20 22 22 22 23 24 24 24 24 25 25 25 27 31 32 31 32 33 36 36 38 42
37 39 34 37 47 52 58 55 51 49 45 40 36 32 31 31 34 26 24 20 20 20 21 21 22 22 23 23 22 22 24 26 30 32 34 36 36 35 34 35 37 39 39
50 52 47 50 58 61 58 54 48 44 41 37 32 30 28 26 23 22 20 18 20 20 20 20 21 22 23 22 20 22 26 30 33 34 37 37 32 40 36 36 39 39 40
56 59 58 57 57 58 54 49 43 39 35 31 28 27 26 24 21 20 20 19 20 21 22 23 24 23 25 23 21 25 28 32 34 37 39 39 38 40 38 40 42 44 41
62 59 59 57 55 54 50 42 36 32 30 28 27 27 24 22 21 21 21 21 21 22 24 24 24 26 24 24 26 31 34 36 35 39 42 40 39 40 46 46 47 42 50
65 62 59 56 55 49 40 35 32 29 27 29 29 28 24 23 23 24 23 23 24 25 26 26 27 27 25 21 36 36 38 38 38 37 37 38 44 58 58 51 50 50 54
66 60 56 54 50 41 36 34 31 29 29 34 34 29 26 26 27 26 25 28 29 28 27 28 33 36 24 42 51 50 40 38 38 38 36 36 46 46 57 59 61 61 73
67 58 53 51 43 37 34 33 30 30 31 33 28 27 26 26 27 25 26 30 30 29 29 29 28 27 28 47 54 54 42 40 39 40 40 38 36 48 45 55 61 67 67
63 54 51 45 39 34 31 30 29 31 30 29 27 26 26 26 25 24 27 28 28 29 28 28 28 29 29 53 56 57 43 39 40 40 41 42 44 45 51 53 76 77 55
54 48 46 42 35 30 28 28 28 29 29 28 27 25 24 24 24 27 28 28 29 29 28 28 29 30 30 46 58 54 42 37 39 40 40 44 45 53 61 67 92 50 44
49 45 38 34 30 28 27 29 29 29 30 28 26 23 22 22 24 29 31 31 28 28 26 28 29 36 33 42 56 54 40 39 41 39 40 49 49 58 65 64 51 59 44
47 39 35 33 31 28 28 31 30 30 28 25 23 23 23 26 29 31 30 31 29 29 28 29 29 32 35 38 54 59 47 45 46 46 40 41 55 62 63 62 50 51 56
46 40 39 36 32 30 29 30 31 28 27 26 26 29 30 30 34 39 37 34 32 30 29 31 30 30 32 41 49 58 60 57 50 47 48 47 62 64 64 59 63 66 67
46 38 36 34 30 29 30 32 31 29 28 31 33 31 32 33 35 37 39 33 32 30 32 32 34 33 33 34 48 56 56 55 51 55 59 63 62 62 55 58 66 66 51
42 37 35 34 33 31 32 31 30 29 30 30 32 32 33 34 34 32 34 34 32 33 35 34 37 38 36 36 38 44 45 51 58 60 61 54 56 54 54 49 48 48 51
40 36 35 35 33 30 30 29 29 28 30 33 35 35 35 34 34 34 35 34 36 44 41 40 40 42 43 42 57 58 52 59 60 60 48 45 43 49 47 48 50 53 55
39 38 36 34 31 28 29 29 28 29 30 33 33 35 34 35 33 33 32 48 50 53 52 53 51 46 53 60 64 63 68 64 65 56 49 50 54 56 54 58 61 63 72

GFSMW_sfc_rhum_039.txt.gz
RH
20 20 21 21 20 19 21 22 23 24 27 33 40 46 50 83 85 76 61 57 49 44 40 36 34 28 28 27 23 25 27 30 26 30 31 31 26 27 30 31 26 26 25
18 18 19 21 22 22 23 23 23 25 29 35 42 46 70 87 85 71 60 54 47 40 36 35 32 28 29 26 26 27 31 30 30 28 36 34 28 26 28 27 22 21 24
17 15 15 17 22 23 24 25 25 28 34 39 44 52 66 66 64 62 67 56 47 37 37 35 31 34 32 36 35 34 33 35 34 28 22 36 37 27 26 24 23 21 24
17 17 16 15 16 22 30 30 29 32 40 46 51 59 67 68 66 69 65 56 42 37 31 29 30 32 30 33 33 27 31 29 35 36 20 22 22 28 29 26 25 23 20
16 16 17 20 20 22 33 35 33 36 45 50 52 60 58 59 56 59 54 50 46 42 36 32 31 28 29 28 28 31 28 28 23 29 30 23 28 24 31 36 30 24 23
15 16 17 18 21 27 34 42 39 43 48 54 54 56 58 57 55 54 53 54 47 41 30 27 28 27 29 31 32 32 32 28 26 24 25 23 24 22 24 27 29 29 28
16 16 16 19 23 29 33 42 45 48 52 55 52 52 58 54 55 50 56 53 40 39 36 29 26 28 32 31 31 31 32 29 29 30 26 23 24 24 25 30 35 36 32
16 21 22 22 28 31 33 41 46 49 50 52 52 52 54 52 55 49 45 34 37 33 28 27 24 25 25 27 28 31 30 30 31 34 34 30 28 27 28 36 42 45 39
20 22 22 24 22 31 34 44 48 48 50 52 52 54 50 50 48 44 32 31 28 26 25 25 24 24 24 24 25 24 25 26 28 33 37 34 31 33 36 38 40 47 51
22 25 27 30 22 29 36 43 44 48 49 51 50 50 42 41 36 32 33 34 26 24 25 24 23 24 23 24 24 25 25 25 26 29 30 34 34 35 36 39 40 42 47
27 30 34 35 27 30 41 44 46 49 50 47 41 39 36 34 31 34 32 29 29 24 24 22 22 22 22 22 22 22 23 26 28 31 34 36 36 37 37 40 41 43 43
24 38 43 40 36 41 48 49 49 48 47 40 37 37 33 32 31 29 28 30 25 24 21 21 20 20 21 20 20 21 23 27 30 32 35 36 30 44 40 40 42 43 43
27 43 46 47 47 52 53 50 48 45 41 38 34 33 33 32 30 31 31 26 21 21 21 21 22 22 24 22 20 22 25 28 32 34 36 38 39 45 42 42 44 48 43
38 49 52 48 49 53 51 48 44 40 39 34 31 30 29 27 26 25 25 24 22 23 23 22 23 24 23 23 24 29 32 34 34 36 38 38 40 42 48 49 55 48 53
44 54 56 51 51 51 48 41 39 37 33 31 29 29 27 26 27 26 25 24 24 24 24 25 26 26 24 21 35 37 38 38 37 37 35 37 44 48 50 49 55 57 60
59 57 55 53 55 46 42 38 34 30 30 30 33 31 30 28 30 28 27 29 31 27 26 28 34 38 24 43 49 51 44 40 38 39 36 36 43 42 47 53 54 54 63
67 60 56 54 44 39 36 33 30 33 34 36 34 31 31 32 30 28 30 33 30 29 30 28 27 27 27 42 52 54 47 43 40 39 40 39 34 46 45 50 53 59 64
64 56 52 46 39 36 32 32 36 39 36 34 32 31 32 30 28 29 29 28 28 30 28 28 27 28 28 44 52 55 47 39 39 38 39 42 43 45 49 51 74 75 72
53 48 42 38 37 36 38 36 36 37 38 36 37 33 27 26 26 29 28 28 30 29 28 27 28 29 28 40 49 54 45 39 38 36 39 41 45 48 53 61 78 71 56
50 48 42 39 44 52 43 50 54 51 49 36 26 24 24 25 27 31 33 30 28 28 27 29 27 29 32 33 44 52 46 41 43 40 42 48 44 52 56 59 69 67 56
69 63 62 62 63 59 53 44 36 30 26 25 24 24 26 29 31 32 31 31 29 29 28 30 26 26 29 34 43 52 50 49 52 55 47 44 53 58 64 61 58 59 57
40 35 34 32 29 27 28 30 31 28 26 27 28 30 30 29 36 45 42 36 32 31 29 28 28 29 28 34 39 49 54 56 53 52 48 54 62 62 59 59 59 61 63
44 40 38 37 34 33 34 34 30 28 30 32 32 32 34 36 40 44 45 37 31 29 28 29 32 34 34 33 40 45 52 54 51 51 59 61 60 58 55 53 58 57 55
40 35 33 33 34 31 31 31 32 32 31 32 32 33 34 33 33 34 38 36 30 29 31 32 36 39 37 37 40 48 53 55 58 66 66 58 55 50 49 49 48 51 54
38 35 34 35 34 32 31 31 31 29 31 32 35 36 35 33 34 33 33 31 32 42 44 43 44 46 48 46 58 59 56 60 65 61 59 51 46 53 51 51 55 58 60
38 38 37 36 32 31 31 31 30 32 32 33 33 34 34 34 33 31 29 50 46 46 52 52 52 50 56 60 64 64 64 64 64 62 55 54 59 61 59 62 65 69 76

GFSMW_sfc_rhum_042.txt.gz
RH
28 27 27 29 29 26 28 29 36 34 32 45 56 61 63 82 77 81 69 77 67 66 58 55 49 46 44 42 35 40 41 45 42 45 44 42 34 40 40 39 38 34 31
27 24 26 30 30 30 30 30 34 37 34 35 51 62 95 92 92 90 82 74 76 67 54 50 44 41 40 36 36 40 44 45 43 40 47 48 41 38 33 44 30 29 30
24 24 23 24 30 28 30 31 33 36 39 46 67 82 80 81 82 82 83 72 70 68 50 46 40 39 46 49 44 42 40 50 46 36 36 44 50 39 38 33 37 28 35
23 21 21 22 24 24 28 31 35 37 44 51 65 79 84 91 90 85 82 73 69 64 52 55 56 42 43 41 43 41 42 44 48 45 29 32 33 42 42 40 36 33 25
25 25 25 23 25 27 40 35 34 42 47 47 62 80 83 82 82 70 62 69 66 56 45 43 40 37 43 36 39 41 39 40 42 45 43 35 40 37 44 49 45 38 36
25 24 24 26 30 34 37 48 50 48 60 65 72 76 76 76 77 67 69 69 62 58 43 37 42 39 42 43 45 44 40 40 39 38 36 36 37 37 40 44 43 43 40
24 27 26 28 32 32 42 43 57 55 68 74 79 71 72 69 73 68 70 57 55 50 46 40 37 43 45 44 45 46 42 40 44 41 42 37 37 37 39 43 53 55 50
25 28 34 33 37 38 42 43 61 64 73 75 74 70 63 66 65 61 58 56 47 49 43 41 40 37 39 40 43 47 46 42 46 42 45 46 44 42 42 50 59 59 61
26 33 34 37 42 41 45 45 64 66 75 74 72 70 63 62 60 60 56 56 49 37 38 41 34 34 35 36 37 41 39 36 41 43 46 48 48 48 50 54 56 65 63
31 33 43 47 47 43 46 48 62 68 72 71 69 64 64 60 55 51 47 36 31 29 32 31 30 32 33 32 35 36 33 33 40 41 39 45 48 50 53 56 59 61 68
33 36 51 51 54 47 51 58 66 64 70 70 61 52 45 44 43 39 33 29 33 29 28 28 29 32 31 30 31 30 31 33 37 40 44 48 47 53 55 58 60 62 64
32 37 57 58 59 53 61 64 60 60 54 50 46 48 41 35 35 36 34 30 31 34 27 30 26 28 29 26 26 27 28 34 39 43 46 48 38 55 57 60 59 62 62
38 54 61 63 63 61 68 64 59 50 45 45 43 41 39 41 42 32 34 30 29 27 30 30 32 31 32 28 26 29 33 37 41 46 48 50 52 58 62 60 63 69 55
45 54 68 69 64 70 74 57 52 44 45 42 40 39 40 39 31 30 30 29 27 28 29 30 32 33 30 29 30 36 41 45 46 48 51 51 53 56 62 61 69 62 73
47 59 71 72 62 68 57 49 47 43 39 40 39 37 33 30 30 31 30 34 32 30 31 34 34 32 31 30 48 52 54 54 52 51 47 48 53 48 49 48 68 73 77
69 67 67 71 62 50 47 47 46 45 37 34 36 32 30 30 31 31 32 35 34 33 33 37 46 49 24 46 48 53 61 57 55 56 52 49 51 51 48 50 52 54 63
75 69 64 49 44 42 40 38 37 36 36 36 36 36 38 39 40 41 44 48 36 38 36 36 33 33 43 46 46 51 59 63 62 58 54 51 38 54 58 58 54 57 58
65 60 53 44 40 37 35 34 36 37 37 40 37 35 36 37 36 38 36 37 35 37 35 34 32 34 36 43 47 52 62 60 57 54 52 55 57 58 55 58 86 85 84
54 48 41 39 35 36 38 38 38 38 42 41 45 43 37 37 40 44 37 38 37 38 35 33 34 36 40 44 42 52 63 58 56 50 54 56 58 55 52 64 86 81 83
41 42 39 41 42 41 42 50 53 58 67 65 70 71 75 77 55 40 39 38 36 33 34 34 36 33 41 36 40 48 61 68 65 63 62 59 52 54 56 61 74 90 69
58 58 66 79 78 79 78 81 80 87 81 81 79 60 42 39 36 39 39 37 35 36 38 37 37 35 37 42 38 44 58 67 68 74 68 63 57 59 63 63 62 65 58
90 86 87 91 92 91 86 92 96 88 64 40 37 37 37 36 44 52 49 42 42 42 39 38 41 43 41 40 43 42 47 53 64 65 67 68 64 62 60 59 58 58 58
42 46 54 54 43 38 33 33 33 34 35 36 40 41 43 46 53 58 55 47 41 40 41 43 50 53 50 51 48 54 56 60 61 62 63 65 63 62 59 56 56 56 63
62 52 48 44 40 33 33 34 35 34 35 38 41 44 46 45 44 46 51 46 46 48 49 54 60 63 60 60 64 65 75 66 66 71 83 66 60 54 55 57 58 62 64
42 38 38 38 37 35 35 33 34 34 40 44 47 47 46 47 48 47 49 48 63 58 66 71 68 70 76 64 62 64 63 66 63 63 72 67 63 68 64 63 64 66 68
41 40 38 37 35 34 36 37 38 40 42 47 51 52 53 51 48 45 47 47 42 42 46 46 52 60 56 60 62 63 62 62 63 67 68 70 75 75 71 71 73 76 81

GFSMW_sfc_rhum_045.txt.gz
RH
32 34 33 32 31 31 34 38 45 58 58 67 72 69 73 76 73 70 60 78 74 68 70 67 55 49 42 44 38 44 41 44 46 45 44 49 41 40 42 44 40 38 35
34 33 32 34 36 34 36 35 44 42 48 54 62 80 92 96 92 86 76 77 75 72 65 56 51 46 47 41 39 40 49 47 45 40 53 45 40 41 40 49 40 36 37
32 32 33 32 33 37 38 36 37 45 42 45 82 92 94 96 96 93 86 82 74 71 67 54 47 44 44 44 44 45 44 51 46 36 37 47 47 43 42 40 40 31 38
29 30 29 31 31 31 38 38 38 41 46 62 71 85 88 93 97 95 90 85 77 77 73 65 66 58 54 47 45 42 46 48 48 43 32 35 35 38 33 40 41 35 31
28 27 27 25 26 28 31 40 39 42 48 49 60 72 88 96 96 93 84 85 81 67 60 56 58 47 56 51 44 40 40 43 44 50 46 38 44 41 46 45 46 41 38
27 28 29 31 32 34 36 44 46 46 49 53 74 73 93 94 90 88 88 86 82 73 55 50 55 60 58 60 48 42 37 39 38 40 37 38 38 41 42 46 48 46 45
27 26 28 32 39 40 37 42 47 51 59 70 83 85 86 87 86 85 87 79 72 70 52 48 50 54 51 54 51 46 42 43 43 41 42 40 39 40 42 46 53 56 57
28 27 34 40 47 48 48 46 46 55 74 90 85 80 81 88 86 84 82 78 66 62 50 47 48 46 50 54 51 49 49 45 48 44 45 47 46 46 44 51 58 66 65
29 33 48 53 55 55 54 54 51 68 89 87 82 77 83 85 84 83 78 72 57 52 38 42 46 46 46 44 41 38 39 40 45 45 47 49 50 52 55 58 61 64 72
38 44 55 54 55 58 62 60 56 73 91 89 77 73 81 79 75 71 66 55 43 36 40 45 44 47 42 38 37 42 38 35 42 44 40 45 50 51 56 58 61 67 72
31 38 60 61 61 62 65 60 66 85 92 79 76 76 75 69 64 62 51 40 34 35 37 36 37 36 34 34 35 38 34 34 37 41 44 46 48 52 57 62 64 65 69
40 59 64 64 64 67 69 71 85 89 72 64 61 58 58 54 50 48 38 32 33 33 32 31 31 30 30 31 32 27 30 36 39 43 46 47 40 55 59 64 63 67 68
44 59 70 70 69 74 85 86 67 57 58 52 46 44 42 40 39 36 33 33 34 34 35 44 56 55 54 39 29 32 36 38 42 45 48 50 53 59 64 64 67 71 59
51 55 73 69 66 85 77 62 56 48 49 46 43 46 44 39 37 34 34 34 33 36 40 33 34 34 32 31 36 44 48 51 47 50 53 54 55 59 64 62 68 65 78
71 59 73 75 80 71 62 53 49 50 50 51 46 47 43 43 37 34 36 37 41 47 53 58 57 48 34 36 51 55 56 55 54 54 50 52 55 50 50 52 69 76 81
77 74 72 74 65 53 48 42 52 49 44 49 44 42 39 36 37 37 37 38 40 39 43 50 54 51 45 50 53 57 61 60 59 62 61 56 56 53 48 48 50 53 69
74 78 59 55 50 42 42 48 38 39 40 38 35 35 36 42 49 51 51 61 67 70 76 76 56 39 48 50 51 52 59 64 65 62 59 55 42 60 63 61 56 58 58
65 50 45 43 38 38 38 37 38 38 40 42 42 44 50 56 55 58 64 66 62 58 54 41 35 39 46 47 47 54 64 65 61 58 58 63 66 66 59 65 85 82 83
43 40 38 40 41 40 39 41 41 46 55 55 64 68 66 71 73 78 84 89 88 64 38 35 36 39 51 46 41 57 63 64 65 61 64 66 69 62 56 67 89 83 85
43 45 43 43 43 48 52 58 64 69 69 72 80 74 75 80 84 78 58 46 39 36 37 36 36 43 41 35 38 46 60 70 67 69 69 67 58 58 58 64 77 79 74
70 62 71 72 70 70 70 82 87 93 90 88 92 91 88 90 84 67 46 40 40 38 38 39 40 39 40 43 38 41 57 62 69 77 75 68 63 62 62 60 68 65 58
81 80 86 96 96 92 86 93 97 95 96 92 90 84 70 51 48 52 49 43 42 42 42 41 47 52 48 50 48 52 55 58 71 71 72 74 66 64 62 60 58 58 60
95 93 97 99 99 97 90 95 98 92 72 52 48 48 46 48 56 58 56 48 42 44 47 50 59 59 57 61 58 60 62 64 65 70 68 68 66 61 62 60 60 60 66
54 52 49 52 45 35 35 42 41 41 41 42 44 48 50 50 50 50 52 52 53 55 60 64 70 74 70 69 67 70 78 71 68 73 86 65 60 61 63 63 63 65 67
44 41 39 40 40 36 36 36 37 37 40 46 51 52 52 53 54 52 55 65 66 59 68 75 69 72 76 66 63 62 62 66 65 66 69 67 67 74 69 68 68 69 70
41 41 40 39 37 37 39 39 40 41 45 50 55 57 56 54 51 50 48 48 47 45 45 42 48 56 52 55 58 61 60 62 61 65 69 76 79 79 75 76 77 80 85

GFSMW_sfc_rhum_048.txt.gz
RH
33 38 37 36 35 34 35 43 62 64 71 85 89 91 91 88 85 70 61 78 76 74 72 69 63 54 46 46 38 42 39 44 47 45 46 51 45 44 46 43 42 41 38
34 36 37 38 38 36 37 36 48 55 64 69 76 84 89 94 89 89 73 75 76 76 72 66 58 48 49 44 42 44 50 48 46 42 54 46 37 39 40 50 44 43 42
31 30 37 37 37 39 39 39 40 52 63 62 86 98 98 98 99 97 95 83 81 86 83 65 55 50 53 48 45 46 45 49 46 37 41 51 45 41 38 43 42 34 40
34 32 33 36 35 34 36 39 42 44 53 63 86 80 80 93 96 90 96 96 87 89 80 69 63 66 61 50 50 46 52 49 46 46 33 35 35 34 30 37 42 36 32
37 35 35 33 32 33 36 38 41 46 48 60 68 83 81 84 98 98 96 96 95 90 79 72 73 68 61 51 58 64 52 46 46 49 47 39 46 42 42 36 42 42 39
34 33 33 33 34 36 39 40 41 42 50 58 70 76 94 97 98 98 97 95 93 92 83 72 72 71 72 65 63 50 49 46 42 40 38 40 38 41 43 44 46 47 44
30 28 31 34 40 45 45 43 44 44 48 60 74 74 92 93 94 94 94 93 87 83 81 74 71 72 66 60 51 47 50 49 44 42 41 42 40 41 42 44 50 51 54
34 30 34 43 50 55 54 52 52 51 51 60 88 90 88 90 92 90 90 87 83 82 78 64 64 63 49 49 50 53 54 47 47 43 43 49 47 47 45 51 56 60 63
40 39 46 54 54 55 53 56 58 58 60 72 95 96 94 94 93 94 88 86 84 70 62 59 54 50 48 50 52 52 48 42 45 46 52 52 54 56 58 60 62 63 66
43 42 47 57 56 57 59 66 65 62 64 93 95 93 95 94 92 90 91 81 76 54 54 50 46 45 46 45 46 47 42 39 44 48 47 49 53 55 60 62 64 70 70
52 46 43 60 65 65 66 71 73 70 96 93 92 94 94 93 91 90 83 70 53 46 47 42 42 41 40 41 40 38 35 36 39 44 45 48 52 54 59 65 66 68 73
61 50 57 64 68 69 74 87 86 94 94 88 89 90 88 86 86 78 68 52 52 48 42 36 35 35 37 33 36 36 39 38 40 44 47 46 42 55 58 63 66 69 71
62 59 60 69 68 71 89 88 84 83 78 74 77 81 80 81 76 69 50 45 40 36 33 35 43 50 59 64 60 52 45 43 41 46 48 51 52 58 63 65 68 72 59
68 78 68 59 70 87 79 74 73 81 69 75 75 71 62 48 43 39 37 36 36 42 48 52 56 58 56 49 44 45 52 59 59 57 57 52 55 58 60 61 66 64 76
72 78 79 82 87 76 73 69 74 77 74 70 66 54 44 40 40 40 41 44 47 51 54 61 69 75 75 56 65 66 64 61 57 54 52 54 58 56 53 55 69 74 77
80 82 68 69 65 61 60 59 66 67 66 63 59 56 48 40 44 47 57 59 62 64 68 68 69 81 70 78 76 69 61 57 58 59 57 57 55 58 55 53 52 53 72
75 61 48 43 45 50 55 60 59 52 56 55 55 47 47 50 54 58 63 70 77 80 85 88 83 84 85 76 68 62 59 60 61 60 59 57 49 65 65 64 58 61 62
48 47 47 48 46 46 48 56 68 68 70 69 66 64 67 72 76 79 85 87 86 90 91 92 77 71 64 55 51 58 60 64 62 62 64 70 71 71 64 69 84 82 80
43 45 45 45 43 42 44 50 54 62 69 73 74 74 80 82 84 93 98 97 96 93 79 65 62 71 69 51 47 59 64 63 63 65 68 71 73 65 59 69 87 82 84
47 48 46 49 50 52 53 59 67 71 77 84 91 89 92 99 99 99 98 97 82 67 48 42 39 42 40 42 37 51 64 68 64 69 68 67 62 61 61 67 78 84 73
75 70 70 75 73 68 68 79 89 96 98 99 99 97 94 98 98 97 82 73 58 43 39 42 44 47 47 48 42 44 61 63 69 73 70 67 66 66 64 61 72 69 63
81 87 94 98 96 89 90 96 98 100 98 98 96 98 99 91 84 72 58 45 43 44 46 49 55 55 56 56 56 56 58 62 73 72 72 74 72 64 62 63 62 62 64
96 96 99 100 100 97 92 97 100 96 95 94 98 90 67 54 53 54 54 50 48 49 51 56 62 64 62 69 64 64 62 63 67 72 69 68 64 61 65 65 64 65 72
87 87 91 80 84 76 85 92 88 85 69 52 53 54 55 55 51 52 54 54 51 56 59 64 69 75 72 71 72 72 78 71 70 74 82 62 61 64 66 66 66 67 70
50 44 42 43 43 43 44 45 45 46 49 54 57 57 53 52 54 56 62 61 64 57 64 72 68 71 74 64 61 63 63 71 68 69 66 69 72 76 73 71 72 73 75
43 43 42 42 40 40 42 44 47 48 50 52 56 56 54 54 53 54 58 52 47 43 44 44 54 56 53 55 60 61 60 66 62 67 75 81 83 84 81 82 84 85 88

GFSMW_sfc_rhum_051.txt.gz
RH
35 38 39 39 39 39 40 42 59 76 78 92 98 98 98 96 91 88 83 79 76 80 82 81 70 62 54 48 44 44 40 44 46 48 49 53 49 45 49 49 47 44 41
38 38 38 41 41 38 39 41 46 70 77 79 83 88 92 94 89 91 85 81 82 83 82 77 66 56 57 48 43 44 48 47 50 46 54 49 44 46 44 53 44 44 44
32 30 37 37 39 42 40 39 42 50 73 76 85 98 97 99 99 99 94 86 86 89 84 80 67 54 52 57 46 51 45 48 48 43 48 54 49 48 42 48 46 40 42
37 37 36 39 40 38 39 40 40 45 55 78 93 89 90 92 94 89 90 94 90 92 91 84 74 72 74 77 76 70 70 53 46 46 33 34 41 40 34 41 45 40 34
37 38 38 37 37 38 40 41 40 43 48 67 84 90 87 92 95 92 93 97 98 94 94 88 86 80 80 79 71 74 67 51 44 51 46 41 47 38 38 36 42 44 42
36 33 33 36 38 39 38 38 37 37 46 59 79 90 88 96 99 100 98 99 98 97 92 88 84 82 80 75 75 75 65 55 56 48 40 44 36 38 41 42 47 47 44
45 42 35 35 42 40 44 44 45 42 46 56 71 86 89 95 94 97 97 98 97 96 92 84 86 85 82 76 66 61 52 52 52 49 42 43 38 43 43 45 52 50 55
54 51 43 50 57 58 55 54 52 52 52 53 64 84 91 95 94 95 96 94 90 90 90 86 84 84 74 62 55 55 52 47 49 40 43 45 44 42 43 53 56 58 66
60 60 50 49 54 57 57 57 58 58 57 59 70 88 94 95 96 95 96 97 94 89 86 82 79 67 55 48 47 46 48 46 58 59 54 50 50 51 56 61 61 60 60
70 68 59 50 54 62 65 66 67 68 67 70 84 93 97 96 96 97 97 95 88 80 82 75 67 53 47 45 45 47 46 48 60 63 53 52 52 52 59 65 66 68 66
69 69 64 58 59 70 71 70 80 81 78 87 95 98 99 98 97 97 94 88 78 77 74 66 52 47 44 43 43 44 45 46 46 47 44 48 50 54 57 63 66 67 75
74 72 71 63 70 74 73 86 92 95 95 95 97 98 98 97 97 95 88 76 74 68 58 47 42 41 41 37 37 40 48 52 52 46 46 46 40 52 55 59 63 67 72
73 67 73 78 73 74 85 83 74 74 82 93 95 96 96 94 87 79 66 59 52 46 42 40 42 44 50 55 59 59 66 70 72 75 65 64 69 65 59 62 70 72 60
72 70 76 84 86 86 75 74 80 78 83 85 83 85 83 78 68 63 59 52 40 40 45 50 56 61 65 66 67 65 65 64 70 76 80 68 60 66 62 62 66 64 73
62 64 88 92 83 74 80 87 90 86 72 68 64 65 52 48 44 43 45 47 50 54 58 63 66 68 70 70 80 81 83 81 74 59 55 58 61 56 57 59 70 73 77
59 69 60 63 67 70 66 68 74 73 68 63 60 52 50 53 58 60 64 65 69 68 69 74 79 85 79 85 87 91 96 81 66 63 60 55 52 63 59 57 56 57 75
49 46 48 55 63 70 74 71 63 69 72 73 62 65 73 69 71 72 77 82 85 87 90 91 92 97 98 96 89 87 81 75 63 57 59 57 53 70 70 68 63 63 61
45 45 48 49 54 60 73 79 83 86 86 80 85 87 80 81 82 85 88 90 90 94 96 100 100 100 98 91 75 62 59 58 59 62 67 71 75 76 68 74 84 83 80
55 52 47 46 46 49 54 64 72 80 83 90 92 85 84 84 88 94 99 100 100 100 100 99 97 90 77 64 64 60 60 58 63 64 69 72 77 67 62 73 88 83 83
56 62 61 61 61 58 58 65 74 83 89 91 92 89 89 95 98 100 100 100 100 98 84 65 62 66 57 48 38 56 68 70 64 72 69 67 64 62 62 69 80 86 75
78 82 87 90 86 80 84 95 96 97 99 97 98 96 98 98 100 99 96 94 88 52 44 44 52 55 62 64 51 61 64 68 73 76 75 71 67 66 62 62 75 72 66
85 85 96 98 92 88 92 98 98 100 98 99 98 99 98 96 95 92 70 50 45 48 52 58 62 63 65 58 58 59 60 63 74 75 76 78 72 65 64 64 65 64 67
93 92 98 100 100 93 96 97 99 98 97 96 98 97 82 64 57 55 55 54 54 56 57 58 62 65 64 72 66 62 60 62 68 74 70 70 65 64 68 69 68 68 76
91 87 89 91 93 91 92 96 95 85 72 62 61 60 60 56 56 55 52 50 53 58 60 60 68 76 70 70 72 71 79 70 72 76 76 63 64 67 69 69 68 70 73
75 58 52 59 68 68 67 63 57 53 57 60 60 58 53 55 61 62 62 62 62 56 66 70 65 69 73 63 63 64 64 77 67 69 68 72 75 80 77 76 77 78 79
48 49 47 48 45 48 51 52 52 54 55 54 55 56 56 61 62 68 72 54 54 51 50 51 57 58 55 57 60 62 61 64 62 71 79 86 88 88 85 86 88 87 90

GFSMW_sfc_rhum_054.txt.gz
RH
40 43 41 42 44 44 44 44 46 79 91 97 96 95 93 94 94 96 92 90 85 83 88 91 91 85 79 70 50 48 44 46 47 50 51 54 53 48 54 59 50 52 47
36 38 41 43 44 39 43 45 46 50 77 90 92 89 89 89 92 95 94 90 89 87 86 89 86 77 76 64 48 47 50 47 52 47 54 49 47 50 49 55 47 50 48
38 35 39 39 42 45 43 43 44 49 71 80 91 98 98 99 98 99 97 94 91 90 87 88 84 77 68 67 62 57 52 51 53 48 50 58 55 52 46 52 56 50 51
39 40 40 41 41 41 44 43 44 47 55 89 92 93 90 95 95 94 94 94 91 91 90 89 86 79 78 81 77 76 80 77 71 52 36 38 49 49 40 44 48 43 40
46 46 37 37 39 41 45 45 43 44 49 59 93 96 93 92 96 97 96 95 94 92 93 91 89 82 82 84 80 82 79 76 67 58 54 39 41 38 38 40 43 44 46
59 53 48 42 47 50 48 46 42 40 44 53 78 91 94 96 98 99 99 99 98 97 96 94 89 85 83 86 84 79 76 68 61 56 47 47 44 41 36 38 40 40 43
65 64 57 53 53 57 59 57 55 50 46 50 62 86 94 96 95 95 96 98 99 98 98 94 92 92 87 87 85 81 75 66 60 52 47 43 40 45 42 43 49 40 50
71 69 65 59 58 55 59 60 58 57 57 58 58 68 87 96 96 96 97 97 96 95 95 95 93 92 89 86 79 76 68 51 50 41 42 43 48 46 42 49 53 55 53
72 74 72 64 60 58 60 65 68 67 66 66 69 73 83 91 95 97 96 97 96 97 96 94 93 91 82 75 66 50 46 45 51 58 57 58 56 56 54 54 54 48 52
74 74 74 70 63 62 67 73 71 76 81 83 84 83 90 92 95 98 99 98 97 95 94 93 87 78 68 57 52 48 45 48 57 56 50 55 57 61 63 62 59 58 58
76 79 77 75 70 72 75 76 88 92 93 95 95 96 98 98 98 98 98 96 93 90 87 79 70 65 60 54 47 44 45 49 51 51 50 54 55 62 66 74 71 73 74
81 83 83 80 84 84 82 91 82 84 90 96 97 99 96 96 98 98 95 83 81 75 70 62 56 51 48 44 39 40 44 48 51 52 55 58 56 74 72 82 83 71 69
74 76 82 91 92 90 84 84 86 89 90 94 96 97 92 92 89 85 75 70 64 57 52 49 47 44 49 48 51 53 62 70 75 81 84 89 92 94 94 80 74 79 61
66 68 83 85 85 82 90 92 90 86 84 85 84 86 86 81 73 68 65 60 50 49 47 49 52 56 60 65 69 73 77 76 83 85 86 88 86 81 79 73 64 61 71
53 57 57 74 75 78 83 83 85 83 76 65 61 60 57 59 54 54 53 54 58 59 60 64 66 70 72 72 80 86 88 92 94 93 89 90 84 75 65 64 74 74 76
49 47 49 61 63 79 75 67 73 75 67 68 63 61 64 69 68 70 68 68 70 70 73 80 82 87 84 86 88 92 98 100 99 97 90 75 62 65 58 56 56 60 80
47 52 56 58 63 74 75 78 74 68 72 72 74 74 74 78 78 76 82 84 87 86 91 93 93 97 95 91 96 95 95 91 74 56 58 55 54 71 72 69 63 66 63
57 52 52 50 54 66 74 78 83 85 88 87 86 87 86 88 87 89 92 91 91 94 96 99 100 100 100 96 90 93 86 61 59 60 64 67 74 78 70 76 89 84 82
54 55 55 53 58 60 65 70 74 78 87 97 98 93 93 93 93 98 100 100 100 100 100 100 100 98 99 85 75 59 60 61 62 64 72 76 80 68 62 75 89 85 83
63 67 67 69 71 75 77 82 92 96 96 97 94 92 90 97 98 100 100 100 100 99 96 97 97 82 56 50 46 67 66 72 66 79 73 67 66 62 62 72 79 86 78
84 82 85 88 86 85 88 95 97 99 99 97 98 97 97 99 100 100 100 98 92 74 54 53 55 60 64 65 62 62 69 73 75 76 77 72 69 66 68 61 76 74 70
90 88 96 96 92 91 95 99 99 100 99 98 98 99 99 99 99 91 72 47 46 53 59 60 62 63 67 60 60 60 59 62 73 74 79 81 67 65 63 65 65 64 71
90 86 98 99 100 97 96 97 100 99 99 98 99 95 64 54 52 54 57 56 58 62 61 59 64 68 64 75 66 64 61 62 72 74 71 67 64 63 72 70 68 68 79
86 87 91 95 97 96 97 97 93 87 74 65 64 60 57 57 56 48 47 51 56 62 59 59 68 76 70 71 73 71 80 69 70 70 75 62 65 69 71 71 72 74 78
90 65 75 85 90 86 85 71 55 59 62 65 60 56 58 62 67 66 68 66 63 60 65 68 66 72 76 64 63 65 66 78 68 71 70 76 80 84 81 80 81 82 83
58 57 62 60 58 57 57 58 58 58 58 55 54 61 65 69 73 77 76 57 57 54 56 57 60 60 56 57 61 62 60 64 63 72 82 90 92 92 89 89 89 89 91

GFSMW_sfc_rhum_057.txt.gz
RH
32 36 37 36 36 35 37 36 38 54 77 88 92 91 96 94 94 91 82 78 77 77 80 79 74 75 77 78 67 55 46 40 34 36 37 36 37 34 44 46 40 44 39
30 30 32 35 36 35 36 38 39 38 55 73 76 78 78 85 88 89 90 82 81 78 80 79 76 75 76 75 65 53 47 41 38 38 41 39 35 36 35 39 38 36 36
37 34 32 34 37 36 40 38 39 42 45 64 81 90 89 92 91 94 94 90 84 82 80 78 75 75 77 75 66 56 53 47 41 39 37 49 48 39 37 40 38 35 36
45 45 39 35 36 40 47 44 44 44 44 57 75 85 80 84 83 82 86 89 87 86 84 82 78 80 81 81 77 65 61 59 55 43 34 32 37 52 41 36 39 36 35
54 51 48 43 43 52 53 45 41 42 46 48 69 84 83 82 84 87 88 89 92 87 86 81 82 79 80 80 76 73 63 65 60 54 45 35 40 31 44 44 40 36 34
60 57 54 50 50 54 57 58 49 40 39 43 52 81 84 84 91 91 93 93 93 91 87 87 84 83 81 79 78 76 69 68 67 58 48 42 34 33 41 37 39 45 37
61 62 59 56 56 57 58 52 53 50 50 48 45 52 72 87 91 88 89 89 94 96 93 90 90 87 82 80 79 79 78 71 64 65 48 45 40 45 42 42 50 41 40
60 65 64 62 61 60 57 55 56 56 55 55 52 50 58 71 81 87 86 86 89 89 85 92 89 85 82 86 87 86 80 74 74 60 54 52 40 44 42 51 53 59 52
61 67 64 62 63 59 59 61 61 62 67 70 69 64 62 66 72 76 86 88 87 90 87 91 93 90 85 84 85 82 76 69 62 50 53 53 49 56 61 54 64 72 63
70 70 68 68 65 64 65 65 68 71 71 77 81 80 81 80 79 80 84 89 88 87 89 90 89 89 87 83 78 76 64 51 52 52 49 52 54 58 54 65 65 66 64
75 71 70 71 73 72 72 71 67 68 71 79 82 87 92 90 90 90 90 89 86 87 88 85 82 77 71 66 62 57 55 56 52 48 51 56 57 61 69 75 81 86 90
69 63 64 74 70 70 71 72 71 74 77 80 83 87 87 88 90 90 88 82 83 79 78 72 67 59 56 52 48 49 49 51 56 59 60 68 66 81 83 91 93 96 99
57 63 66 65 66 72 76 77 73 70 70 76 80 80 83 85 81 80 75 71 71 66 59 54 53 49 51 49 50 51 55 63 70 74 75 84 88 95 98 99 98 88 80
54 54 54 59 62 68 71 69 68 65 61 58 63 66 71 72 67 66 62 55 52 53 52 53 53 56 58 61 64 69 76 82 85 90 92 97 98 99 98 94 91 89 89
51 50 53 62 66 67 66 67 68 63 63 61 63 65 66 69 68 70 72 70 73 74 70 70 73 71 70 73 82 84 88 92 97 100 100 99 96 92 92 90 89 83 73
48 49 52 60 68 74 71 72 70 72 65 71 72 70 72 74 79 85 80 79 79 79 79 82 84 88 85 86 87 91 98 100 100 97 93 90 88 85 67 55 53 54 64
53 51 53 56 68 75 76 83 80 76 79 82 82 77 78 80 80 81 85 89 91 89 92 94 93 96 95 92 93 94 92 86 84 80 71 83 72 73 59 62 61 63 63
59 51 50 51 56 68 73 75 79 82 90 95 94 95 92 92 91 93 94 95 93 95 96 99 100 100 98 88 77 81 88 84 74 60 59 59 61 62 59 60 75 72 68
54 57 57 58 61 62 68 75 84 94 95 98 99 98 99 98 99 100 100 100 100 100 100 100 100 99 97 85 87 69 54 52 56 58 60 60 60 64 59 69 84 71 60
67 69 69 70 76 76 76 84 94 94 95 94 97 96 97 99 98 100 100 100 100 99 98 98 96 86 76 65 72 57 51 58 59 60 58 64 61 61 62 70 64 68 57
85 79 83 84 84 84 86 96 98 99 99 99 100 99 100 100 100 100 99 96 79 69 69 64 56 58 59 61 63 65 60 62 62 62 61 61 68 60 61 60 58 58 57
86 86 88 91 91 91 96 99 99 100 100 98 98 99 98 96 86 67 51 44 45 47 48 46 48 51 59 63 61 60 60 60 62 65 64 65 64 62 61 60 67 63 69
83 84 96 99 99 96 91 99 100 99 97 93 79 55 48 45 45 45 47 46 46 47 44 43 52 54 56 59 64 63 61 61 62 60 63 65 61 64 66 70 69 68 62
84 82 82 96 96 96 96 96 96 82 61 53 50 48 45 43 40 38 40 42 45 44 43 48 56 58 57 59 60 61 61 65 61 63 60 58 64 69 68 65 64 63 64
84 83 88 91 96 96 91 68 60 56 53 53 49 49 48 52 55 53 49 44 46 46 50 55 54 58 62 58 58 59 56 62 59 64 55 60 64 67 66 67 67 68 69
63 74 80 82 79 75 64 58 56 54 49 45 47 54 57 63 63 63 64 59 58 58 59 60 56 54 56 58 62 60 59 61 63 58 65 69 72 74 73 74 73 73 78

GFSMW_sfc_rhum_060.txt.gz
RH
22 23 22 22 22 22 23 23 24 25 31 46 85 90 92 88 87 79 70 59 58 56 61 57 55 53 55 59 63 61 56 51 44 36 36 32 29 27 28 32 32 33 34
22 22 21 22 22 22 22 23 24 25 26 32 50 62 63 71 74 78 79 78 65 65 63 64 59 60 58 58 64 65 61 53 43 48 46 48 36 29 27 30 31 30 31
29 27 24 25 26 25 26 27 26 28 28 30 35 50 58 66 69 75 75 74 79 73 69 69 62 69 62 60 64 67 61 59 48 43 45 56 56 37 32 31 32 31 32
33 33 31 32 32 38 40 33 31 31 31 34 34 45 57 64 62 57 62 67 72 83 81 74 70 71 75 70 68 67 65 60 56 43 35 34 32 41 39 33 33 31 31
42 38 38 39 37 43 45 41 32 28 30 32 36 40 53 50 51 56 61 62 71 77 86 80 78 76 77 76 71 71 65 62 54 53 45 38 35 30 37 40 38 35 32
43 42 40 39 40 44 45 42 36 35 34 32 34 38 45 52 57 64 69 69 74 83 86 85 86 83 82 79 77 75 74 68 64 55 47 43 46 41 43 38 36 37 37
45 47 45 44 46 48 47 42 40 38 38 38 36 33 38 46 58 61 65 68 72 82 87 84 86 85 84 82 80 78 79 76 73 66 58 47 46 45 49 53 45 36 40
48 50 49 50 50 50 48 46 43 42 44 45 46 42 39 38 39 44 51 55 58 64 71 79 86 87 87 85 82 83 82 77 79 78 70 58 54 55 60 70 52 43 46
52 52 50 49 51 51 51 51 47 46 46 49 50 49 49 52 49 48 47 52 54 61 64 75 84 90 89 87 86 88 86 81 82 80 76 64 55 53 55 56 65 71 73
52 49 49 54 54 52 53 52 49 48 48 53 54 57 61 65 65 63 61 57 56 60 74 77 89 89 88 86 88 89 87 84 80 77 80 86 77 67 57 62 68 67 76
50 49 52 52 50 50 53 52 52 53 55 57 58 65 70 76 77 80 78 78 77 76 80 82 86 88 87 84 83 77 74 76 77 80 72 81 78 74 74 77 82 86 84
49 52 50 48 49 52 53 54 51 51 53 57 59 62 64 66 70 73 70 71 75 76 78 77 78 76 72 65 63 61 58 59 62 64 66 70 73 86 90 94 95 96 99
47 45 44 46 47 50 52 53 50 48 46 49 54 57 61 63 65 60 58 62 63 65 63 62 60 57 56 54 55 54 56 61 67 72 76 80 84 92 97 98 98 98 97
46 46 46 46 48 50 54 52 51 49 49 51 55 59 62 62 62 64 61 58 54 53 52 52 51 55 54 58 61 66 70 76 81 86 89 93 97 99 100 100 100 98 87
45 46 47 48 51 52 55 54 54 53 53 55 60 63 64 72 73 73 73 73 76 73 73 72 70 69 70 70 79 83 87 91 96 99 99 100 99 97 94 86 84 81 80
48 45 45 49 58 59 61 61 60 60 58 64 66 64 69 73 82 85 81 81 90 90 88 90 89 89 85 85 86 90 96 99 99 98 97 94 86 80 76 74 71 62 62
53 47 45 47 54 61 64 67 64 63 69 71 69 70 77 83 87 86 89 94 95 95 95 97 97 97 95 91 91 91 94 95 86 72 71 66 71 73 58 62 59 57 60
54 47 43 48 51 55 57 60 68 78 94 94 94 94 90 89 87 91 96 97 97 99 99 99 100 100 98 98 97 83 80 78 58 54 52 51 54 54 55 52 62 63 59
46 47 50 53 53 56 58 64 73 76 92 95 96 96 95 95 96 100 100 100 100 100 100 100 100 98 96 77 73 51 50 61 63 56 53 50 48 57 60 60 81 60 54
51 53 56 61 64 66 62 67 79 83 93 95 97 97 96 97 99 100 100 100 100 100 98 99 88 74 72 76 61 50 45 46 50 48 48 59 58 60 60 60 56 60 49
62 63 66 72 74 71 80 93 96 98 99 98 99 98 99 100 100 98 99 88 68 62 60 53 52 54 53 58 64 59 50 50 51 52 50 51 65 62 61 60 51 52 52
69 68 71 78 79 88 94 97 100 98 97 97 96 97 87 70 60 52 42 37 34 35 35 35 37 42 51 58 60 61 61 58 53 53 50 52 63 61 60 59 63 64 65
76 75 82 89 90 92 94 99 98 95 88 73 61 46 35 32 35 37 38 33 31 29 26 27 33 39 46 48 61 61 60 60 53 52 60 61 59 61 58 63 68 68 54
75 66 76 89 90 92 94 94 90 72 54 38 33 31 30 30 29 27 28 26 24 24 26 32 38 42 46 49 49 52 48 57 51 61 53 53 62 65 64 57 53 53 54
72 71 82 80 93 93 91 76 63 47 36 34 34 32 30 30 34 37 32 29 36 36 35 42 41 45 47 50 57 57 50 52 53 64 42 46 49 53 52 54 55 57 58
77 79 76 83 93 88 74 61 51 38 34 32 32 33 35 39 42 43 49 59 59 59 59 60 52 46 56 59 62 61 60 62 61 47 48 53 57 59 58 60 61 63 69

GFSMW_sfc_rhum_063.txt.gz
RH
16 19 21 20 20 20 21 21 21 21 22 30 38 73 89 91 81 73 57 53 51 49 55 57 53 52 53 54 62 66 60 58 50 52 45 42 38 33 36 36 36 39 42
20 19 20 19 19 19 20 21 22 22 22 24 29 53 66 75 78 81 81 73 60 57 56 59 61 56 57 56 59 68 68 61 54 55 55 59 48 40 35 35 35 35 38
24 24 23 25 25 25 27 24 24 25 25 27 26 32 52 59 64 73 76 75 74 70 65 63 62 64 62 62 61 66 70 70 59 51 54 67 67 49 41 36 36 35 38
28 29 29 31 32 39 43 33 29 28 27 30 31 33 38 51 54 53 55 59 61 70 77 76 68 71 74 70 65 63 71 72 69 58 51 51 45 60 55 45 39 37 34
34 33 35 36 38 44 46 40 32 27 27 29 31 33 36 39 46 48 49 50 54 62 75 80 85 82 82 83 74 76 69 76 67 67 69 58 51 43 51 53 49 41 39
37 37 37 37 38 44 46 43 35 32 33 32 31 34 41 39 46 49 54 55 58 65 70 80 83 84 86 86 88 80 84 80 77 63 64 61 62 56 54 64 54 53 44
39 42 42 43 44 47 46 42 39 36 36 38 36 33 34 38 45 49 53 55 59 66 75 86 88 91 91 89 89 90 88 84 84 82 69 64 66 65 63 72 64 63 56
42 45 46 46 46 48 47 45 43 41 40 40 41 39 39 38 36 36 39 43 48 50 52 70 80 83 87 90 91 93 92 88 88 86 83 76 72 71 80 89 90 94 85
46 45 42 43 48 47 48 49 46 43 42 44 44 44 45 51 53 50 46 44 42 47 51 62 70 86 91 93 93 94 94 94 93 94 90 84 86 90 90 92 94 96 96
46 44 43 49 46 45 48 47 45 47 47 48 48 51 55 60 62 64 64 63 60 56 58 64 70 88 93 93 94 95 95 96 98 93 88 87 85 86 86 86 85 89 90
46 45 47 45 46 47 49 48 46 47 49 51 52 54 58 60 60 65 65 66 68 68 70 70 71 80 86 88 93 91 93 88 87 87 91 89 88 92 90 92 92 91 92
46 47 46 44 45 47 47 48 45 45 46 48 50 54 56 57 59 57 57 59 64 64 69 71 75 78 79 76 76 78 77 82 86 82 84 87 83 89 89 93 95 97 99
44 43 42 44 45 46 48 48 47 47 46 48 51 55 57 57 60 59 56 52 51 51 52 53 57 59 64 64 64 60 66 69 76 79 80 85 88 94 96 97 98 97 94
44 44 44 44 44 46 50 50 49 48 50 52 56 60 62 62 63 66 65 65 63 63 63 62 62 60 60 64 64 68 72 77 81 83 85 89 94 99 100 99 99 98 98
45 44 45 44 48 50 52 51 54 53 53 55 58 62 63 69 72 73 76 74 73 76 78 78 78 77 76 77 84 85 88 92 97 99 98 100 95 93 90 86 87 86 81
48 44 44 46 53 54 59 58 58 58 56 58 60 60 64 71 78 81 84 85 85 87 88 89 88 91 88 86 87 92 96 98 98 98 98 90 81 76 75 74 69 65 72
47 46 44 46 52 56 57 60 59 63 67 70 66 68 72 77 80 84 88 93 96 96 97 97 98 98 97 97 98 98 96 95 96 96 96 84 77 65 58 61 59 58 57
49 46 43 46 49 50 52 55 66 76 83 83 83 80 81 86 90 95 97 97 97 97 97 99 100 99 97 98 97 99 99 93 75 58 50 50 52 54 56 53 68 70 65
43 43 44 48 50 51 52 59 64 76 81 94 90 92 92 94 96 99 100 100 100 100 100 100 100 96 74 65 54 50 55 59 56 51 52 48 47 60 61 66 85 69 63
44 47 48 53 55 56 54 63 73 90 94 95 96 94 94 96 99 100 100 100 100 100 91 97 83 74 64 63 60 46 41 43 48 47 49 60 62 62 61 62 64 69 58
53 52 53 60 59 62 70 85 95 97 96 96 97 96 97 98 99 98 96 87 66 58 55 53 52 53 54 58 62 60 54 55 55 56 53 54 63 63 62 61 62 60 58
62 57 61 67 70 80 82 90 98 98 96 94 92 92 80 66 58 54 42 38 31 32 32 32 36 42 49 60 61 63 62 60 56 53 53 56 65 60 60 63 60 63 66
63 60 72 85 85 87 89 96 96 89 81 73 65 45 33 33 36 42 41 32 27 24 24 27 35 41 46 48 58 56 58 58 57 56 64 59 55 58 60 58 66 67 64
65 62 71 84 94 84 89 84 80 70 58 43 32 31 31 30 28 26 31 28 22 23 27 33 38 42 46 50 51 52 51 50 52 59 60 49 58 59 63 61 57 60 61
63 58 69 79 91 87 83 72 65 53 39 30 30 30 28 27 32 36 34 31 44 46 37 45 44 48 49 54 60 62 59 61 60 66 50 47 52 59 57 58 61 64 64
66 64 73 76 84 87 76 65 55 42 32 31 31 32 34 35 38 42 53 63 60 59 59 59 57 50 54 59 64 64 63 64 60 59 46 56 63 65 63 65 67 73 72

GFSMW_sfc_rhum_069.txt.gz
RH
29 32 30 31 30 30 33 36 36 35 42 61 96 98 96 98 98 96 91 92 93 88 83 76 83 79 72 78 87 86 90 95 82 71 68 68 62 60 60 59 62 72 77
32 31 30 34 45 56 55 47 43 41 41 46 48 93 97 98 92 95 94 92 94 95 93 91 86 91 89 87 92 93 94 93 87 74 68 66 66 64 54 60 56 61 64
36 41 44 51 57 62 63 56 45 42 43 43 48 53 92 96 98 96 97 95 93 94 95 95 96 96 95 96 95 92 91 90 97 92 72 86 81 77 67 53 55 58 68
43 46 48 53 58 63 63 58 53 42 40 44 46 51 58 67 87 96 95 95 93 92 93 94 95 96 96 95 90 88 89 93 94 97 85 89 81 76 73 73 76 65 60
47 50 51 55 59 63 66 61 55 48 49 46 48 55 57 63 66 68 80 94 96 95 94 93 95 97 98 97 97 97 97 94 90 92 95 90 96 80 77 84 89 74 67
54 53 52 59 65 67 66 64 59 56 59 61 63 61 58 61 64 66 73 81 88 90 92 96 96 95 94 93 96 97 98 98 95 91 92 87 83 85 89 90 90 88 90
63 64 65 67 69 70 67 61 65 62 62 64 68 76 81 82 82 83 78 74 77 84 83 92 95 96 95 93 94 96 97 97 98 97 96 90 90 93 87 90 93 91 90
68 65 65 71 68 66 67 67 65 66 67 68 73 82 85 89 92 93 95 96 94 92 91 91 94 95 94 93 94 98 98 97 98 98 98 95 90 94 94 89 95 99 98
66 63 70 67 67 69 70 68 68 70 71 73 78 86 89 91 93 93 94 95 93 79 92 92 92 94 94 94 95 97 98 98 99 99 99 99 96 97 98 98 97 90 100
64 68 69 67 69 70 71 66 66 67 70 76 82 81 85 81 81 76 78 80 79 79 86 93 94 94 94 95 96 98 98 99 98 98 96 96 96 96 98 98 98 99 98
67 71 67 68 70 71 69 66 66 66 70 74 77 78 80 81 79 77 75 72 69 68 68 74 77 76 79 85 90 85 89 93 94 93 94 96 93 96 96 97 98 99 98
65 66 64 68 69 70 69 68 68 69 73 76 79 79 79 80 83 83 79 75 75 71 70 68 71 72 73 77 84 85 87 89 92 92 92 93 88 96 96 97 99 99 100
61 61 62 64 67 70 71 70 71 74 75 78 83 86 87 89 92 88 80 77 81 82 80 77 78 78 80 81 81 82 85 87 90 91 92 94 93 98 96 97 98 98 94
57 60 62 65 68 71 72 73 75 75 75 77 85 90 92 81 89 92 88 80 92 95 92 85 82 83 89 87 86 86 88 90 92 93 94 95 96 99 100 99 100 97 95
57 60 64 70 72 78 79 79 78 77 77 80 86 91 89 79 81 83 84 83 89 86 83 81 78 82 88 86 92 88 91 94 97 98 98 99 94 89 91 94 99 97 92
57 56 60 70 77 84 82 79 85 85 81 85 88 84 77 80 84 89 91 93 93 91 92 96 93 92 80 83 86 90 94 96 99 99 100 100 98 96 92 94 94 76 82
60 55 58 70 82 81 80 93 93 86 86 86 86 78 83 90 93 95 94 96 96 96 95 97 98 99 94 87 87 89 97 97 97 97 96 87 80 84 84 76 67 59 57
58 57 64 73 75 76 87 92 90 81 85 83 82 85 91 91 96 96 97 96 92 91 91 95 95 96 80 72 78 84 98 98 94 82 78 78 78 68 71 80 82 80 77
60 58 65 70 73 78 86 89 88 83 84 87 87 86 89 96 97 99 99 100 97 96 95 98 94 90 82 55 62 82 89 87 84 71 73 76 77 62 63 81 84 84 71
59 66 68 72 72 77 84 88 90 86 89 87 87 85 91 97 98 99 100 96 98 98 91 94 92 74 87 64 62 71 71 78 70 72 68 59 69 63 63 79 82 81 75
64 68 72 77 81 92 92 96 94 97 95 92 93 94 97 98 96 94 97 97 88 81 82 79 84 85 80 77 62 62 76 76 72 69 72 75 64 60 57 59 80 73 72
74 74 83 90 94 92 92 94 98 97 94 95 94 96 98 93 93 91 90 85 71 68 69 65 67 78 82 60 58 58 58 64 68 73 82 80 58 56 57 65 61 65 74
77 80 92 95 93 88 87 97 97 94 92 89 97 96 89 73 65 62 57 50 48 44 46 54 64 66 64 74 62 61 60 60 69 70 68 56 51 57 67 62 61 63 78
72 88 93 96 92 86 84 92 92 87 90 95 84 60 54 54 51 45 46 44 43 44 47 52 60 67 71 82 84 77 82 69 69 71 81 61 52 53 61 63 66 71 76
75 85 91 90 86 87 85 87 83 93 93 73 52 48 47 45 61 73 52 68 80 59 59 65 61 68 77 74 69 71 73 81 73 71 73 58 64 74 74 75 77 80 80
76 85 88 87 82 88 84 78 81 93 78 50 51 51 49 56 69 86 88 64 64 57 58 61 66 67 58 58 62 63 63 61 60 72 68 73 92 92 82 83 86 88 75

GFSMW_sfc_rhum_072.txt.gz
RH
36 36 36 36 35 49 44 42 39 41 76 96 97 97 97 96 97 98 94 93 93 93 89 88 88 88 79 79 86 92 93 94 93 78 73 65 64 63 65 64 68 92 91
35 34 44 60 60 61 60 51 45 43 44 52 57 96 97 97 96 96 96 96 96 96 96 96 93 94 95 92 94 95 96 93 96 92 86 82 66 64 61 66 60 66 89
37 48 56 59 63 67 68 60 56 46 44 44 51 57 95 97 99 98 98 96 94 94 96 96 97 96 97 94 91 94 95 90 98 94 93 89 85 82 72 63 60 63 76
47 51 55 60 62 66 66 60 56 49 47 50 51 52 58 73 91 91 94 96 95 95 94 96 97 97 98 97 96 95 96 97 94 98 91 91 86 84 87 76 86 78 77
55 55 58 61 64 69 72 68 60 60 64 66 58 60 60 65 68 68 70 80 90 96 96 96 97 98 98 98 98 98 98 98 96 99 98 97 98 90 87 82 86 88 90
58 58 63 66 70 71 71 70 65 67 67 72 78 79 72 70 74 77 78 78 86 90 90 94 97 97 97 98 98 97 98 99 98 97 96 94 96 96 95 91 91 89 91
66 70 73 75 72 70 71 64 66 68 70 77 84 88 91 92 93 94 96 94 94 96 95 96 98 98 96 96 94 94 95 97 98 98 96 97 94 94 97 93 97 96 96
73 74 76 76 70 69 71 70 70 72 74 79 87 91 92 96 97 95 96 97 97 96 94 94 95 95 95 96 96 96 96 96 98 98 99 98 97 96 93 95 97 99 97
72 72 75 70 72 73 73 73 74 75 80 87 90 91 93 93 92 87 89 94 90 77 94 95 95 95 94 95 94 97 98 98 99 99 99 99 97 97 98 98 98 97 99
69 75 72 73 76 75 72 70 69 73 78 78 78 83 84 80 78 76 75 74 71 72 82 87 86 86 89 94 95 97 95 93 96 96 97 96 95 96 97 98 98 98 98
71 75 71 74 75 74 70 70 71 74 79 79 80 83 84 84 84 83 81 79 75 74 73 74 75 76 79 86 94 95 95 93 92 92 93 94 92 96 96 97 97 98 98
69 69 70 74 74 74 71 72 74 77 80 81 84 87 87 88 89 88 84 82 84 79 78 78 79 82 84 89 93 95 94 90 91 91 92 94 89 97 96 96 98 98 99
69 68 70 74 75 76 74 76 77 81 82 84 89 92 94 96 96 93 90 90 92 91 88 87 90 92 91 93 95 95 94 90 91 91 93 94 92 95 96 97 97 97 93
63 65 68 71 75 77 76 79 80 80 82 87 93 94 86 84 84 90 85 92 94 95 94 94 94 93 95 93 90 85 94 91 93 93 92 93 95 98 99 99 99 95 95
64 65 67 70 74 79 82 81 82 81 83 88 92 94 81 81 83 84 86 84 86 87 89 86 81 84 87 86 96 95 94 95 97 98 97 98 90 85 88 90 94 91 92
64 65 66 72 78 83 84 84 87 85 84 90 91 87 80 83 88 91 93 91 91 92 92 95 92 86 81 82 85 93 96 97 97 99 100 96 91 85 80 79 80 77 95
63 62 66 74 84 87 85 93 92 88 89 91 88 81 85 90 92 92 92 96 97 92 94 97 98 99 83 84 85 88 97 97 96 95 94 87 76 78 80 69 63 68 61
63 58 64 80 84 86 92 95 91 90 84 84 85 89 87 96 96 96 96 94 91 91 91 92 94 94 79 68 71 81 95 95 89 82 80 80 82 77 83 88 89 88 82
63 62 70 78 82 92 94 94 92 83 84 88 89 88 90 96 97 99 99 100 97 96 99 98 93 90 83 61 66 79 84 79 78 77 80 80 83 65 69 81 84 81 71
62 67 75 77 82 92 90 93 94 85 89 88 87 86 92 97 98 100 99 97 91 95 97 97 92 76 88 64 64 72 73 81 71 73 69 65 70 63 61 79 83 82 76
66 70 73 76 79 88 91 96 96 93 89 89 91 93 94 99 97 97 98 99 94 96 91 87 88 86 80 77 60 63 78 72 70 68 74 75 66 58 56 60 78 74 75
73 74 80 86 94 93 92 97 98 96 94 93 94 98 97 92 91 97 94 88 78 80 77 77 76 78 81 60 58 55 59 64 66 70 78 80 58 54 57 66 61 64 75
72 80 88 96 96 95 94 95 97 94 94 93 94 96 99 97 94 87 82 66 60 59 59 56 66 66 65 78 66 64 62 65 69 70 71 64 53 55 64 62 61 66 77
72 77 94 96 98 95 93 91 93 87 85 88 98 97 94 77 66 54 51 47 45 47 48 55 60 67 72 82 83 77 84 70 71 71 84 61 54 54 63 65 69 72 78
72 79 91 94 94 92 84 88 88 88 87 89 94 73 63 64 51 45 47 48 62 47 52 59 59 69 74 71 72 72 74 82 75 72 70 60 69 77 77 79 80 85 84
82 89 91 91 93 91 84 86 85 89 96 90 68 59 58 56 71 88 89 60 67 60 58 60 63 63 58 57 62 62 63 63 61 73 71 75 95 94 84 85 87 89 82

GFSMW_sfc_rhum_075.txt.gz
RH
35 38 40 39 52 50 44 44 48 51 86 97 97 97 97 97 97 97 94 94 94 85 88 88 92 92 88 82 89 93 93 94 96 92 90 82 74 67 62 60 63 80 92
36 38 48 57 58 63 59 50 45 44 47 68 85 96 97 97 96 96 96 96 96 97 98 96 95 94 95 94 94 96 96 96 98 96 94 94 88 74 66 72 63 67 95
38 48 56 62 66 67 67 60 55 47 47 47 54 61 94 98 98 98 98 97 96 96 97 97 98 97 97 97 95 96 96 93 98 96 96 96 96 90 77 72 72 69 85
44 54 58 61 65 70 66 64 58 56 53 54 54 54 62 95 95 87 88 79 92 96 96 97 97 97 98 98 97 96 96 97 96 99 96 97 92 91 90 78 84 86 80
49 55 60 64 70 71 71 68 66 68 71 71 60 62 62 68 71 69 69 75 91 92 94 97 97 98 99 98 98 99 98 98 97 98 98 99 98 90 94 92 90 84 87
58 62 69 72 76 74 72 72 69 72 76 83 86 79 75 77 83 88 87 87 93 95 93 97 98 98 98 98 98 98 99 99 98 98 98 96 97 98 97 97 93 91 88
67 74 79 79 73 74 75 68 71 76 79 86 91 91 92 93 94 96 97 95 96 97 96 96 97 99 99 98 98 97 98 98 98 98 99 98 98 96 97 98 97 96 94
76 81 83 79 74 72 74 75 78 81 83 91 94 95 95 97 98 96 97 97 98 97 96 96 96 96 94 89 95 97 98 98 97 93 96 99 99 99 98 98 98 99 97
81 81 81 74 76 77 78 80 81 87 93 91 90 88 87 84 81 80 82 82 78 72 92 92 92 92 93 95 95 98 99 95 95 98 97 98 97 97 97 98 98 98 99
76 80 76 76 80 77 78 76 78 85 84 83 84 86 86 83 81 80 80 77 75 74 78 81 82 82 86 94 95 97 94 90 95 95 95 95 95 97 96 97 97 98 99
73 81 79 78 77 74 74 75 78 83 84 83 85 88 89 88 87 86 86 84 81 79 78 78 80 84 88 92 95 96 92 90 91 92 94 94 93 95 96 96 97 98 98
76 77 79 81 78 74 74 76 80 84 85 85 88 92 93 91 93 94 92 89 90 87 88 87 89 92 93 96 96 96 92 89 92 92 92 93 88 95 94 95 97 98 98
73 72 77 78 78 77 76 78 82 87 88 91 94 95 96 96 96 96 96 96 96 96 95 93 96 96 95 96 96 97 96 91 92 91 91 91 90 95 96 96 98 98 92
69 70 74 76 77 79 79 81 83 86 88 92 95 94 90 84 84 85 88 86 92 94 94 94 94 94 95 96 96 91 90 89 91 94 92 92 94 97 99 98 98 94 95
73 70 70 75 77 80 81 82 85 88 90 94 95 95 82 82 83 85 85 83 87 87 87 78 83 88 89 88 97 90 88 94 97 96 92 93 87 82 85 91 95 93 95
70 69 66 70 76 82 82 81 84 86 88 93 94 90 82 85 89 91 90 89 90 91 92 94 91 89 83 83 85 93 97 97 98 97 95 91 85 80 71 70 67 76 86
70 67 64 67 76 81 82 87 87 86 90 92 92 83 85 89 91 90 93 95 92 92 93 94 91 93 88 84 83 84 95 95 96 95 94 81 75 82 85 75 75 75 69
68 63 67 75 84 88 89 90 89 88 90 91 90 87 89 95 92 92 95 92 91 89 87 93 93 92 79 67 71 78 95 94 90 85 82 87 88 84 82 83 88 86 70
70 62 65 80 88 90 95 94 95 94 92 88 92 89 93 97 97 99 99 100 96 98 98 98 93 91 86 63 68 71 78 75 80 72 82 81 83 65 66 80 85 79 71
66 67 78 84 91 96 95 95 96 94 88 87 89 88 92 97 98 100 100 97 96 98 98 94 92 77 88 64 64 72 73 84 70 73 69 70 72 61 58 79 82 84 77
68 75 79 83 90 95 95 96 96 96 89 88 90 93 95 98 98 96 96 94 93 90 94 87 89 87 80 79 60 65 73 69 69 68 75 73 64 56 56 64 77 75 78
77 76 84 87 94 95 94 96 97 95 91 91 93 97 96 90 90 93 97 93 95 92 88 86 82 78 82 68 65 56 63 65 65 68 76 79 66 53 58 66 62 63 72
71 74 84 91 95 95 92 97 95 94 93 93 96 97 93 90 94 97 95 91 82 78 70 61 63 63 62 75 71 66 60 65 70 69 72 65 58 54 65 60 61 68 78
70 72 80 91 97 96 94 93 90 90 91 92 94 95 97 99 96 86 75 72 64 59 46 48 55 65 67 79 81 77 84 70 70 71 86 65 56 55 64 66 70 73 78
73 74 79 85 92 96 96 96 88 87 90 90 92 98 97 92 76 63 57 52 48 46 45 52 54 64 69 67 71 78 77 83 75 75 68 61 71 79 78 81 83 86 85
79 83 84 88 88 93 95 92 88 88 86 86 94 94 79 77 63 62 77 58 55 62 59 53 59 56 55 52 59 63 62 63 62 75 77 76 94 96 85 86 88 91 88

GFSMW_sfc_rhum_078.txt.gz
RH
38 39 44 47 47 47 48 57 91 90 96 97 98 98 98 98 98 98 95 95 90 88 95 96 95 93 91 89 94 95 95 95 97 95 95 94 90 88 82 86 75 71 81
42 42 45 52 52 55 52 47 47 47 57 89 96 97 97 97 96 96 96 96 96 96 96 95 95 95 96 95 95 96 97 97 98 95 95 97 85 86 79 85 76 75 85
41 42 56 58 64 61 60 56 50 48 49 50 58 65 94 97 98 98 98 97 97 97 97 97 98 97 98 97 96 97 96 96 98 96 94 98 96 88 85 76 78 76 81
45 47 58 67 67 68 66 58 58 59 57 56 53 56 67 91 96 88 80 76 88 94 97 98 98 98 98 99 98 98 97 97 96 99 96 96 90 96 96 78 77 81 79
45 51 62 64 73 74 72 70 69 69 72 69 59 61 62 71 74 73 71 76 92 93 94 97 98 99 99 98 98 99 99 98 98 98 99 99 99 94 98 98 94 84 82
48 57 69 79 82 80 77 75 74 78 82 83 83 74 72 80 84 89 91 94 95 95 94 96 98 98 99 99 99 98 99 99 99 98 98 98 98 99 99 99 98 97 90
59 68 82 83 80 79 77 75 77 82 87 91 92 92 93 93 94 96 97 96 97 97 97 97 97 95 92 95 98 99 99 99 99 99 99 98 98 97 97 98 98 99 94
74 82 85 84 82 78 80 81 83 87 92 94 96 96 95 96 96 96 96 93 95 95 96 96 95 94 93 88 91 96 96 98 97 95 98 99 97 96 99 99 98 99 98
80 88 90 84 81 81 82 85 88 94 93 92 87 86 84 81 81 80 80 80 78 69 84 85 86 87 91 95 95 96 97 95 96 97 96 96 95 95 96 97 99 99 99
88 92 88 84 85 84 87 86 90 90 90 90 88 87 88 85 84 83 83 80 78 77 80 81 84 86 90 95 96 98 88 89 95 94 93 94 94 96 97 97 96 97 99
86 89 86 86 85 84 83 86 89 88 87 86 90 92 92 90 89 89 88 87 85 84 84 84 87 91 94 95 96 95 88 89 91 92 92 94 92 95 95 96 96 97 98
86 86 87 89 84 80 81 85 90 90 89 90 93 95 94 94 96 96 96 93 94 93 94 94 95 96 96 96 97 96 88 89 91 91 92 93 86 94 94 94 96 96 96
84 83 88 87 84 81 80 85 90 92 92 93 95 96 96 96 97 97 96 96 95 96 95 95 96 97 96 97 97 96 89 90 90 90 94 91 90 94 95 96 96 95 96
80 82 85 80 79 78 80 84 88 90 93 94 95 96 94 86 86 85 87 88 92 94 94 95 95 96 97 95 87 87 89 91 92 93 94 91 92 96 98 96 96 94 96
82 79 79 80 80 80 81 82 84 89 92 94 96 95 84 82 83 85 84 85 86 88 84 80 85 88 91 90 87 88 91 92 93 92 86 87 86 80 85 90 94 92 94
76 78 76 77 82 85 82 80 84 88 88 92 94 92 84 86 89 89 89 88 92 92 91 89 90 90 82 82 88 96 95 95 94 94 93 91 84 80 65 69 68 77 89
72 75 71 71 75 82 82 88 89 89 92 94 94 88 86 89 91 89 90 91 94 92 90 90 90 94 88 80 77 78 92 92 94 94 94 86 81 84 86 77 75 71 69
72 71 70 74 76 82 84 88 88 91 92 94 94 90 89 92 91 92 93 91 88 87 88 93 94 93 79 68 69 76 93 94 92 87 86 89 89 84 80 80 86 78 74
68 66 67 73 84 84 88 89 91 92 93 94 96 89 92 94 95 98 99 99 95 97 98 96 94 92 86 68 65 71 78 79 77 71 85 81 84 62 68 78 83 78 72
73 67 73 83 87 95 92 94 96 96 96 93 91 89 92 94 98 100 99 95 98 98 98 95 93 79 88 64 65 71 73 83 69 74 70 70 74 59 58 79 80 82 78
72 77 81 87 91 96 94 96 96 97 93 91 91 92 94 98 98 98 97 97 97 96 91 87 89 87 80 79 63 65 68 67 68 68 74 70 60 55 56 69 80 81 83
78 77 85 91 96 96 94 96 97 94 95 93 93 98 97 93 91 92 91 89 91 98 92 87 85 81 83 68 68 58 67 66 66 68 77 81 71 53 56 69 62 63 70
76 78 82 90 96 96 94 96 95 96 96 93 96 96 94 89 88 92 99 93 95 92 84 72 67 62 62 73 71 66 60 64 71 68 71 65 58 55 66 59 61 68 78
73 74 83 83 91 96 95 93 97 86 92 93 95 96 95 96 94 96 91 89 88 80 66 59 56 64 59 68 77 73 82 69 68 70 89 65 57 56 66 67 70 74 79
73 75 75 77 82 93 95 95 94 91 92 92 94 97 97 98 99 95 87 78 70 64 56 52 50 61 65 59 66 74 77 85 75 79 73 62 68 78 79 81 83 86 86
75 78 81 85 88 88 90 94 92 90 92 94 94 94 94 98 90 81 66 61 56 53 53 48 52 50 51 50 58 65 66 62 63 80 82 80 90 94 84 86 88 91 89

GFSMW_sfc_rhum_081.txt.gz
RH
38 30 32 38 47 50 66 76 81 81 82 84 86 88 86 88 87 86 80 77 75 74 80 78 79 77 75 73 72 74 78 76 76 77 70 68 65 63 62 68 65 62 61
35 33 33 37 39 42 46 48 71 72 80 82 83 83 83 84 81 85 83 83 83 86 82 80 81 82 84 80 79 81 82 81 84 82 90 90 63 62 62 60 61 59 60
37 35 33 40 50 47 47 43 43 44 46 54 57 61 80 87 89 90 89 85 86 88 88 88 86 85 86 87 84 83 84 87 87 86 91 95 81 75 61 59 64 59 54
39 39 39 47 51 54 58 51 50 50 49 48 47 49 60 76 84 78 67 64 77 80 86 92 93 94 94 94 90 89 89 90 93 92 90 86 84 95 94 76 71 65 66
39 37 41 53 56 64 62 63 62 64 65 55 50 50 51 57 60 59 58 62 77 78 80 87 89 92 96 94 92 92 94 93 90 91 93 94 96 90 98 98 87 79 71
40 38 49 62 66 69 69 69 68 72 72 71 68 62 62 65 66 72 72 75 77 79 81 82 87 90 92 97 96 94 94 95 94 92 92 90 90 90 92 98 92 89 84
42 45 60 70 72 73 72 70 70 75 75 76 77 78 80 79 80 82 80 79 79 80 83 84 83 85 85 88 94 97 97 97 97 95 97 93 95 94 92 91 90 88 88
48 54 63 69 70 72 71 70 72 78 79 80 83 81 80 78 77 78 75 69 71 73 75 76 76 76 78 81 88 93 96 96 97 94 92 93 87 85 89 96 95 92 96
57 62 73 72 71 70 71 71 76 82 80 77 72 70 67 68 68 67 65 65 64 60 68 71 72 75 79 81 83 88 92 89 90 92 90 91 90 88 90 92 94 94 93
68 80 77 74 72 71 74 75 77 77 77 74 71 72 71 70 69 68 69 69 66 67 69 71 72 74 78 81 84 88 83 83 85 85 83 86 90 86 86 88 85 87 92
79 82 76 74 73 73 73 76 75 75 75 73 74 74 74 75 73 73 74 73 73 73 74 74 76 78 79 80 84 80 79 80 82 83 83 86 84 85 86 87 86 88 93
80 78 76 76 73 72 72 74 75 73 73 74 75 76 77 78 79 80 80 77 78 77 78 78 79 81 83 82 82 81 80 82 86 85 85 84 80 87 86 87 87 88 90
81 77 77 76 71 69 70 73 75 75 76 77 79 80 81 81 82 82 80 78 78 78 78 79 82 84 86 85 83 82 83 83 83 82 82 81 80 85 84 86 85 84 82
77 76 78 76 73 71 70 72 76 76 79 80 82 83 82 80 79 78 78 78 78 77 78 79 81 86 87 83 82 82 84 85 85 84 81 80 82 84 90 88 86 81 81
79 76 76 76 74 72 70 71 76 79 81 83 84 85 79 77 78 79 80 82 80 78 74 77 78 82 86 82 85 85 85 86 86 84 78 84 83 80 76 74 75 72 70
74 73 73 75 74 72 70 72 77 80 80 83 84 83 81 81 83 84 87 87 88 87 84 86 84 83 80 87 84 86 88 88 91 93 93 88 79 76 72 70 68 68 64
72 73 71 69 70 72 69 73 76 78 81 83 85 82 83 84 87 86 87 90 91 87 87 89 90 91 82 79 80 79 82 81 86 88 87 77 68 68 67 70 71 71 67
70 69 68 70 70 72 72 75 80 81 85 85 85 84 84 87 89 89 90 90 86 84 84 89 93 95 74 68 71 76 86 85 76 68 70 70 71 69 61 61 69 66 67
61 63 64 65 70 73 75 77 80 82 83 86 87 86 86 90 91 97 98 100 98 93 91 90 88 86 73 65 65 65 65 63 62 65 63 62 62 59 66 62 72 59 58
66 66 69 72 72 78 78 81 84 84 86 85 87 85 87 91 96 100 100 95 90 92 86 89 83 75 72 64 63 60 54 56 54 54 58 67 60 56 69 55 56 62 60
72 72 76 77 78 84 83 86 89 90 85 87 89 88 91 95 98 98 96 92 87 82 80 74 73 70 67 67 65 64 54 51 53 53 54 55 56 54 59 63 64 68 66
80 79 82 87 92 90 87 92 94 90 89 89 90 93 94 92 94 92 86 82 82 80 74 70 68 66 63 67 64 66 66 61 54 53 60 64 69 53 56 63 63 69 66
77 78 84 93 94 92 87 92 90 89 91 90 92 94 93 91 89 88 88 86 88 84 76 64 59 53 52 57 70 64 60 69 59 57 61 64 56 55 58 58 62 70 59
74 74 78 85 90 88 88 83 87 87 89 90 91 93 94 93 88 85 87 86 87 80 64 55 48 47 47 53 57 64 63 62 62 63 69 61 54 61 61 61 62 59 59
69 70 72 76 80 86 85 82 88 83 89 88 91 94 93 92 91 88 86 77 70 64 56 51 44 46 48 46 56 62 64 64 63 72 65 52 49 56 59 63 64 67 68
70 72 74 76 76 81 84 88 89 88 87 92 95 96 95 96 93 95 88 80 73 68 66 57 48 39 45 48 55 64 67 72 69 72 68 65 58 56 56 62 63 69 72

GFSMW_sfc_rhum_084.txt.gz
RH
30 34 26 24 50 69 74 75 73 67 62 66 68 69 71 70 65 62 61 59 60 58 58 58 58 60 62 58 58 57 61 63 59 65 61 55 51 49 45 44 47 48 52
32 34 26 24 32 51 60 72 75 70 72 69 62 62 62 63 61 68 67 64 64 66 68 67 66 68 68 65 64 65 70 68 66 70 76 70 45 38 46 46 47 47 47
34 34 29 26 30 34 43 46 57 67 70 72 70 68 69 72 71 70 71 69 70 73 75 76 75 74 74 75 70 69 74 78 74 73 74 77 59 57 48 50 47 48 49
36 35 31 30 32 36 45 40 40 45 48 50 56 62 62 66 63 66 63 60 62 66 76 84 87 89 91 90 88 88 86 87 83 80 74 70 77 90 70 58 56 53 57
34 34 32 32 35 43 48 43 41 41 41 37 35 35 37 39 44 44 48 50 59 64 67 71 76 79 85 90 90 92 89 85 84 84 78 81 82 82 93 89 72 61 58
33 31 29 32 39 52 54 55 50 51 50 47 42 40 42 40 43 50 50 52 56 61 65 68 71 76 79 81 87 91 94 94 91 89 80 82 80 82 87 95 75 77 63
32 29 32 38 43 54 56 56 53 55 54 54 53 52 55 54 55 57 55 56 56 60 62 67 66 70 74 76 80 87 94 96 98 93 92 90 89 88 84 93 90 90 73
32 34 31 37 45 51 53 50 51 56 55 56 58 56 58 55 55 57 54 51 52 55 59 59 61 62 64 69 77 88 92 92 95 91 92 92 88 88 92 95 94 80 80
32 39 38 41 44 50 51 50 52 57 58 58 55 54 53 55 55 54 52 51 51 49 54 58 60 61 63 66 71 76 82 86 90 90 86 84 81 86 87 88 87 88 92
33 37 45 52 50 50 52 53 51 54 56 55 53 54 54 54 55 53 54 54 52 53 55 57 58 59 62 64 69 75 78 79 83 79 77 79 80 81 75 78 75 80 82
41 44 50 55 55 54 56 54 55 56 56 54 55 56 56 57 55 55 56 57 57 58 58 58 59 60 61 63 66 67 68 70 72 72 72 76 74 72 73 77 76 78 82
49 51 54 56 56 57 57 54 54 53 54 55 54 56 57 57 57 58 60 58 59 59 61 60 61 62 65 64 65 68 69 71 74 75 76 75 70 76 75 75 80 79 81
56 53 54 54 53 52 52 54 53 52 54 55 55 57 59 59 59 60 60 59 59 59 60 62 64 67 72 73 72 71 73 75 75 74 72 71 70 76 75 77 77 77 73
53 55 55 53 50 50 50 50 52 52 56 57 58 59 60 60 60 61 63 64 59 60 61 62 65 75 76 76 74 75 76 75 73 73 70 70 73 77 84 82 78 72 71
52 54 55 52 50 50 49 49 51 55 57 60 62 63 62 61 62 65 66 70 71 67 62 63 67 77 79 78 81 80 80 80 80 79 78 80 77 74 70 65 64 61 60
48 51 53 51 51 49 49 50 52 56 58 60 62 64 63 66 68 71 74 76 79 78 74 72 74 76 74 86 84 80 83 83 92 98 92 77 80 71 71 68 68 57 53
38 46 49 51 49 48 48 50 50 53 58 60 61 64 64 68 73 74 79 86 86 82 84 85 80 82 80 84 84 81 82 83 91 91 78 60 55 56 56 64 66 67 67
37 41 45 48 47 46 48 47 53 56 64 63 66 67 69 74 78 82 84 87 85 84 86 91 95 94 73 72 72 74 95 85 64 57 57 56 58 56 48 46 59 59 56
32 38 42 44 46 50 49 52 57 58 63 67 68 70 71 76 83 92 95 100 100 100 100 96 85 77 61 66 67 54 50 49 48 49 51 50 50 67 56 53 63 47 53
37 45 48 50 48 50 51 55 58 60 64 65 67 68 70 77 87 99 100 97 95 99 82 86 74 69 58 64 63 49 39 39 43 51 57 68 52 56 64 42 42 49 47
43 48 53 50 50 57 57 61 64 69 65 67 72 73 76 84 93 99 98 94 84 73 69 65 60 56 54 55 62 60 41 39 41 42 39 43 55 54 63 52 50 54 53
62 57 57 62 66 67 66 69 78 74 74 76 79 80 83 86 93 94 87 77 69 63 60 57 54 52 54 64 66 64 52 47 42 40 41 46 66 55 58 60 60 70 66
60 58 65 76 76 72 66 76 76 74 76 75 78 80 81 87 90 90 86 81 68 61 53 49 45 45 47 49 67 65 67 68 49 42 45 62 62 60 56 57 64 68 57
56 56 58 61 69 66 67 62 68 67 70 71 73 77 88 92 89 83 80 80 70 63 52 50 43 40 38 41 46 59 57 61 63 62 60 57 50 54 49 53 58 60 50
55 56 55 57 61 65 66 64 67 67 69 69 75 80 87 91 90 84 82 82 64 56 50 45 37 37 36 35 40 45 49 46 48 53 55 52 39 41 44 47 48 50 53
62 73 80 75 69 74 69 67 66 70 70 74 78 83 90 91 87 85 87 84 70 69 65 54 45 37 40 40 51 58 60 58 60 63 56 51 48 43 38 42 45 50 58

GFSMW_sfc_rhum_087.txt.gz
RH
26 30 28 24 38 57 56 60 59 62 64 67 68 77 73 73 62 55 54 52 53 53 56 57 55 55 58 57 56 58 62 65 62 70 67 63 60 53 49 46 44 48 52
23 32 29 24 24 50 60 62 62 66 66 66 64 66 76 76 71 72 65 63 61 63 62 61 60 62 65 63 62 64 69 69 67 74 81 80 56 44 44 52 49 48 52
21 26 31 29 26 36 49 59 64 65 67 68 76 85 86 85 71 68 67 65 64 67 73 75 76 78 79 76 71 72 74 79 80 77 80 79 68 64 56 57 53 51 54
26 24 30 31 31 34 46 43 53 64 72 75 80 82 80 79 75 72 67 67 62 65 71 80 84 88 91 92 91 92 93 92 92 82 77 73 70 80 77 60 63 59 58
32 28 32 34 36 44 51 43 41 46 48 53 59 65 68 60 59 49 52 51 58 60 63 66 69 73 78 87 90 92 91 90 91 90 86 83 81 77 88 84 74 68 62
30 31 31 32 33 45 52 50 44 42 42 41 39 41 43 40 45 48 46 46 50 58 61 64 67 72 74 78 81 85 89 94 95 94 90 88 86 85 87 90 85 80 78
26 30 32 31 33 49 53 54 50 51 47 46 43 43 46 46 49 54 52 50 50 57 59 64 64 66 71 74 75 77 76 87 93 94 93 87 90 87 86 89 89 91 86
26 31 34 32 35 48 56 52 48 48 49 50 51 50 51 52 52 53 52 50 51 54 56 56 59 59 61 66 72 81 88 92 96 96 94 93 92 93 91 94 92 95 91
26 30 37 38 34 44 48 47 47 51 51 51 51 49 49 51 52 52 51 51 50 48 49 54 56 57 60 63 67 74 80 87 92 92 90 90 89 88 86 88 88 92 93
25 26 33 44 37 42 45 46 46 51 51 50 47 50 50 51 52 51 52 52 50 51 53 54 55 56 58 60 64 74 76 80 85 85 86 85 82 82 80 86 82 86 87
28 28 31 44 46 45 48 49 49 51 51 50 50 51 52 53 51 52 54 55 54 55 55 55 56 56 57 57 62 65 67 69 73 73 76 76 75 77 78 80 80 82 87
39 37 37 45 50 53 55 52 52 52 51 50 50 52 54 53 53 54 55 54 55 55 58 57 57 58 61 61 61 64 66 67 71 73 74 74 72 78 77 81 83 85 88
43 42 44 48 49 52 52 52 51 49 50 51 50 52 54 53 53 54 55 55 56 56 56 59 61 63 69 69 68 67 69 71 72 73 73 72 73 79 80 83 85 85 79
41 42 46 47 46 47 48 49 50 50 52 52 52 53 54 54 54 55 56 58 56 56 57 58 61 70 72 73 72 73 74 72 72 73 71 72 76 82 90 88 84 79 83
36 43 46 45 44 46 46 46 46 49 52 54 56 57 56 55 56 59 61 63 64 63 61 60 64 74 76 75 78 78 79 81 85 82 78 79 78 74 71 72 73 71 72
32 38 44 44 45 45 45 46 48 51 52 54 57 57 57 59 62 64 67 69 74 73 71 70 72 76 72 84 82 82 87 89 93 99 94 84 79 74 70 69 70 66 68
32 32 40 44 43 43 44 45 46 48 53 54 55 58 58 62 64 67 72 79 82 81 82 82 80 81 80 82 82 81 90 90 96 94 82 63 60 58 64 63 65 66 62
30 33 32 39 42 41 42 42 46 49 57 55 56 59 60 65 69 73 77 83 85 86 90 96 97 94 77 78 80 82 98 92 72 62 59 56 55 56 51 54 70 68 65
29 28 28 32 40 42 42 44 47 50 56 58 60 60 63 68 74 83 89 100 100 100 100 100 93 84 70 68 67 56 55 53 52 53 54 53 55 66 53 66 71 58 68
32 31 34 34 39 43 44 48 51 54 57 58 61 62 64 72 79 90 100 98 99 100 94 91 76 63 57 65 62 51 45 45 54 56 60 63 56 61 58 55 56 60 59
35 36 41 43 44 46 48 55 57 62 57 60 66 67 70 79 87 99 99 97 90 85 78 70 60 56 52 57 62 57 45 45 48 50 52 57 56 54 62 53 56 63 59
54 48 52 53 54 57 57 62 70 68 66 66 70 74 75 80 88 94 90 83 78 75 67 60 57 56 53 62 64 61 55 41 49 48 45 48 62 55 57 64 58 68 67
55 54 64 74 70 65 58 68 70 67 70 71 74 75 78 81 85 91 90 83 75 72 63 55 52 53 55 57 67 68 64 58 60 50 46 49 64 63 59 58 57 63 78
53 53 57 62 67 59 59 58 63 64 67 69 70 72 79 83 86 86 85 83 78 72 60 52 50 48 49 50 55 70 70 67 70 57 68 64 61 53 56 53 62 74 69
52 51 50 53 57 57 58 57 60 61 65 64 67 72 79 84 89 87 85 83 75 69 62 53 51 49 47 45 46 53 66 62 65 61 62 67 60 58 58 59 59 66 65
54 57 59 57 58 59 61 62 66 63 62 65 74 75 82 84 88 90 92 81 78 74 68 62 51 46 42 36 45 50 52 54 51 61 58 60 59 53 47 49 54 61 63

GFSMW_sfc_rhum_090.txt.gz
RH
38 40 34 32 50 70 73 77 79 79 84 90 92 96 93 91 81 72 63 61 62 63 68 76 73 76 78 76 78 72 77 84 85 86 89 87 82 78 77 76 69 60 66
37 43 37 32 54 76 78 78 75 83 86 83 86 95 94 94 92 89 82 81 83 78 80 80 78 74 78 83 85 83 87 86 88 91 94 95 80 69 70 74 67 67 71
38 44 39 36 36 60 75 78 83 83 82 83 94 98 97 96 93 92 92 89 78 83 89 89 90 91 91 90 86 86 87 90 86 84 89 96 93 84 76 74 74 74 75
38 41 42 42 39 42 69 72 77 85 89 95 97 94 95 97 97 94 93 86 78 79 81 85 88 93 96 97 96 95 96 96 96 92 93 94 92 94 92 82 82 72 78
38 42 42 45 46 62 68 64 61 75 86 85 91 95 92 93 86 86 80 73 74 74 76 79 84 90 93 93 95 96 96 97 97 97 94 94 90 90 95 95 93 88 84
39 43 46 45 53 71 70 66 63 60 58 71 70 77 82 62 60 68 66 66 73 78 78 74 82 86 90 92 93 92 92 95 97 97 95 93 91 96 96 97 93 95 94
41 43 50 49 56 72 73 69 61 62 61 56 52 52 56 52 58 64 66 69 69 76 76 75 78 81 81 86 90 93 92 89 92 96 94 96 96 95 95 96 96 97 95
38 44 48 48 55 70 68 67 68 66 63 64 66 66 68 71 71 66 68 66 69 73 67 69 72 72 74 78 82 89 91 96 97 96 98 98 96 96 96 96 96 99 97
36 61 50 51 59 64 62 62 60 63 64 67 65 65 67 65 70 66 64 64 65 54 62 65 68 70 72 74 78 87 92 93 96 96 95 94 92 92 94 96 96 95 97
37 41 46 55 56 60 60 60 62 66 65 62 62 60 62 64 64 64 66 66 63 64 66 66 68 69 70 72 78 89 82 88 92 92 92 91 90 90 91 93 94 95 96
40 40 46 52 57 66 63 58 62 64 64 60 62 64 65 64 64 68 68 66 66 67 68 68 68 70 71 72 76 83 82 83 84 83 85 86 85 89 87 88 88 91 94
53 49 54 63 66 73 73 68 70 66 63 60 60 64 66 65 68 68 68 67 70 70 72 72 72 73 76 79 82 82 81 85 89 88 89 87 84 92 90 95 93 94 94
55 57 62 68 71 75 74 73 67 65 64 64 68 68 68 67 67 68 66 65 68 69 71 72 74 80 84 85 87 87 87 88 88 87 86 82 90 93 94 94 94 93 90
52 57 64 68 68 70 73 72 68 66 68 66 66 69 70 69 70 68 68 68 68 71 72 73 80 84 86 84 81 79 81 80 81 82 82 84 88 94 94 93 91 89 93
40 56 63 67 68 69 68 67 68 68 68 70 72 72 68 68 70 73 74 76 78 77 74 72 82 85 80 76 83 84 86 89 90 89 84 89 84 75 76 85 84 81 86
38 41 57 61 63 68 66 63 66 69 70 73 76 73 72 75 77 79 82 84 88 88 86 84 81 83 72 84 82 86 92 93 95 98 94 90 84 75 71 69 67 69 78
39 40 49 60 62 63 62 67 68 68 71 74 73 73 74 78 83 85 88 88 92 91 91 87 85 88 88 83 83 84 94 96 98 94 85 78 65 71 74 66 66 60 60
40 41 47 57 60 60 61 61 65 67 75 75 75 76 77 81 86 88 89 90 94 94 95 97 97 96 86 82 85 87 97 93 86 80 72 68 67 61 59 71 78 84 87
43 42 44 46 59 61 61 59 66 70 75 77 78 77 79 86 90 91 94 100 100 100 100 100 97 91 86 75 77 76 79 70 68 65 63 65 74 54 55 74 78 84 84
57 48 51 47 61 63 59 63 71 74 78 76 78 78 80 88 92 94 100 99 100 100 98 96 91 81 83 68 61 54 57 61 65 64 69 62 73 67 52 72 72 73 75
64 58 60 63 61 67 66 72 76 79 76 76 80 80 86 91 95 99 100 99 97 94 93 90 82 78 74 73 64 55 51 53 58 67 75 79 57 57 60 53 68 68 80
67 66 73 82 80 75 73 78 83 82 82 84 84 88 92 92 95 98 97 93 86 86 83 78 80 73 66 63 65 62 54 46 56 56 54 57 59 57 59 62 62 64 66
68 78 88 89 88 80 80 88 89 84 85 88 91 92 88 88 93 98 96 90 83 81 79 72 74 74 69 72 66 65 59 54 59 56 53 59 63 65 60 61 56 65 88
70 76 84 89 88 80 78 85 84 83 86 91 92 93 87 91 92 93 90 88 83 80 77 66 67 68 69 68 77 82 82 71 68 55 67 64 73 68 74 66 66 83 90
67 67 73 78 80 78 77 80 79 81 85 85 92 92 86 88 96 93 90 88 78 75 73 68 65 66 65 61 61 74 83 87 80 80 77 80 78 76 72 72 71 79 86
69 74 75 76 77 77 79 78 75 71 74 77 86 89 88 92 94 96 94 83 81 80 77 69 66 61 53 51 51 54 60 67 65 74 73 79 81 74 65 70 73 74 76

GFSMW_sfc_rhum_093.txt.gz
RH
49 46 43 44 66 79 86 87 87 88 88 92 83 97 86 90 82 74 68 63 65 68 74 81 79 78 79 78 73 80 76 81 83 92 89 92 87 87 88 86 82 69 70
51 51 41 40 56 77 87 84 86 87 88 86 89 94 92 95 96 96 93 92 91 88 80 80 83 83 82 80 84 83 85 84 86 89 94 93 85 78 78 82 74 80 75
46 54 47 42 58 84 89 87 83 85 84 86 97 98 98 96 96 96 96 96 93 96 96 95 92 92 91 91 90 90 90 92 89 86 88 93 96 93 82 83 80 78 82
49 48 45 43 49 77 86 88 91 88 89 94 96 95 94 93 96 96 96 95 88 88 89 90 92 94 95 96 97 97 97 97 96 90 92 89 89 94 92 83 86 83 82
40 50 44 40 43 56 85 87 88 94 97 96 93 96 95 95 96 98 94 87 83 78 79 81 83 92 95 94 93 96 96 98 97 97 94 94 97 96 96 94 91 89 92
41 45 48 48 52 77 76 71 76 85 89 94 96 96 95 91 89 94 92 84 83 79 77 79 84 89 92 93 95 94 94 95 94 96 98 97 95 96 94 96 95 95 97
45 52 59 55 64 74 75 72 72 72 71 83 88 83 85 79 77 79 77 74 82 84 80 80 81 82 81 84 91 94 95 98 97 95 97 97 97 95 94 94 96 97 96
44 54 53 52 63 70 77 72 71 70 64 65 69 82 70 72 77 75 68 72 78 75 71 73 73 73 74 78 83 92 95 95 97 96 98 98 98 97 96 96 96 99 99
43 57 62 59 65 73 76 74 74 74 74 76 79 80 81 73 74 74 71 69 69 61 65 67 71 74 75 76 80 88 94 96 96 96 96 96 93 94 95 96 96 94 98
40 51 58 64 72 76 78 72 72 74 77 74 67 68 74 72 70 71 72 68 67 65 66 69 70 72 73 74 79 88 93 94 96 95 95 94 92 94 93 94 94 95 93
50 49 52 62 70 79 79 74 73 70 71 64 64 68 68 69 72 71 68 67 67 67 68 72 71 73 75 77 80 86 88 90 93 86 90 92 88 93 94 93 91 93 95
56 56 62 71 78 81 80 78 79 68 66 67 69 74 66 72 69 67 68 68 70 72 72 74 76 77 82 88 89 88 87 88 92 91 88 85 84 89 89 91 91 92 93
61 61 73 76 81 84 85 85 83 76 73 64 66 73 75 73 76 69 69 68 69 70 70 72 78 82 86 89 90 90 90 91 91 90 91 91 92 94 95 95 96 95 94
60 65 70 77 82 84 84 86 84 80 76 75 73 74 74 71 71 71 71 70 72 73 74 79 83 85 88 88 87 88 90 89 86 85 84 86 89 94 95 95 94 93 96
62 64 67 74 78 83 83 81 77 77 75 77 78 78 75 73 74 75 77 78 79 81 77 81 85 89 86 79 84 84 86 88 90 89 84 87 85 80 87 89 89 91 94
42 56 64 69 73 81 82 77 78 78 75 77 79 78 77 78 82 85 88 89 91 90 88 88 88 88 73 83 82 86 93 92 94 98 96 89 84 78 72 69 67 77 88
43 43 56 65 66 72 71 75 77 78 79 80 80 79 79 83 87 89 93 94 94 92 93 92 90 89 89 84 84 85 94 97 98 97 90 78 70 74 80 67 65 64 61
44 44 47 65 66 66 66 70 74 74 80 83 83 82 83 87 92 93 94 95 96 95 96 95 97 96 88 84 86 87 99 97 87 76 68 73 68 68 69 78 86 88 84
58 56 51 56 69 65 63 67 73 76 80 82 84 84 84 91 93 94 95 98 100 100 100 100 98 93 88 80 83 84 80 76 78 72 71 70 69 57 61 81 87 85 84
68 66 63 55 73 70 64 68 73 77 79 84 85 84 86 90 93 94 98 100 100 100 99 98 94 85 83 77 76 71 67 67 68 70 71 66 75 55 57 74 75 78 78
70 69 72 74 69 75 64 70 79 80 80 83 85 86 90 93 94 99 99 99 98 97 95 93 88 81 77 82 64 56 54 62 69 74 77 77 64 65 53 59 69 68 71
74 85 89 91 90 82 70 80 82 87 85 87 88 90 93 92 96 98 96 96 94 93 92 91 86 80 80 72 68 63 56 52 59 61 64 73 60 60 61 63 64 63 70
81 87 90 89 89 85 82 86 90 88 90 90 92 94 96 97 97 98 99 97 90 88 87 84 80 77 74 76 68 66 61 51 57 58 55 58 60 61 61 64 62 65 78
77 85 88 90 89 88 84 88 88 88 88 92 94 96 96 97 94 94 94 93 90 87 85 82 77 75 77 77 77 84 77 62 63 64 65 62 71 69 76 71 71 80 91
73 78 86 88 87 87 90 90 89 88 92 94 96 96 93 94 98 95 92 92 84 80 82 79 71 70 74 68 67 76 86 90 83 77 74 76 79 80 75 76 71 81 89
70 78 84 85 85 86 88 88 88 89 91 88 89 90 92 94 96 97 96 86 84 80 81 76 69 64 61 57 60 61 65 71 76 86 79 80 83 80 72 68 70 73 73

GFSMW_sfc_rhum_096.txt.gz
RH
54 55 65 82 93 95 96 89 89 85 84 91 90 95 97 92 85 77 70 68 69 71 80 85 84 80 78 74 75 79 80 83 85 89 86 82 79 90 92 94 94 82 80
50 54 52 65 85 88 90 89 89 93 90 90 88 93 96 95 92 92 90 84 81 83 82 87 88 86 88 86 90 87 88 87 88 88 91 91 84 83 85 87 85 86 72
47 55 55 49 61 90 93 91 90 92 86 90 97 98 97 97 98 98 98 98 97 97 95 95 97 96 96 94 93 92 92 92 90 87 85 90 96 95 87 88 83 83 82
50 52 53 51 48 81 91 88 89 91 90 94 96 93 90 92 95 94 96 98 96 96 97 96 94 96 98 97 97 97 97 97 98 92 86 84 88 94 88 84 91 87 77
50 51 55 46 45 60 90 93 94 94 95 96 94 96 97 96 96 98 97 97 93 92 92 90 93 95 95 96 96 95 97 98 98 97 92 89 92 94 94 96 97 94 92
49 52 52 48 48 58 84 89 94 96 97 98 98 97 95 95 97 99 98 96 90 85 83 82 87 90 91 93 94 94 94 95 96 96 97 98 97 96 99 99 95 95 97
48 51 59 59 57 68 80 81 90 93 96 98 97 98 98 96 96 97 97 94 91 88 81 82 83 86 86 89 91 94 95 96 98 96 96 97 98 97 95 95 95 98 96
51 54 59 60 58 70 78 75 81 83 80 87 92 89 95 96 96 94 90 92 89 83 81 82 81 76 77 79 82 90 96 97 98 97 96 98 98 98 98 97 97 99 99
52 52 65 62 61 70 74 73 74 75 73 73 84 90 92 93 93 89 85 86 81 74 71 71 76 75 77 78 81 86 90 97 96 96 96 97 96 96 97 97 96 97 98
52 69 71 67 72 76 81 79 76 76 79 85 85 83 82 81 83 76 75 73 72 68 70 72 72 73 73 76 78 86 91 97 96 97 96 96 94 94 95 95 96 96 95
53 55 68 71 74 84 84 81 81 81 83 78 74 76 71 70 72 75 73 69 71 74 70 70 71 72 74 76 80 85 90 94 94 93 94 96 93 96 94 93 93 95 96
58 57 66 73 82 85 86 82 86 84 78 68 68 75 69 68 66 73 71 67 68 68 71 71 72 75 78 81 83 86 88 90 92 92 91 91 89 93 90 93 93 95 94
64 66 72 72 77 85 87 87 89 87 81 79 81 81 83 77 75 74 72 70 70 71 71 73 79 85 85 86 89 89 90 91 92 92 92 92 90 91 92 94 95 95 92
60 65 73 80 83 86 88 90 90 86 83 84 85 88 89 86 83 79 77 75 73 76 81 79 86 85 89 90 90 91 91 91 90 90 88 87 89 91 95 96 95 94 96
64 66 66 73 86 88 88 89 90 90 86 87 89 90 85 78 79 77 77 74 75 76 78 85 87 90 88 84 91 91 91 91 90 88 84 87 88 86 87 92 94 95 96
53 62 64 69 76 86 86 87 88 88 85 87 87 83 82 84 84 86 87 89 89 87 87 88 89 91 80 77 80 84 93 92 93 97 96 91 87 80 74 70 71 85 94
47 48 58 66 74 79 80 84 84 85 86 86 86 84 84 86 90 92 93 94 94 93 92 92 92 92 91 81 82 84 95 97 98 99 94 80 74 77 78 70 73 69 68
47 49 52 54 70 72 78 82 82 80 84 87 86 86 88 90 93 94 94 95 96 95 95 94 96 95 88 84 85 86 100 100 93 85 80 72 66 68 74 77 84 87 80
60 62 62 59 60 74 73 78 81 81 83 87 87 89 89 93 94 95 96 98 100 100 100 100 99 95 91 85 83 88 89 86 82 74 68 67 68 62 64 83 88 90 86
73 72 70 69 64 76 75 76 81 81 82 85 87 88 89 92 94 95 97 100 100 100 99 98 97 89 87 82 78 82 73 72 72 75 75 68 69 58 61 82 81 81 81
74 78 86 86 82 83 75 78 85 82 81 87 88 89 91 92 93 99 100 99 97 98 99 96 91 89 83 81 78 71 67 67 69 72 76 78 69 64 55 67 77 72 72
81 88 90 91 91 87 77 84 85 88 89 88 89 91 94 92 96 98 98 96 93 96 97 94 92 88 77 78 72 64 60 57 68 68 72 76 68 64 62 62 62 59 68
86 89 90 89 92 88 86 90 92 89 90 91 92 93 95 96 97 98 98 98 96 94 93 93 93 88 79 76 71 70 67 60 64 59 59 63 67 63 65 62 63 63 78
82 88 88 89 92 91 87 87 82 88 88 92 94 96 97 98 98 97 95 96 95 93 90 90 89 84 78 75 75 79 83 68 62 65 78 68 70 72 73 70 70 84 79
77 85 89 91 92 92 92 91 90 89 92 94 96 97 96 97 98 95 93 93 86 85 88 87 85 83 80 71 69 73 89 88 75 79 81 78 80 84 81 83 80 80 88
75 81 87 86 88 90 91 91 90 90 93 95 96 93 94 96 96 97 97 87 86 84 83 81 81 74 71 64 64 66 66 74 77 84 78 75 78 80 80 75 77 76 78

GFSMW_sfc_rhum_099.txt.gz
RH
62 66 83 95 96 95 94 96 97 93 94 97 96 98 94 96 91 84 68 66 67 71 77 85 85 87 86 80 78 79 79 84 85 89 88 94 84 86 86 91 96 89 88
55 60 61 76 94 96 96 95 92 94 88 90 93 95 97 97 94 93 87 81 80 81 81 85 90 90 90 86 88 92 94 93 94 92 90 92 87 87 89 93 89 89 84
51 50 62 60 81 94 96 94 90 92 89 93 97 98 98 99 99 97 97 94 87 91 93 95 97 97 96 96 95 94 95 97 94 92 85 93 95 95 86 89 84 79 89
56 49 55 63 62 82 93 95 93 93 91 96 96 94 88 94 90 97 98 98 96 97 97 96 97 97 98 97 96 97 97 97 98 94 92 88 83 92 91 92 93 82 81
55 53 51 56 55 59 93 95 95 96 97 98 97 98 96 96 97 98 98 99 99 98 99 98 98 98 98 97 96 98 99 99 99 98 96 92 93 95 98 96 98 90 88
52 53 53 57 61 59 88 94 96 96 97 99 98 98 98 98 98 99 99 100 99 99 98 96 96 95 94 96 96 96 95 96 96 97 97 98 95 96 97 100 97 94 95
44 54 55 61 60 59 69 89 94 96 98 99 99 99 99 97 96 98 99 99 96 98 96 91 88 86 87 89 90 94 95 96 97 96 97 97 98 98 97 97 97 98 97
53 56 55 60 62 60 66 82 90 94 97 99 98 93 96 97 98 98 99 98 97 92 86 86 85 77 77 79 84 90 94 97 98 98 98 98 98 98 99 98 97 99 99
51 53 57 60 63 67 72 81 89 90 89 88 93 92 96 96 97 96 96 97 96 92 90 86 80 78 76 77 78 83 88 93 97 97 96 98 97 97 97 99 99 98 98
57 70 69 69 70 74 83 84 83 83 81 81 88 90 94 93 93 94 93 92 87 83 78 76 76 73 76 78 78 85 85 94 98 97 96 96 97 96 96 97 98 98 98
52 65 76 78 81 86 85 83 83 83 87 88 89 90 88 86 83 82 78 75 74 72 79 78 76 76 77 79 79 83 83 91 95 95 95 96 96 97 96 96 95 97 98
56 60 72 80 83 83 85 84 87 88 89 86 86 86 83 81 79 74 70 68 71 73 77 77 78 79 79 82 80 82 90 91 92 93 94 94 92 94 94 96 95 97 96
69 65 70 71 77 84 87 88 89 90 88 84 85 84 84 83 83 81 80 72 73 73 70 75 78 83 86 89 90 91 92 92 93 93 94 93 92 92 94 94 96 96 94
61 66 70 75 80 82 87 88 90 91 89 87 88 88 88 86 84 80 81 84 83 75 74 78 83 85 88 89 91 91 93 93 92 92 92 91 92 92 93 95 96 94 96
59 63 64 66 79 84 88 90 90 92 90 89 90 90 90 88 88 87 86 81 82 83 83 86 86 90 86 84 90 92 93 94 92 91 84 87 88 86 87 90 94 96 97
46 51 63 68 70 82 87 90 92 92 90 91 91 91 91 90 89 87 88 89 90 90 89 90 89 91 83 74 78 82 94 94 94 96 94 92 87 84 80 79 79 87 96
48 48 51 64 71 76 80 89 92 92 92 91 91 91 90 90 91 91 92 93 93 92 92 92 92 92 91 79 80 81 95 98 98 98 95 82 78 79 78 80 78 73 73
50 50 54 57 59 75 81 87 91 92 92 92 91 90 89 91 93 94 94 94 95 94 95 94 95 94 90 81 82 88 100 100 94 91 86 78 72 73 68 72 80 83 76
67 67 70 70 68 66 80 90 91 92 91 90 88 89 89 92 94 95 96 98 100 100 99 99 99 96 94 84 85 89 91 91 89 78 70 72 67 62 64 76 87 91 89
76 77 75 72 72 69 84 91 90 89 87 84 85 88 90 91 93 95 97 100 100 100 99 99 98 92 94 81 82 86 82 81 76 68 68 69 66 60 59 85 86 90 90
78 85 89 90 86 87 86 90 91 86 82 87 90 90 92 93 93 98 99 100 99 99 98 98 97 96 88 83 82 83 75 76 75 77 79 81 71 66 57 70 81 76 79
85 90 91 91 92 92 90 92 91 90 91 90 92 94 94 92 94 98 99 98 98 97 95 95 97 94 88 82 80 78 74 64 69 71 75 78 68 69 66 63 71 65 68
87 89 92 91 93 92 88 91 93 92 90 92 93 94 95 96 98 99 99 99 97 96 96 96 96 97 90 82 80 76 69 64 72 67 66 65 69 67 67 63 64 60 82
87 90 90 91 94 95 92 89 92 83 82 86 95 96 96 98 98 98 97 98 98 97 95 95 96 95 88 84 79 75 80 72 74 67 77 67 65 71 77 73 74 87 80
81 90 92 93 95 94 95 93 85 81 85 88 94 95 96 98 99 98 96 96 88 88 91 93 92 93 90 81 74 73 76 87 79 81 88 84 82 87 88 87 83 84 89
79 85 90 88 91 92 94 93 91 86 87 92 97 98 98 98 97 98 98 87 86 85 85 83 87 85 79 75 73 72 71 69 75 87 82 78 82 84 86 83 82 83 81

GFSMW_sfc_rhum_102.txt.gz
RH
69 84 96 98 98 97 98 95 93 90 95 99 99 97 94 95 92 83 78 78 77 78 82 86 88 91 86 83 86 88 87 92 92 94 94 94 94 92 90 94 96 92 94
55 55 74 95 98 96 96 97 89 86 87 93 95 95 92 96 91 90 87 85 80 84 79 79 82 88 92 90 89 90 95 96 96 96 95 94 90 91 90 94 88 93 90
56 54 56 68 92 97 98 97 96 95 94 94 97 99 99 99 98 97 96 93 86 84 85 85 89 92 95 96 95 95 96 97 96 96 88 95 95 95 94 90 84 84 89
61 58 52 59 65 84 95 95 95 96 96 98 97 97 96 93 97 98 98 97 94 94 94 95 96 98 99 99 98 98 97 98 93 96 97 93 90 94 94 95 93 81 82
59 57 56 52 58 59 87 96 96 97 96 98 96 98 97 96 98 98 98 98 99 98 99 99 99 99 99 98 97 96 98 99 99 99 98 94 95 95 97 97 99 89 88
56 56 55 55 58 64 78 96 97 98 98 99 98 97 97 97 99 99 100 100 99 99 98 98 98 98 98 99 99 97 95 96 97 97 97 98 98 97 97 99 98 97 97
49 56 58 60 58 60 68 92 96 97 98 99 99 98 98 98 97 97 99 99 99 98 97 97 99 99 98 97 94 93 94 96 97 97 97 97 98 98 98 99 98 98 98
45 48 54 55 59 60 64 75 89 94 98 99 99 99 98 99 98 97 99 99 98 97 94 95 91 90 85 83 84 88 91 94 98 97 97 98 98 98 98 98 97 96 99
54 56 58 59 60 62 64 71 83 91 97 99 99 96 97 98 98 98 98 98 97 93 94 92 91 81 78 77 79 80 82 89 94 97 97 98 97 97 98 98 99 99 92
62 69 68 62 73 75 77 83 86 90 92 92 95 95 96 96 97 98 99 98 96 95 93 92 86 74 77 80 82 86 87 90 95 98 97 96 97 97 97 98 98 99 99
56 68 74 79 83 86 87 87 88 88 88 88 91 92 95 95 96 96 96 95 91 88 89 85 81 80 82 84 85 85 87 90 92 94 96 95 95 98 97 97 97 98 99
59 67 77 84 84 86 88 88 88 88 89 90 90 91 92 92 91 88 83 79 79 77 78 74 75 79 84 88 89 89 91 91 92 93 94 94 95 94 95 96 96 97 97
65 67 68 73 82 84 86 87 89 89 91 91 91 91 90 89 88 86 84 82 82 80 79 80 82 81 83 87 90 87 92 92 93 94 94 94 94 94 95 94 96 97 96
59 60 63 71 77 80 84 88 90 91 91 91 91 91 90 89 88 87 85 84 83 82 83 83 86 82 84 87 89 92 92 93 92 92 92 92 93 94 94 93 92 94 97
56 62 60 61 70 79 82 87 88 92 91 91 91 90 91 90 89 90 91 90 86 84 87 90 91 91 89 85 91 91 92 94 93 92 90 90 89 85 87 90 93 94 96
51 48 51 65 68 74 81 87 90 92 92 92 91 91 92 92 92 92 91 89 90 91 91 91 91 92 84 75 78 84 94 95 95 95 93 90 84 85 82 80 81 88 95
52 50 50 51 62 70 77 84 90 92 93 92 92 93 93 93 93 92 92 93 93 92 93 93 92 92 90 78 79 82 95 97 98 97 96 84 78 78 83 78 79 78 76
56 53 55 60 61 66 77 84 90 93 94 93 93 93 93 93 94 93 93 94 95 94 95 94 96 94 90 79 81 90 99 99 94 92 90 83 75 75 69 72 80 80 78
66 69 76 78 77 74 72 87 92 94 94 94 93 93 92 94 94 94 95 97 100 100 100 98 99 94 93 82 80 90 90 91 92 82 75 75 73 65 68 71 79 81 84
78 80 80 82 83 80 80 88 92 94 94 93 93 92 92 91 93 94 98 100 100 100 99 100 99 93 95 83 82 85 88 88 84 75 69 76 69 61 61 75 80 87 90
80 87 90 92 89 90 91 92 93 93 89 92 92 93 93 92 93 98 99 99 99 98 98 98 98 97 95 92 79 81 82 80 78 75 75 77 72 68 62 78 88 80 85
83 87 92 92 93 92 94 93 94 92 92 92 92 93 94 93 94 98 98 99 98 99 98 97 95 96 95 86 84 80 84 73 72 69 73 75 66 70 68 64 72 68 69
88 90 92 92 93 94 92 92 91 93 93 93 94 95 95 96 98 98 99 99 98 98 98 98 98 97 96 90 81 81 79 77 78 67 65 64 65 65 72 65 64 61 84
88 92 91 93 95 96 95 92 93 92 92 91 91 96 96 99 99 98 97 98 99 99 98 98 98 97 94 91 87 82 85 79 79 76 76 65 65 69 79 76 78 89 87
84 90 92 95 96 95 95 94 92 90 90 87 91 93 95 97 97 96 96 97 94 88 94 96 97 97 96 89 81 80 79 84 82 80 83 80 84 85 91 92 87 88 91
84 83 89 90 92 94 95 94 90 83 85 91 92 93 95 94 95 98 99 87 85 84 84 84 89 90 83 79 76 77 77 72 70 91 88 90 89 91 90 88 88 89 84

GFSMW_sfc_rhum_105.txt.gz
RH
84 96 92 81 85 80 77 76 81 94 96 98 98 96 87 88 78 76 74 76 74 74 76 74 73 70 68 66 65 67 71 75 76 82 74 72 69 67 62 63 64 68 72
64 79 97 95 85 83 83 89 81 92 94 95 98 96 96 96 91 84 78 80 77 77 74 74 75 79 81 72 74 76 80 83 90 91 87 74 64 64 64 63 65 67 68
48 53 72 94 94 88 87 91 86 90 89 88 93 95 98 98 98 95 96 93 82 82 80 81 82 85 87 87 82 84 88 94 96 92 81 83 72 71 69 68 63 66 68
52 52 61 58 74 94 93 92 87 86 91 88 90 90 94 93 94 93 96 96 95 90 84 84 85 85 88 95 96 98 96 96 95 92 94 88 78 80 76 71 70 65 67
53 49 50 51 55 71 91 94 95 86 88 89 93 93 91 84 86 89 94 98 93 90 89 86 88 93 97 97 98 99 98 96 93 95 96 83 83 80 86 85 86 76 71
53 51 49 51 52 63 69 85 94 96 94 96 95 95 93 94 98 97 99 98 99 98 97 98 98 98 98 97 97 97 99 98 94 91 85 84 79 80 81 88 84 84 84
47 50 49 51 53 59 65 82 88 92 96 97 96 95 95 96 94 97 98 98 98 98 98 98 98 98 95 94 94 94 97 94 89 89 84 81 80 81 82 84 79 91 87
46 46 48 51 51 55 57 72 87 88 93 96 97 95 93 94 94 94 96 97 96 95 94 94 93 92 87 84 84 86 89 88 90 88 90 86 85 87 79 78 80 83 90
49 46 46 48 49 51 53 57 71 83 92 96 97 96 96 95 93 92 94 95 91 90 89 85 82 76 72 76 76 79 81 75 82 86 88 86 86 86 86 86 91 86 83
58 64 56 54 56 57 56 62 67 78 87 95 91 90 90 90 90 92 94 93 90 85 82 78 72 68 66 68 68 75 72 70 77 84 84 84 82 81 82 84 84 90 89
56 70 71 69 66 69 70 69 73 78 83 85 87 85 87 88 89 91 91 89 86 83 81 73 68 65 65 64 63 65 68 68 72 77 80 83 83 81 82 85 84 87 94
54 63 73 74 75 74 75 73 76 76 77 76 77 82 85 85 87 87 84 80 80 75 73 67 64 64 65 64 63 66 69 69 71 75 77 80 81 82 81 82 84 88 89
57 56 59 65 73 75 76 77 78 77 78 77 78 80 81 80 80 78 74 71 69 66 64 65 67 68 71 70 70 70 72 76 77 80 80 81 81 82 81 82 82 84 83
56 54 54 59 66 71 75 75 77 78 80 79 78 78 79 77 76 73 71 69 67 68 68 68 70 72 71 72 72 74 78 76 78 81 81 79 80 81 85 85 83 84 88
47 47 52 55 58 65 73 78 79 81 80 80 79 79 77 75 74 73 72 71 69 70 72 73 74 74 74 74 77 78 78 79 82 82 77 80 83 84 82 80 80 84 87
52 49 48 48 55 57 64 74 80 83 81 82 81 80 78 77 77 78 80 77 78 78 77 76 79 81 73 80 82 83 83 85 87 88 85 81 80 80 81 78 78 83 86
54 52 49 49 51 56 62 64 74 82 84 83 82 81 80 79 80 80 79 81 81 81 81 83 82 82 79 80 81 88 85 87 90 91 90 80 74 74 76 76 78 76 77
57 55 51 56 56 56 61 68 77 84 88 86 86 85 84 85 85 83 83 84 83 84 86 90 94 92 82 80 85 96 99 91 85 83 83 80 73 71 67 66 74 76 77
62 66 69 69 68 67 65 68 76 84 88 88 87 86 85 86 86 89 90 98 100 100 100 96 93 87 83 82 82 85 79 77 81 78 74 73 72 66 68 64 71 70 77
71 72 75 76 77 77 79 74 76 84 87 86 87 86 85 85 88 90 95 98 99 100 98 98 95 86 81 81 80 83 82 77 79 74 68 74 74 63 64 71 64 68 68
74 80 82 83 83 84 85 86 84 84 82 88 89 88 87 89 88 96 97 98 97 96 96 95 92 86 85 83 80 79 84 78 76 73 71 67 68 70 64 72 67 63 65
80 82 85 87 87 88 89 91 91 86 88 88 89 90 89 86 90 96 96 96 95 95 95 94 90 86 83 86 84 80 80 79 73 68 58 56 64 65 70 65 74 68 70
82 86 89 90 90 91 91 92 87 88 91 90 90 89 88 88 91 96 96 96 95 92 89 88 90 88 86 84 83 81 80 82 72 61 58 62 64 64 66 70 66 64 72
84 88 88 91 91 90 92 92 88 88 88 88 89 90 90 94 95 94 94 94 91 89 88 90 92 89 88 86 82 79 80 82 84 79 76 67 64 68 71 72 70 72 71
83 86 89 92 94 91 91 90 88 86 89 89 89 89 89 95 95 90 90 87 83 83 87 89 92 93 89 84 80 80 79 82 83 78 73 70 69 68 70 76 73 74 77
78 83 86 89 92 92 94 89 84 82 84 89 90 92 93 92 92 92 96 88 87 87 84 84 87 88 83 79 77 78 79 79 74 82 76 73 70 68 64 72 76 76 77

GFSMW_sfc_rhum_108.txt.gz
RH
86 90 90 92 91 90 82 85 81 76 84 91 93 89 74 65 62 56 54 54 59 58 62 60 58 58 57 55 54 52 55 59 60 72 66 61 56 54 51 48 45 50 54
85 90 92 91 92 86 80 73 70 79 86 84 89 84 82 80 74 67 61 60 60 63 65 64 60 60 57 56 58 58 62 64 77 74 81 68 50 52 50 48 48 50 55
70 75 72 86 92 90 76 73 74 80 82 84 88 90 91 87 88 84 80 77 70 74 76 71 66 67 75 79 74 70 71 82 84 91 88 77 62 54 51 54 49 51 52
51 57 72 81 85 92 81 80 84 83 88 92 91 82 91 93 85 85 81 79 81 84 92 94 93 83 87 86 90 91 89 88 96 92 82 74 72 66 63 59 58 54 54
49 49 47 58 81 72 87 79 80 87 94 83 86 93 91 90 94 93 86 77 81 92 92 92 89 88 89 88 93 96 98 93 86 90 87 84 74 73 75 65 54 61 57
43 43 49 52 56 80 82 83 79 79 92 88 84 86 92 92 95 94 95 90 88 91 92 91 92 90 91 93 94 92 94 97 88 88 91 80 74 60 61 63 60 59 60
38 39 40 43 43 55 62 73 76 79 74 83 84 83 89 92 93 86 92 87 91 98 97 97 97 94 91 93 94 95 94 95 96 93 81 72 69 66 65 68 71 66 62
34 35 36 38 40 44 47 49 55 65 76 84 86 83 81 88 87 84 88 89 93 95 97 97 94 93 94 96 93 94 90 86 86 82 79 76 73 76 72 70 70 70 63
34 35 35 35 37 37 40 42 48 52 64 82 87 90 90 85 88 88 87 92 90 91 92 92 91 88 86 85 84 75 74 78 88 80 73 68 67 70 69 70 77 75 68
42 42 43 34 32 33 37 41 42 52 58 72 80 83 82 81 84 78 84 90 89 86 88 85 80 73 68 63 61 61 60 58 64 67 67 67 67 67 66 68 65 74 80
46 49 49 47 43 40 43 42 44 52 61 76 81 81 80 80 79 79 86 86 84 82 79 72 65 60 55 52 52 55 54 53 58 62 61 64 64 62 63 66 68 73 81
47 49 53 52 51 49 48 49 50 52 58 67 73 75 73 73 73 77 82 80 80 75 69 63 57 56 53 49 49 52 52 52 56 57 59 60 65 68 66 65 69 74 78
40 39 44 49 51 53 54 54 55 57 62 63 63 67 70 71 72 75 76 74 72 68 64 62 62 56 55 52 51 51 53 55 57 60 62 66 67 68 66 70 72 71 68
39 38 39 42 47 51 52 54 57 56 60 59 60 62 65 66 68 69 70 69 65 63 62 59 57 57 56 56 56 56 56 58 60 65 65 64 66 68 73 73 72 68 69
37 35 37 37 40 43 49 55 56 58 57 58 59 61 61 61 63 64 63 60 57 54 54 56 58 58 59 59 60 61 62 63 65 70 65 69 76 82 76 67 67 68 72
39 38 36 35 41 41 45 54 57 60 59 59 60 62 61 62 63 61 60 58 59 59 59 60 62 66 58 82 78 69 68 69 70 74 72 69 78 74 79 79 77 79 77
44 42 38 36 36 39 45 46 51 58 61 60 61 63 61 61 62 62 62 66 67 66 66 66 65 65 66 82 82 80 68 70 73 76 76 70 65 70 70 76 74 74 75
44 42 40 45 46 44 42 48 55 57 65 62 63 63 63 63 63 64 66 67 67 68 69 72 79 75 69 82 83 95 92 77 71 67 68 68 67 68 66 62 69 69 69
47 49 49 50 50 50 49 49 49 55 62 66 66 64 63 64 65 70 74 81 92 96 94 80 81 75 69 84 88 80 66 63 66 66 68 69 68 66 72 63 64 55 67
51 54 54 53 52 55 57 57 50 51 56 59 67 67 65 66 69 75 82 80 91 99 87 84 72 73 64 84 82 78 64 62 67 66 66 76 69 68 70 66 58 55 54
63 59 57 58 60 61 63 62 60 60 55 63 71 72 72 75 75 92 86 92 92 90 84 78 69 65 64 68 83 80 71 69 67 68 65 66 70 73 66 62 58 57 50
71 69 67 69 70 72 72 70 72 69 66 66 71 75 75 76 78 81 86 82 80 80 81 78 73 68 67 78 83 81 81 76 69 65 58 56 65 66 70 65 67 68 65
65 66 72 77 76 74 75 76 72 70 71 69 72 73 71 69 73 85 90 87 82 81 76 69 72 74 73 67 84 83 81 84 74 60 52 51 59 60 60 71 71 68 63
66 68 68 69 71 72 74 73 71 69 70 69 70 70 71 70 72 79 88 84 85 72 68 71 76 73 75 74 71 73 74 79 85 77 72 64 60 58 56 65 69 63 59
67 68 70 74 76 71 72 71 72 69 70 70 72 73 73 79 85 80 82 82 76 68 68 73 78 86 82 78 74 72 71 71 79 80 78 70 64 60 55 59 59 62 65
71 72 75 79 73 70 72 76 78 72 69 76 80 83 85 87 88 87 92 86 87 86 89 89 89 86 79 79 80 81 80 78 78 77 74 72 68 64 54 52 55 60 65

GFSMW_sfc_rhum_111.txt.gz
RH
72 76 82 87 84 91 98 92 87 77 81 84 80 70 60 62 56 60 62 62 56 54 57 64 57 55 53 53 52 54 53 59 55 74 76 59 54 51 50 50 46 48 51
77 83 88 91 90 92 97 93 94 80 85 85 84 81 78 74 64 64 57 57 57 60 61 62 65 60 59 57 58 59 60 62 79 78 73 71 62 59 52 50 49 48 54
85 90 96 94 98 95 89 87 96 86 86 86 87 87 87 87 86 80 74 70 62 69 73 69 72 71 76 78 74 72 76 85 86 78 82 90 78 64 56 55 52 51 56
76 87 87 93 95 95 92 93 88 86 83 86 90 89 85 84 81 83 85 84 75 73 80 81 78 79 83 88 87 85 83 88 90 96 90 80 80 80 72 63 60 57 54
76 75 78 82 84 84 86 92 90 89 82 79 82 83 85 83 83 85 82 84 88 81 81 85 84 89 96 93 90 97 99 98 91 92 92 85 81 76 86 81 69 67 62
61 62 70 79 78 83 86 89 90 90 90 87 85 86 87 88 90 94 94 91 90 92 90 92 93 95 96 97 97 98 96 95 90 91 85 78 75 74 74 73 67 62 67
50 53 57 63 77 89 83 76 82 85 84 88 82 84 87 91 89 94 96 94 92 90 86 91 96 97 96 94 94 96 94 93 94 92 92 86 82 73 70 74 76 74 68
39 45 46 52 59 74 78 71 71 76 77 85 82 84 87 90 91 92 90 88 86 88 85 89 90 97 95 97 97 98 96 96 96 95 90 80 73 73 73 77 77 76 69
29 38 37 40 41 48 58 66 68 69 65 77 76 82 87 89 91 92 87 84 81 89 93 95 98 97 98 98 96 95 95 94 90 82 81 75 74 72 72 74 77 83 82
33 34 35 34 37 37 43 44 45 49 60 70 80 80 79 74 78 84 84 84 89 94 96 98 94 94 90 88 86 88 81 82 75 72 72 71 68 71 73 78 74 76 83
42 42 44 40 36 38 40 40 40 46 51 62 77 82 83 85 86 89 89 91 95 93 92 87 82 76 75 69 70 66 62 60 66 67 66 67 67 69 67 72 75 77 85
42 46 47 44 41 42 41 42 42 45 52 62 71 77 81 83 86 85 87 84 88 86 84 76 70 64 62 57 54 57 57 60 61 63 64 65 64 73 70 72 75 76 79
34 38 44 46 46 46 43 44 49 52 58 66 68 72 74 73 74 79 82 81 79 76 74 70 66 62 60 53 52 53 56 56 58 62 63 63 66 73 74 75 79 80 69
33 34 35 43 48 48 50 50 51 56 60 62 66 68 69 68 70 74 76 74 70 67 65 62 59 61 60 61 62 57 58 60 60 67 66 64 66 70 80 81 81 74 76
36 34 34 34 36 45 50 52 55 56 58 60 60 64 63 65 69 73 72 69 66 63 61 62 65 66 67 65 64 63 63 66 69 73 68 73 79 82 82 72 74 72 74
39 37 34 32 35 38 45 52 55 56 53 56 59 61 61 64 67 69 70 66 66 64 64 66 70 74 61 79 74 70 74 73 74 78 74 74 82 78 78 79 77 81 83
41 40 37 36 37 39 42 42 49 55 55 57 58 59 61 63 65 64 64 68 67 65 67 69 70 69 74 81 79 77 75 78 79 79 79 72 65 73 74 79 74 74 74
43 42 42 43 44 41 39 40 49 52 62 60 62 62 62 64 65 66 68 69 69 72 75 77 78 78 76 85 83 88 88 82 75 70 69 70 68 69 69 66 77 75 70
47 46 46 46 46 46 46 45 42 46 53 61 63 63 64 65 67 73 76 82 94 95 89 82 81 80 78 88 89 79 70 66 68 65 68 70 72 70 76 69 80 65 68
54 53 51 46 45 49 50 52 49 45 46 50 59 63 65 66 71 77 83 83 95 100 86 82 76 75 72 88 87 79 63 63 69 68 68 74 68 71 75 75 71 73 64
66 64 56 53 55 58 60 59 55 56 52 52 58 66 67 74 74 92 84 87 90 82 78 77 70 68 64 79 84 84 69 71 73 75 71 70 77 78 70 67 69 70 60
68 68 68 64 66 67 67 68 69 66 64 63 63 69 71 74 79 83 84 81 74 77 76 74 72 68 63 74 84 82 81 71 76 78 66 66 72 72 73 70 64 65 64
58 60 63 71 74 68 69 74 70 65 65 64 63 67 71 73 77 83 85 80 74 71 71 71 72 74 71 70 79 82 83 81 82 77 61 58 63 62 66 69 72 70 80
59 61 62 63 65 65 66 67 69 65 65 65 64 66 70 72 72 77 84 79 74 71 70 71 75 78 79 76 78 80 82 82 86 81 75 65 62 58 58 66 80 84 77
60 61 64 68 69 65 66 67 69 67 68 67 68 69 68 72 74 76 82 76 71 68 68 73 81 84 84 78 76 76 77 80 87 89 89 85 79 76 71 72 72 78 81
66 68 70 71 68 66 66 69 70 71 69 72 72 73 79 84 86 85 90 84 84 84 86 83 85 88 82 80 83 82 79 76 81 87 86 84 82 79 73 68 71 76 77

GFSMW_sfc_rhum_114.txt.gz
RH
80 86 90 92 94 91 94 94 95 88 77 86 88 85 83 84 82 86 76 67 65 65 70 76 69 68 72 73 66 68 69 73 78 90 88 82 76 72 71 76 64 64 66
94 90 94 95 94 92 90 96 94 82 78 77 80 82 86 86 83 83 80 78 72 72 72 77 77 73 75 73 72 73 76 80 89 91 91 87 77 76 66 69 64 70 71
91 96 97 97 97 98 97 97 98 86 82 84 88 93 92 94 92 86 86 82 75 81 79 78 81 85 87 91 88 86 80 91 93 89 89 95 91 77 76 72 72 69 76
92 93 91 99 99 99 96 97 97 99 96 88 86 89 88 92 95 95 94 91 83 84 84 85 89 95 97 97 97 95 94 94 97 97 94 94 90 89 86 81 78 74 71
89 92 87 91 96 97 94 96 96 98 99 97 94 95 95 95 95 96 96 93 91 90 91 93 94 96 98 96 98 98 97 98 98 99 97 95 95 92 96 96 92 83 80
92 85 84 94 94 94 90 97 95 92 98 98 97 92 92 95 97 96 96 97 96 97 95 96 96 96 98 98 97 96 97 98 98 98 98 92 94 95 96 97 92 88 86
85 87 85 95 96 92 89 92 90 93 96 97 95 95 91 95 95 95 96 97 97 98 97 97 98 98 97 98 98 98 98 98 97 97 95 92 92 88 84 87 91 88 88
70 77 77 89 92 88 88 91 91 82 83 91 94 95 95 97 96 94 96 95 95 95 93 92 94 95 95 96 96 97 97 98 98 98 96 96 86 81 82 86 88 92 90
56 62 64 68 77 88 91 84 83 81 86 90 92 92 90 96 94 94 95 96 94 91 94 94 97 98 97 97 98 99 99 98 98 97 94 93 91 87 89 89 90 93 95
46 50 52 54 56 61 75 92 80 80 80 82 89 87 89 89 93 94 91 95 94 92 96 99 98 99 99 99 99 99 98 97 95 95 94 87 86 87 86 92 91 93 95
58 58 56 49 47 48 60 65 77 82 81 82 84 89 90 85 95 95 85 93 92 95 98 99 99 98 98 96 96 92 91 88 82 85 85 84 82 88 90 90 89 91 94
58 62 61 55 53 49 52 53 53 60 69 94 95 95 95 96 97 97 96 97 97 97 95 92 90 89 87 79 73 71 74 78 85 78 76 76 75 83 84 87 88 90 89
47 56 62 63 66 64 57 57 58 67 84 91 95 94 95 97 96 98 96 94 94 91 88 86 84 76 76 69 70 71 71 72 73 74 74 77 80 83 88 89 91 91 83
45 47 53 66 67 68 67 68 75 76 80 83 91 89 91 93 95 96 93 90 80 78 73 70 69 66 64 66 68 70 74 76 80 77 76 76 78 83 89 89 89 86 89
49 48 48 51 57 67 70 71 74 76 77 83 85 86 82 85 90 91 83 78 74 70 67 67 68 70 70 70 74 75 76 79 82 84 79 86 85 84 85 84 90 88 89
48 47 46 48 51 56 62 69 72 71 71 74 81 82 81 83 89 90 82 76 75 72 71 72 74 79 70 80 80 81 84 83 86 88 85 87 85 83 79 80 78 86 92
54 55 55 58 59 56 55 63 70 69 70 73 74 75 78 82 85 85 83 78 75 74 77 80 80 79 83 84 82 81 86 88 90 90 90 84 78 83 91 82 77 78 75
58 59 63 62 60 58 59 57 62 71 74 75 75 75 77 81 82 82 85 85 83 81 81 84 86 88 86 85 84 85 91 90 88 86 86 85 85 83 80 81 86 84 81
70 68 63 59 60 65 65 63 60 57 69 75 79 77 77 80 82 86 89 90 97 95 92 91 93 93 94 88 87 81 82 82 83 78 82 84 85 77 73 80 86 80 77
75 77 72 65 69 68 69 70 68 65 62 64 74 79 79 81 87 90 92 95 99 99 96 94 92 88 95 91 85 77 72 81 85 83 85 75 80 74 77 83 83 84 79
70 75 78 77 80 79 80 82 83 84 81 78 72 80 83 86 89 93 95 98 99 95 95 94 92 90 93 94 86 83 75 78 87 88 87 89 77 74 75 75 78 78 72
73 73 82 85 83 83 84 87 90 85 81 81 80 81 87 89 93 95 96 97 96 95 95 94 93 88 90 89 87 84 82 75 87 91 84 82 74 78 78 75 67 65 65
72 74 80 82 84 81 83 88 88 84 83 84 85 84 89 93 94 96 96 96 94 94 93 88 85 85 81 86 87 85 83 79 89 88 75 75 74 74 73 69 69 70 88
75 71 74 82 86 84 80 83 78 78 82 87 86 84 82 86 90 90 95 92 90 88 83 79 81 84 87 90 94 91 83 82 87 82 80 65 65 64 70 69 75 92 92
69 69 77 86 85 82 82 83 82 84 85 82 78 77 78 84 87 87 88 95 88 80 78 86 91 93 93 86 87 89 94 93 93 93 90 88 89 86 78 81 85 94 93
78 75 76 81 79 78 86 86 85 87 92 90 86 84 87 89 89 91 94 87 85 83 85 84 84 90 82 83 84 85 86 86 86 96 98 96 91 88 83 78 82 83 86

GFSMW_sfc_rhum_117.txt.gz
RH
97 95 94 96 96 97 97 95 97 97 96 86 84 77 70 71 68 64 65 63 61 65 74 72 72 71 73 73 71 72 70 78 86 90 89 83 83 81 80 84 82 72 77
97 95 96 98 96 97 94 96 94 96 97 88 80 69 74 77 72 70 72 68 69 70 74 79 78 74 76 78 76 76 81 82 91 91 94 91 80 79 83 76 74 78 79
97 96 98 98 99 98 96 96 91 94 94 96 95 95 88 90 90 88 83 80 72 77 81 84 89 89 89 90 88 86 82 93 95 91 88 92 92 90 87 86 77 77 82
89 95 98 98 98 99 97 96 96 92 90 93 94 89 85 87 87 85 89 86 81 87 86 87 90 92 94 96 95 96 97 96 97 98 96 93 92 93 85 87 84 81 79
91 91 98 96 97 97 97 97 98 92 93 92 92 92 87 90 90 90 92 93 94 92 91 91 94 95 97 98 97 98 97 98 99 98 98 97 95 91 94 95 93 88 86
90 90 92 94 98 97 98 98 96 99 96 94 89 74 78 93 91 98 97 97 97 97 95 95 96 96 97 98 98 97 98 99 99 98 97 96 95 97 97 98 96 94 88
92 94 98 96 94 97 99 97 93 98 99 96 89 95 92 93 94 94 94 94 96 98 97 97 97 97 96 96 96 97 97 98 99 97 96 97 92 88 87 88 90 86 83
95 95 94 92 92 92 96 95 94 98 96 99 98 96 97 98 96 97 97 97 96 95 96 96 96 96 94 96 97 98 98 98 98 97 98 95 93 87 84 85 86 87 87
64 80 88 97 98 95 92 96 92 88 95 95 98 98 97 98 98 96 95 95 95 94 95 95 96 97 97 96 98 98 98 98 97 99 98 95 91 89 89 88 86 84 92
62 59 58 63 78 91 95 94 94 87 85 88 90 93 95 96 95 95 95 95 95 94 96 96 97 98 98 99 98 99 99 99 99 98 97 96 93 92 91 91 93 94 94
66 65 62 52 50 57 82 96 96 92 87 87 92 93 96 93 97 95 92 95 97 96 97 98 99 99 99 99 99 99 99 99 97 95 95 90 86 90 94 94 94 95 96
68 65 67 68 66 57 60 70 82 95 90 90 87 90 91 96 96 96 92 94 94 95 97 98 99 99 99 99 99 98 98 95 93 87 87 87 86 89 86 91 93 93 93
52 62 69 73 77 77 65 68 76 84 93 97 96 99 99 98 96 95 96 97 99 99 98 99 98 98 97 94 86 83 81 81 79 81 82 83 82 85 88 92 94 93 90
51 53 58 68 72 75 76 80 83 86 93 96 95 96 96 98 99 98 96 96 94 95 95 93 90 88 82 77 75 75 79 79 78 84 81 82 83 87 92 92 93 90 93
56 57 59 61 59 71 76 75 79 82 88 92 92 91 91 96 97 94 91 84 81 80 76 75 75 72 72 72 75 76 78 80 83 85 85 88 88 88 86 90 94 91 92
64 63 63 65 63 64 68 77 77 77 80 86 88 89 92 93 93 90 87 81 80 75 75 74 75 79 73 87 83 80 82 83 84 88 90 89 87 86 83 83 84 88 91
69 70 72 70 69 69 64 68 74 79 79 81 81 82 84 90 93 88 85 86 84 82 86 85 84 82 83 83 84 84 83 86 88 91 92 86 83 90 92 84 82 80 80
78 76 77 73 74 74 72 71 66 78 82 81 80 81 82 86 88 89 90 87 87 87 90 90 86 88 87 85 86 87 91 92 90 87 90 86 90 91 92 87 90 87 86
86 86 84 76 78 82 82 78 74 70 71 81 83 81 83 87 88 90 91 91 96 96 92 89 88 88 89 88 89 86 89 87 87 87 88 87 90 81 78 86 90 89 82
80 85 85 82 88 90 88 87 88 87 88 84 78 84 84 87 90 91 92 94 100 100 97 93 90 88 93 90 88 83 82 83 84 84 87 82 86 78 77 87 89 88 84
79 82 86 90 91 89 89 92 92 93 88 85 84 82 88 89 90 92 95 98 99 96 95 95 95 95 95 94 85 81 75 79 84 88 94 92 78 78 79 82 88 82 77
80 81 87 89 90 88 89 92 93 90 89 88 88 88 88 92 93 94 96 98 97 97 97 96 96 96 97 92 89 86 76 77 83 92 88 84 82 80 79 80 75 68 71
74 79 86 87 89 89 90 92 93 90 89 91 90 90 89 94 96 96 98 98 98 97 97 96 96 96 96 97 91 85 82 79 87 89 82 80 80 82 82 79 74 70 88
81 75 75 88 89 89 89 90 90 89 91 93 91 90 92 91 92 90 94 97 98 98 96 95 94 91 88 93 93 89 87 83 84 82 84 83 81 78 78 78 78 94 94
86 74 74 87 88 88 89 90 90 91 95 94 92 83 82 91 94 92 92 90 88 89 89 84 84 89 89 85 89 91 92 90 90 88 86 84 86 84 84 84 89 95 95
87 86 78 80 79 82 86 88 89 91 94 95 96 88 89 90 93 95 97 89 88 86 83 84 84 89 80 86 90 91 90 88 88 96 96 93 90 88 90 85 78 84 92

GFSMW_sfc_rhum_120.txt.gz
RH
90 90 92 95 97 98 98 98 99 98 97 93 95 94 94 88 69 68 66 65 68 69 70 69 66 66 66 74 76 77 76 82 82 88 89 86 88 83 75 83 85 78 86
97 97 97 97 95 97 98 98 96 96 94 88 89 88 94 89 70 68 66 67 66 70 66 68 71 71 76 78 78 79 83 82 93 91 93 92 82 79 92 93 86 85 88
96 97 97 96 96 97 97 96 94 94 91 80 83 85 90 92 93 83 79 77 70 77 78 80 83 83 87 87 88 86 83 93 98 94 90 95 90 94 90 90 86 87 93
94 94 96 95 96 95 96 97 90 93 92 88 82 84 86 89 89 80 81 81 76 82 86 88 85 84 91 92 93 93 94 93 99 98 98 93 88 90 91 91 89 86 87
95 93 93 94 97 97 98 97 97 94 91 92 90 88 85 83 85 90 90 82 85 83 84 90 92 88 91 94 94 96 96 96 97 97 99 98 97 94 89 88 87 83 88
94 98 96 98 98 99 99 98 98 95 96 89 92 90 91 93 85 87 91 90 90 89 89 93 93 94 96 96 96 96 96 97 96 98 96 96 97 98 98 96 95 86 87
95 98 98 98 98 99 98 97 98 98 97 96 94 95 92 94 94 88 92 93 96 95 94 94 96 96 97 97 97 97 97 97 97 97 96 90 90 92 95 96 94 84 84
97 96 98 98 97 98 99 97 98 98 97 92 97 94 93 93 89 90 96 93 93 92 96 96 96 97 97 97 97 98 98 98 98 98 97 96 97 93 89 89 89 91 86
82 97 97 99 94 95 98 97 97 99 99 96 94 96 96 93 90 90 92 98 98 98 98 98 98 98 97 96 97 98 98 99 98 98 98 98 99 97 92 91 90 87 88
63 62 69 70 94 96 97 97 97 96 98 99 94 98 98 97 97 97 98 98 97 96 97 97 96 96 96 97 97 98 98 99 98 99 99 98 98 98 96 96 91 86 81
71 67 67 64 55 59 84 97 98 97 99 96 99 98 99 98 98 98 98 98 97 98 96 96 96 96 98 99 99 99 99 99 99 99 98 98 97 96 95 94 92 95 94
62 71 72 72 74 66 66 73 98 98 95 94 95 98 98 98 98 98 98 98 96 96 96 95 96 98 99 99 98 99 99 99 99 99 99 97 93 91 90 93 94 95 96
57 59 60 69 77 78 79 83 90 98 98 94 96 97 98 98 98 98 96 96 96 96 96 97 98 98 98 98 98 98 98 98 98 98 97 88 86 89 91 94 94 95 95
66 65 64 61 65 76 78 82 82 91 97 98 97 98 99 99 99 99 99 99 99 98 98 97 98 98 98 98 97 95 94 91 89 88 89 90 87 89 93 93 95 94 96
70 72 73 72 66 64 75 82 80 82 92 95 94 97 99 99 99 99 96 95 96 98 98 98 98 98 97 96 89 86 89 89 91 87 85 88 88 90 90 93 96 94 95
77 75 74 76 75 83 74 72 84 82 85 92 94 93 96 96 96 93 90 86 81 79 81 82 84 84 78 88 86 83 84 86 86 90 90 90 89 88 86 86 86 88 93
83 83 84 83 84 83 80 79 76 85 82 82 84 87 90 95 95 93 91 89 86 81 82 83 81 80 84 88 86 85 85 86 87 89 90 85 87 91 92 85 85 84 82
88 89 91 86 87 89 86 84 78 74 85 86 83 83 85 90 92 92 91 89 88 88 90 89 86 88 85 88 87 86 90 91 87 84 84 84 93 94 94 91 91 90 89
87 90 92 88 91 92 93 91 90 89 87 87 86 88 85 87 89 91 92 93 96 96 93 92 91 91 91 88 88 85 85 88 89 91 87 88 92 88 84 90 92 91 85
85 87 88 89 91 92 92 92 94 92 92 89 88 87 90 88 88 90 92 93 94 96 98 93 90 86 90 89 89 83 82 89 93 92 90 82 83 82 82 89 91 93 87
84 86 88 91 92 91 90 92 92 94 92 90 90 89 89 92 91 91 93 94 97 95 94 93 89 88 88 90 87 83 83 86 90 91 93 94 82 81 80 81 87 87 83
84 85 87 90 91 91 90 92 93 93 93 92 92 91 91 91 95 93 94 95 97 97 96 96 97 96 96 91 89 85 79 80 86 89 86 88 85 86 84 85 80 74 74
87 83 86 87 88 90 91 92 92 93 94 93 93 92 91 93 95 95 96 98 98 98 98 98 98 97 98 98 90 85 81 80 84 84 82 82 87 85 84 83 78 73 85
86 84 83 86 88 90 90 92 93 93 94 94 94 92 89 90 92 91 93 96 95 96 96 98 98 97 97 98 97 91 88 83 83 83 86 82 86 88 89 89 86 94 89
84 87 86 87 88 89 90 90 92 93 95 95 95 90 84 92 94 94 94 94 90 86 89 90 90 94 92 87 88 92 92 89 84 86 89 90 85 88 86 84 86 96 96
87 90 89 87 86 79 82 85 90 91 92 95 94 96 94 92 91 95 95 91 91 90 91 88 87 87 82 83 89 92 90 90 85 90 83 82 79 76 75 76 82 94 93

GFSMW_sfc_rhum_123.txt.gz
RH
83 78 79 82 97 95 94 94 98 96 95 95 95 97 97 94 85 80 75 76 75 73 75 78 81 84 82 79 76 82 83 88 85 91 93 90 89 84 80 80 91 85 89
89 82 80 96 98 96 94 96 97 98 98 96 92 91 94 93 84 79 74 80 79 79 79 77 79 79 79 76 73 83 87 89 94 92 93 93 83 78 90 94 88 90 91
87 92 91 94 97 97 96 95 94 98 99 97 98 98 96 95 93 86 84 82 79 81 78 76 80 83 83 82 82 87 85 95 98 93 91 97 90 91 94 92 93 92 95
97 96 94 94 94 98 98 97 96 97 97 98 98 98 95 96 91 89 87 86 78 78 78 79 80 81 84 90 87 91 91 94 99 98 96 92 85 89 95 94 93 92 90
95 98 96 93 96 98 98 98 97 96 96 97 91 95 95 91 96 96 98 91 86 80 78 80 84 84 88 88 91 94 93 94 96 97 98 97 97 94 93 92 94 94 91
96 96 97 97 98 99 98 99 98 96 95 94 88 89 91 91 94 94 96 96 94 92 86 87 85 85 90 94 92 93 94 96 97 97 97 98 96 97 98 98 92 89 88
97 98 98 98 98 99 99 98 97 96 97 96 94 87 88 90 88 88 90 91 93 95 91 93 96 94 92 96 97 98 97 97 98 98 97 95 95 96 95 93 97 96 94
94 95 96 98 99 99 98 97 97 98 97 93 93 93 91 93 92 88 89 86 85 85 88 88 94 95 96 97 97 98 98 98 98 98 97 97 97 96 95 96 95 95 94
91 92 91 92 96 96 97 98 97 98 98 97 93 93 95 96 95 94 96 97 90 97 97 94 98 98 98 98 98 98 98 98 98 97 97 98 97 98 96 93 91 89 98
87 90 88 82 71 83 96 97 97 98 99 99 98 99 98 98 98 95 97 98 98 99 99 99 99 99 99 98 98 98 98 98 99 99 99 98 99 99 99 98 98 97 95
67 82 81 78 75 74 84 96 98 97 99 98 98 99 99 99 98 98 99 99 98 98 97 96 98 98 99 99 99 98 98 98 98 99 99 98 98 98 98 98 98 98 94
64 64 72 71 78 80 85 92 96 99 98 98 98 98 99 99 99 98 98 98 98 98 98 98 97 96 98 99 99 98 98 98 99 99 99 99 99 100 99 98 98 97 94
67 68 67 66 68 78 78 85 91 98 99 99 98 99 99 99 99 100 99 98 98 98 99 99 98 98 98 99 99 99 99 99 98 98 98 98 99 99 99 99 98 97 97
74 74 77 76 72 69 78 82 85 90 96 99 98 98 99 98 98 99 99 99 99 99 99 98 97 98 98 99 99 99 99 98 98 98 97 98 96 96 97 98 96 96 96
82 80 82 85 83 80 74 74 84 89 91 93 98 99 99 98 99 99 99 99 99 99 99 99 97 95 98 98 99 99 98 99 99 98 98 97 97 96 94 93 95 95 96
90 88 84 87 88 93 88 78 80 90 89 94 97 97 97 97 97 96 97 98 98 98 98 98 99 99 99 99 100 98 98 98 98 97 97 96 96 93 92 87 89 90 94
92 94 94 93 93 94 94 92 87 89 89 89 90 92 95 96 95 94 93 93 90 86 86 86 88 92 89 93 92 92 91 92 92 92 93 91 92 92 93 87 86 84 82
87 91 94 92 93 93 92 93 92 92 90 90 90 91 89 91 93 93 94 94 92 90 90 89 86 86 85 91 90 90 92 94 90 87 85 87 95 93 93 90 93 92 92
88 90 92 92 93 93 94 93 91 91 89 92 93 92 92 91 90 91 92 94 98 98 93 92 90 89 88 91 89 85 85 87 89 90 88 86 91 90 89 93 94 91 89
86 88 89 91 91 93 93 92 93 93 94 94 93 93 92 92 92 91 92 93 93 95 97 93 92 88 89 88 89 83 84 87 91 92 92 88 90 90 87 87 90 94 90
84 86 89 92 93 93 92 93 93 95 95 94 94 92 92 92 93 93 93 93 94 95 94 94 93 89 90 92 90 85 83 86 92 96 97 96 83 88 84 83 88 88 84
86 86 87 90 90 91 91 92 93 94 95 94 93 94 93 93 96 95 95 94 96 96 96 95 95 96 90 90 91 88 82 83 88 92 92 93 88 88 87 83 80 78 79
82 86 87 88 89 90 91 91 92 94 95 93 94 93 92 93 95 95 95 96 97 98 98 98 98 96 96 97 91 89 84 83 88 90 86 87 90 90 88 85 81 78 86
72 87 87 87 88 90 91 91 92 93 94 94 95 94 92 92 92 92 94 96 95 95 95 96 97 97 97 97 98 96 92 85 86 85 88 86 89 88 92 92 88 93 84
77 87 89 90 88 89 90 89 91 92 94 95 96 96 94 88 88 91 97 97 92 90 92 92 92 96 95 91 89 93 94 91 88 92 95 97 98 99 99 98 97 95 92
82 89 91 90 89 87 87 86 84 89 92 93 96 96 96 93 92 93 92 88 91 92 92 93 94 89 87 86 87 90 92 91 86 94 94 94 94 96 95 91 90 94 93